<?xml version="1.0" encoding="UTF-8" standalone="no" ?>
<gpx xmlns="http://www.topografix.com/GPX/1/1" xmlns:xsi="http://www.w3.org/2001/XMLSchema-instance" xsi:schemaLocation="http://www.topografix.com/GPX/1/1 http://www.topografix.com/GPX/1/1/gpx.xsd" version="1.1" creator="VisuGPX - https://www.visugpx.com">
  <metadata>
    <name>Luminy -Bec de Sormiou</name>
    <desc><![CDATA[ Une rando au départ de l'école de comerce de Luminy, sportive mais sans difficultés]]></desc>
  </metadata>
  <trk>
    <name><![CDATA[Bec de Sormiou Gilbert]]></name>
    <trkseg>
      <trkpt lat="43.23161" lon="5.43212">
        <ele>151.35</ele>
        <time>2018-01-07T08:14:08Z</time>
      </trkpt>
      <trkpt lat="43.2316" lon="5.43212">
        <ele>151.35</ele>
        <time>2018-01-07T08:14:09Z</time>
      </trkpt>
      <trkpt lat="43.23153" lon="5.43211">
        <ele>152.69</ele>
        <time>2018-01-07T08:14:15Z</time>
      </trkpt>
      <trkpt lat="43.23134" lon="5.43218">
        <ele>153.46</ele>
        <time>2018-01-07T08:14:32Z</time>
      </trkpt>
      <trkpt lat="43.23129" lon="5.4322">
        <ele>155.53</ele>
        <time>2018-01-07T08:14:40Z</time>
      </trkpt>
      <trkpt lat="43.23126" lon="5.43218">
        <ele>157</ele>
        <time>2018-01-07T08:14:44Z</time>
      </trkpt>
      <trkpt lat="43.23122" lon="5.43221">
        <ele>156.79</ele>
        <time>2018-01-07T08:14:48Z</time>
      </trkpt>
      <trkpt lat="43.23102" lon="5.43223">
        <ele>156.6</ele>
        <time>2018-01-07T08:15:05Z</time>
      </trkpt>
      <trkpt lat="43.23085" lon="5.43213">
        <ele>155.17</ele>
        <time>2018-01-07T08:15:21Z</time>
      </trkpt>
      <trkpt lat="43.23078" lon="5.43205">
        <ele>153.95</ele>
        <time>2018-01-07T08:15:29Z</time>
      </trkpt>
      <trkpt lat="43.23067" lon="5.43191">
        <ele>156.43</ele>
        <time>2018-01-07T08:15:43Z</time>
      </trkpt>
      <trkpt lat="43.23056" lon="5.43172">
        <ele>156.73</ele>
        <time>2018-01-07T08:15:59Z</time>
      </trkpt>
      <trkpt lat="43.23051" lon="5.43156">
        <ele>156.39</ele>
        <time>2018-01-07T08:16:11Z</time>
      </trkpt>
      <trkpt lat="43.23042" lon="5.43131">
        <ele>155.99</ele>
        <time>2018-01-07T08:16:29Z</time>
      </trkpt>
      <trkpt lat="43.23035" lon="5.43101">
        <ele>155.22</ele>
        <time>2018-01-07T08:16:49Z</time>
      </trkpt>
      <trkpt lat="43.23027" lon="5.43072">
        <ele>155.14</ele>
        <time>2018-01-07T08:17:09Z</time>
      </trkpt>
      <trkpt lat="43.23022" lon="5.43051">
        <ele>158.16</ele>
        <time>2018-01-07T08:17:24Z</time>
      </trkpt>
      <trkpt lat="43.23021" lon="5.43049">
        <ele>158.36</ele>
        <time>2018-01-07T08:17:25Z</time>
      </trkpt>
      <trkpt lat="43.23021" lon="5.43047">
        <ele>158.73</ele>
        <time>2018-01-07T08:17:27Z</time>
      </trkpt>
      <trkpt lat="43.23013" lon="5.43026">
        <ele>160.63</ele>
        <time>2018-01-07T08:17:45Z</time>
      </trkpt>
      <trkpt lat="43.23009" lon="5.4302">
        <ele>160.47</ele>
        <time>2018-01-07T08:17:51Z</time>
      </trkpt>
      <trkpt lat="43.22996" lon="5.43003">
        <ele>162.99</ele>
        <time>2018-01-07T08:18:10Z</time>
      </trkpt>
      <trkpt lat="43.22984" lon="5.42991">
        <ele>164.23</ele>
        <time>2018-01-07T08:18:25Z</time>
      </trkpt>
      <trkpt lat="43.22976" lon="5.4298">
        <ele>165.21</ele>
        <time>2018-01-07T08:18:37Z</time>
      </trkpt>
      <trkpt lat="43.22978" lon="5.42963">
        <ele>167.42</ele>
        <time>2018-01-07T08:18:54Z</time>
      </trkpt>
      <trkpt lat="43.2298" lon="5.42958">
        <ele>167.91</ele>
        <time>2018-01-07T08:18:59Z</time>
      </trkpt>
      <trkpt lat="43.22982" lon="5.42955">
        <ele>168.06</ele>
        <time>2018-01-07T08:19:01Z</time>
      </trkpt>
      <trkpt lat="43.22989" lon="5.42937">
        <ele>169.38</ele>
        <time>2018-01-07T08:19:14Z</time>
      </trkpt>
      <trkpt lat="43.22995" lon="5.42915">
        <ele>170.74</ele>
        <time>2018-01-07T08:19:30Z</time>
      </trkpt>
      <trkpt lat="43.22994" lon="5.42894">
        <ele>171.89</ele>
        <time>2018-01-07T08:19:46Z</time>
      </trkpt>
      <trkpt lat="43.22996" lon="5.42866">
        <ele>172.89</ele>
        <time>2018-01-07T08:20:06Z</time>
      </trkpt>
      <trkpt lat="43.23001" lon="5.42849">
        <ele>174.36</ele>
        <time>2018-01-07T08:20:19Z</time>
      </trkpt>
      <trkpt lat="43.23008" lon="5.42832">
        <ele>176.74</ele>
        <time>2018-01-07T08:20:34Z</time>
      </trkpt>
      <trkpt lat="43.23019" lon="5.42819">
        <ele>178.15</ele>
        <time>2018-01-07T08:20:49Z</time>
      </trkpt>
      <trkpt lat="43.2303" lon="5.4281">
        <ele>178.79</ele>
        <time>2018-01-07T08:21:02Z</time>
      </trkpt>
      <trkpt lat="43.23035" lon="5.42809">
        <ele>179.76</ele>
        <time>2018-01-07T08:21:07Z</time>
      </trkpt>
      <trkpt lat="43.23049" lon="5.42813">
        <ele>181.15</ele>
        <time>2018-01-07T08:21:21Z</time>
      </trkpt>
      <trkpt lat="43.23065" lon="5.42818">
        <ele>182.69</ele>
        <time>2018-01-07T08:21:37Z</time>
      </trkpt>
      <trkpt lat="43.23082" lon="5.42819">
        <ele>183.52</ele>
        <time>2018-01-07T08:21:54Z</time>
      </trkpt>
      <trkpt lat="43.23099" lon="5.42816">
        <ele>186.41</ele>
        <time>2018-01-07T08:22:11Z</time>
      </trkpt>
      <trkpt lat="43.23109" lon="5.42815">
        <ele>187.34</ele>
        <time>2018-01-07T08:22:21Z</time>
      </trkpt>
      <trkpt lat="43.23122" lon="5.42811">
        <ele>187.55</ele>
        <time>2018-01-07T08:22:34Z</time>
      </trkpt>
      <trkpt lat="43.23134" lon="5.42805">
        <ele>188.69</ele>
        <time>2018-01-07T08:22:47Z</time>
      </trkpt>
      <trkpt lat="43.23141" lon="5.42804">
        <ele>189.89</ele>
        <time>2018-01-07T08:22:56Z</time>
      </trkpt>
      <trkpt lat="43.23156" lon="5.42798">
        <ele>191.67</ele>
        <time>2018-01-07T08:23:14Z</time>
      </trkpt>
      <trkpt lat="43.23168" lon="5.42789">
        <ele>193.77</ele>
        <time>2018-01-07T08:23:29Z</time>
      </trkpt>
      <trkpt lat="43.23178" lon="5.42778">
        <ele>195.29</ele>
        <time>2018-01-07T08:23:42Z</time>
      </trkpt>
      <trkpt lat="43.23185" lon="5.42763">
        <ele>196.53</ele>
        <time>2018-01-07T08:23:55Z</time>
      </trkpt>
      <trkpt lat="43.23188" lon="5.42747">
        <ele>196.94</ele>
        <time>2018-01-07T08:24:10Z</time>
      </trkpt>
      <trkpt lat="43.23188" lon="5.42748">
        <ele>199.24</ele>
        <time>2018-01-07T08:24:37Z</time>
      </trkpt>
      <trkpt lat="43.23188" lon="5.42744">
        <ele>198.14</ele>
        <time>2018-01-07T08:24:57Z</time>
      </trkpt>
      <trkpt lat="43.23195" lon="5.42724">
        <ele>199.47</ele>
        <time>2018-01-07T08:25:13Z</time>
      </trkpt>
      <trkpt lat="43.23199" lon="5.42702">
        <ele>201.29</ele>
        <time>2018-01-07T08:25:27Z</time>
      </trkpt>
      <trkpt lat="43.232" lon="5.42696">
        <ele>202.15</ele>
        <time>2018-01-07T08:25:31Z</time>
      </trkpt>
      <trkpt lat="43.23208" lon="5.42674">
        <ele>203.79</ele>
        <time>2018-01-07T08:25:47Z</time>
      </trkpt>
      <trkpt lat="43.23215" lon="5.42656">
        <ele>205.48</ele>
        <time>2018-01-07T08:26:02Z</time>
      </trkpt>
      <trkpt lat="43.23206" lon="5.42651">
        <ele>206.39</ele>
        <time>2018-01-07T08:26:19Z</time>
      </trkpt>
      <trkpt lat="43.23199" lon="5.42663">
        <ele>207.03</ele>
        <time>2018-01-07T08:26:32Z</time>
      </trkpt>
      <trkpt lat="43.23187" lon="5.42679">
        <ele>208.92</ele>
        <time>2018-01-07T08:26:49Z</time>
      </trkpt>
      <trkpt lat="43.23176" lon="5.42696">
        <ele>210.99</ele>
        <time>2018-01-07T08:27:06Z</time>
      </trkpt>
      <trkpt lat="43.23163" lon="5.4271">
        <ele>212.08</ele>
        <time>2018-01-07T08:27:23Z</time>
      </trkpt>
      <trkpt lat="43.23157" lon="5.42717">
        <ele>214.32</ele>
        <time>2018-01-07T08:27:37Z</time>
      </trkpt>
      <trkpt lat="43.2315" lon="5.42724">
        <ele>215.99</ele>
        <time>2018-01-07T08:27:47Z</time>
      </trkpt>
      <trkpt lat="43.23143" lon="5.42726">
        <ele>216.33</ele>
        <time>2018-01-07T08:27:55Z</time>
      </trkpt>
      <trkpt lat="43.2313" lon="5.42721">
        <ele>218.44</ele>
        <time>2018-01-07T08:28:09Z</time>
      </trkpt>
      <trkpt lat="43.23127" lon="5.42718">
        <ele>218.75</ele>
        <time>2018-01-07T08:28:16Z</time>
      </trkpt>
      <trkpt lat="43.23114" lon="5.42708">
        <ele>217.43</ele>
        <time>2018-01-07T08:28:32Z</time>
      </trkpt>
      <trkpt lat="43.23108" lon="5.42705">
        <ele>216.49</ele>
        <time>2018-01-07T08:28:37Z</time>
      </trkpt>
      <trkpt lat="43.23087" lon="5.42703">
        <ele>214.69</ele>
        <time>2018-01-07T08:28:55Z</time>
      </trkpt>
      <trkpt lat="43.23066" lon="5.42705">
        <ele>214.41</ele>
        <time>2018-01-07T08:29:12Z</time>
      </trkpt>
      <trkpt lat="43.23045" lon="5.42707">
        <ele>213.19</ele>
        <time>2018-01-07T08:29:29Z</time>
      </trkpt>
      <trkpt lat="43.23039" lon="5.42707">
        <ele>212.88</ele>
        <time>2018-01-07T08:29:35Z</time>
      </trkpt>
      <trkpt lat="43.23016" lon="5.42712">
        <ele>213.03</ele>
        <time>2018-01-07T08:29:55Z</time>
      </trkpt>
      <trkpt lat="43.23002" lon="5.42717">
        <ele>212.72</ele>
        <time>2018-01-07T08:30:08Z</time>
      </trkpt>
      <trkpt lat="43.22987" lon="5.42724">
        <ele>214.87</ele>
        <time>2018-01-07T08:30:24Z</time>
      </trkpt>
      <trkpt lat="43.22976" lon="5.42729">
        <ele>216.28</ele>
        <time>2018-01-07T08:30:38Z</time>
      </trkpt>
      <trkpt lat="43.22969" lon="5.42732">
        <ele>216.98</ele>
        <time>2018-01-07T08:30:49Z</time>
      </trkpt>
      <trkpt lat="43.22963" lon="5.42735">
        <ele>216.91</ele>
        <time>2018-01-07T08:30:55Z</time>
      </trkpt>
      <trkpt lat="43.22954" lon="5.42738">
        <ele>217.27</ele>
        <time>2018-01-07T08:31:05Z</time>
      </trkpt>
      <trkpt lat="43.22942" lon="5.42737">
        <ele>217.75</ele>
        <time>2018-01-07T08:31:20Z</time>
      </trkpt>
      <trkpt lat="43.22939" lon="5.42737">
        <ele>218.24</ele>
        <time>2018-01-07T08:31:23Z</time>
      </trkpt>
      <trkpt lat="43.22926" lon="5.42727">
        <ele>221.54</ele>
        <time>2018-01-07T08:31:38Z</time>
      </trkpt>
      <trkpt lat="43.22915" lon="5.42718">
        <ele>224.8</ele>
        <time>2018-01-07T08:31:52Z</time>
      </trkpt>
      <trkpt lat="43.22911" lon="5.42715">
        <ele>225.31</ele>
        <time>2018-01-07T08:31:57Z</time>
      </trkpt>
      <trkpt lat="43.22897" lon="5.42709">
        <ele>223.73</ele>
        <time>2018-01-07T08:32:10Z</time>
      </trkpt>
      <trkpt lat="43.22888" lon="5.42708">
        <ele>222.96</ele>
        <time>2018-01-07T08:32:19Z</time>
      </trkpt>
      <trkpt lat="43.2287" lon="5.42707">
        <ele>223.54</ele>
        <time>2018-01-07T08:32:36Z</time>
      </trkpt>
      <trkpt lat="43.22855" lon="5.4271">
        <ele>224.62</ele>
        <time>2018-01-07T08:32:48Z</time>
      </trkpt>
      <trkpt lat="43.22847" lon="5.42708">
        <ele>224.99</ele>
        <time>2018-01-07T08:32:54Z</time>
      </trkpt>
      <trkpt lat="43.22834" lon="5.42691">
        <ele>221.9</ele>
        <time>2018-01-07T08:33:10Z</time>
      </trkpt>
      <trkpt lat="43.22826" lon="5.42672">
        <ele>225.11</ele>
        <time>2018-01-07T08:33:24Z</time>
      </trkpt>
      <trkpt lat="43.22824" lon="5.4267">
        <ele>225.97</ele>
        <time>2018-01-07T08:33:26Z</time>
      </trkpt>
      <trkpt lat="43.22815" lon="5.42651">
        <ele>227.79</ele>
        <time>2018-01-07T08:33:40Z</time>
      </trkpt>
      <trkpt lat="43.22809" lon="5.42632">
        <ele>228.21</ele>
        <time>2018-01-07T08:33:54Z</time>
      </trkpt>
      <trkpt lat="43.22806" lon="5.42612">
        <ele>227.58</ele>
        <time>2018-01-07T08:34:08Z</time>
      </trkpt>
      <trkpt lat="43.228" lon="5.42589">
        <ele>229.39</ele>
        <time>2018-01-07T08:34:25Z</time>
      </trkpt>
      <trkpt lat="43.22795" lon="5.42576">
        <ele>229.1</ele>
        <time>2018-01-07T08:34:36Z</time>
      </trkpt>
      <trkpt lat="43.22791" lon="5.42565">
        <ele>229.35</ele>
        <time>2018-01-07T08:34:47Z</time>
      </trkpt>
      <trkpt lat="43.22782" lon="5.42553">
        <ele>232.83</ele>
        <time>2018-01-07T08:34:59Z</time>
      </trkpt>
      <trkpt lat="43.22777" lon="5.42543">
        <ele>232.84</ele>
        <time>2018-01-07T08:35:08Z</time>
      </trkpt>
      <trkpt lat="43.22766" lon="5.42526">
        <ele>233.11</ele>
        <time>2018-01-07T08:35:26Z</time>
      </trkpt>
      <trkpt lat="43.22758" lon="5.42508">
        <ele>236.13</ele>
        <time>2018-01-07T08:35:41Z</time>
      </trkpt>
      <trkpt lat="43.22757" lon="5.42499">
        <ele>237.74</ele>
        <time>2018-01-07T08:35:48Z</time>
      </trkpt>
      <trkpt lat="43.22756" lon="5.42476">
        <ele>238.53</ele>
        <time>2018-01-07T08:36:05Z</time>
      </trkpt>
      <trkpt lat="43.22748" lon="5.42454">
        <ele>238.94</ele>
        <time>2018-01-07T08:36:21Z</time>
      </trkpt>
      <trkpt lat="43.22747" lon="5.42454">
        <ele>239.02</ele>
        <time>2018-01-07T08:36:22Z</time>
      </trkpt>
      <trkpt lat="43.22728" lon="5.42447">
        <ele>239.57</ele>
        <time>2018-01-07T08:36:41Z</time>
      </trkpt>
      <trkpt lat="43.22711" lon="5.42444">
        <ele>238.13</ele>
        <time>2018-01-07T08:36:57Z</time>
      </trkpt>
      <trkpt lat="43.22703" lon="5.42437">
        <ele>238.95</ele>
        <time>2018-01-07T08:37:13Z</time>
      </trkpt>
      <trkpt lat="43.22699" lon="5.42424">
        <ele>242.1</ele>
        <time>2018-01-07T08:37:31Z</time>
      </trkpt>
      <trkpt lat="43.22699" lon="5.42413">
        <ele>245.07</ele>
        <time>2018-01-07T08:37:47Z</time>
      </trkpt>
      <trkpt lat="43.227" lon="5.42411">
        <ele>243.75</ele>
        <time>2018-01-07T08:38:10Z</time>
      </trkpt>
      <trkpt lat="43.227" lon="5.4241">
        <ele>243.22</ele>
        <time>2018-01-07T08:39:02Z</time>
      </trkpt>
      <trkpt lat="43.22699" lon="5.4241">
        <ele>242.23</ele>
        <time>2018-01-07T08:39:44Z</time>
      </trkpt>
      <trkpt lat="43.227" lon="5.42409">
        <ele>244.39</ele>
        <time>2018-01-07T08:41:01Z</time>
      </trkpt>
      <trkpt lat="43.22702" lon="5.42408">
        <ele>245.11</ele>
        <time>2018-01-07T08:41:18Z</time>
      </trkpt>
      <trkpt lat="43.22705" lon="5.42405">
        <ele>245.09</ele>
        <time>2018-01-07T08:41:36Z</time>
      </trkpt>
      <trkpt lat="43.22709" lon="5.42397">
        <ele>244.63</ele>
        <time>2018-01-07T08:41:50Z</time>
      </trkpt>
      <trkpt lat="43.22718" lon="5.42406">
        <ele>245.73</ele>
        <time>2018-01-07T08:42:04Z</time>
      </trkpt>
      <trkpt lat="43.22718" lon="5.42406">
        <ele>245.76</ele>
        <time>2018-01-07T08:42:05Z</time>
      </trkpt>
      <trkpt lat="43.22726" lon="5.4241">
        <ele>247.02</ele>
        <time>2018-01-07T08:42:12Z</time>
      </trkpt>
      <trkpt lat="43.2273" lon="5.42411">
        <ele>247.86</ele>
        <time>2018-01-07T08:42:17Z</time>
      </trkpt>
      <trkpt lat="43.22745" lon="5.42416">
        <ele>247.58</ele>
        <time>2018-01-07T08:42:33Z</time>
      </trkpt>
      <trkpt lat="43.22761" lon="5.42422">
        <ele>247.6</ele>
        <time>2018-01-07T08:42:51Z</time>
      </trkpt>
      <trkpt lat="43.22772" lon="5.42427">
        <ele>248.65</ele>
        <time>2018-01-07T08:43:10Z</time>
      </trkpt>
      <trkpt lat="43.2278" lon="5.42436">
        <ele>250.84</ele>
        <time>2018-01-07T08:43:27Z</time>
      </trkpt>
      <trkpt lat="43.2279" lon="5.42437">
        <ele>253.13</ele>
        <time>2018-01-07T08:43:49Z</time>
      </trkpt>
      <trkpt lat="43.22796" lon="5.4243">
        <ele>254.68</ele>
        <time>2018-01-07T08:44:02Z</time>
      </trkpt>
      <trkpt lat="43.22804" lon="5.42427">
        <ele>257.35</ele>
        <time>2018-01-07T08:44:19Z</time>
      </trkpt>
      <trkpt lat="43.22817" lon="5.42428">
        <ele>258.18</ele>
        <time>2018-01-07T08:44:35Z</time>
      </trkpt>
      <trkpt lat="43.22826" lon="5.42416">
        <ele>259.35</ele>
        <time>2018-01-07T08:44:51Z</time>
      </trkpt>
      <trkpt lat="43.22837" lon="5.42405">
        <ele>261.49</ele>
        <time>2018-01-07T08:45:08Z</time>
      </trkpt>
      <trkpt lat="43.22843" lon="5.42402">
        <ele>264.54</ele>
        <time>2018-01-07T08:45:17Z</time>
      </trkpt>
      <trkpt lat="43.22858" lon="5.42396">
        <ele>264.24</ele>
        <time>2018-01-07T08:45:36Z</time>
      </trkpt>
      <trkpt lat="43.22867" lon="5.42387">
        <ele>265.18</ele>
        <time>2018-01-07T08:45:53Z</time>
      </trkpt>
      <trkpt lat="43.22874" lon="5.42376">
        <ele>265.27</ele>
        <time>2018-01-07T08:46:08Z</time>
      </trkpt>
      <trkpt lat="43.2288" lon="5.42361">
        <ele>268.32</ele>
        <time>2018-01-07T08:46:24Z</time>
      </trkpt>
      <trkpt lat="43.22885" lon="5.42335">
        <ele>269.9</ele>
        <time>2018-01-07T08:46:42Z</time>
      </trkpt>
      <trkpt lat="43.22892" lon="5.4232">
        <ele>271.07</ele>
        <time>2018-01-07T08:46:57Z</time>
      </trkpt>
      <trkpt lat="43.229" lon="5.42296">
        <ele>270.75</ele>
        <time>2018-01-07T08:47:13Z</time>
      </trkpt>
      <trkpt lat="43.22905" lon="5.42273">
        <ele>270.63</ele>
        <time>2018-01-07T08:47:30Z</time>
      </trkpt>
      <trkpt lat="43.22906" lon="5.42261">
        <ele>270.64</ele>
        <time>2018-01-07T08:47:45Z</time>
      </trkpt>
      <trkpt lat="43.22907" lon="5.42254">
        <ele>270.9</ele>
        <time>2018-01-07T08:48:02Z</time>
      </trkpt>
      <trkpt lat="43.22907" lon="5.42251">
        <ele>269.75</ele>
        <time>2018-01-07T08:48:36Z</time>
      </trkpt>
      <trkpt lat="43.22908" lon="5.42252">
        <ele>270.38</ele>
        <time>2018-01-07T08:49:09Z</time>
      </trkpt>
      <trkpt lat="43.22908" lon="5.42252">
        <ele>271.28</ele>
        <time>2018-01-07T08:49:45Z</time>
      </trkpt>
      <trkpt lat="43.22908" lon="5.42253">
        <ele>271.54</ele>
        <time>2018-01-07T08:50:17Z</time>
      </trkpt>
      <trkpt lat="43.22909" lon="5.42254">
        <ele>270.9</ele>
        <time>2018-01-07T08:50:43Z</time>
      </trkpt>
      <trkpt lat="43.22908" lon="5.42254">
        <ele>270.73</ele>
        <time>2018-01-07T08:51:14Z</time>
      </trkpt>
      <trkpt lat="43.22908" lon="5.42254">
        <ele>270.26</ele>
        <time>2018-01-07T08:51:46Z</time>
      </trkpt>
      <trkpt lat="43.22908" lon="5.42255">
        <ele>271.24</ele>
        <time>2018-01-07T08:52:16Z</time>
      </trkpt>
      <trkpt lat="43.22908" lon="5.42259">
        <ele>270.53</ele>
        <time>2018-01-07T08:52:37Z</time>
      </trkpt>
      <trkpt lat="43.22909" lon="5.42263">
        <ele>270.94</ele>
        <time>2018-01-07T08:53:05Z</time>
      </trkpt>
      <trkpt lat="43.22906" lon="5.42272">
        <ele>270.68</ele>
        <time>2018-01-07T08:53:31Z</time>
      </trkpt>
      <trkpt lat="43.22902" lon="5.4229">
        <ele>270.01</ele>
        <time>2018-01-07T08:53:47Z</time>
      </trkpt>
      <trkpt lat="43.22901" lon="5.42293">
        <ele>269.77</ele>
        <time>2018-01-07T08:53:49Z</time>
      </trkpt>
      <trkpt lat="43.22898" lon="5.42306">
        <ele>270.51</ele>
        <time>2018-01-07T08:54:00Z</time>
      </trkpt>
      <trkpt lat="43.2289" lon="5.42324">
        <ele>270.31</ele>
        <time>2018-01-07T08:54:14Z</time>
      </trkpt>
      <trkpt lat="43.22881" lon="5.42351">
        <ele>270.41</ele>
        <time>2018-01-07T08:54:32Z</time>
      </trkpt>
      <trkpt lat="43.22871" lon="5.42378">
        <ele>268.19</ele>
        <time>2018-01-07T08:54:52Z</time>
      </trkpt>
      <trkpt lat="43.22871" lon="5.42379">
        <ele>267.67</ele>
        <time>2018-01-07T08:54:53Z</time>
      </trkpt>
      <trkpt lat="43.2287" lon="5.42381">
        <ele>267.19</ele>
        <time>2018-01-07T08:54:54Z</time>
      </trkpt>
      <trkpt lat="43.22866" lon="5.42393">
        <ele>266.12</ele>
        <time>2018-01-07T08:55:03Z</time>
      </trkpt>
      <trkpt lat="43.22865" lon="5.42394">
        <ele>266.01</ele>
        <time>2018-01-07T08:55:04Z</time>
      </trkpt>
      <trkpt lat="43.22857" lon="5.42399">
        <ele>263.6</ele>
        <time>2018-01-07T08:55:12Z</time>
      </trkpt>
      <trkpt lat="43.22856" lon="5.424">
        <ele>263.51</ele>
        <time>2018-01-07T08:55:13Z</time>
      </trkpt>
      <trkpt lat="43.22855" lon="5.42401">
        <ele>263.62</ele>
        <time>2018-01-07T08:55:14Z</time>
      </trkpt>
      <trkpt lat="43.22854" lon="5.42402">
        <ele>263.74</ele>
        <time>2018-01-07T08:55:15Z</time>
      </trkpt>
      <trkpt lat="43.22853" lon="5.42403">
        <ele>263.84</ele>
        <time>2018-01-07T08:55:16Z</time>
      </trkpt>
      <trkpt lat="43.22841" lon="5.42405">
        <ele>263.23</ele>
        <time>2018-01-07T08:55:30Z</time>
      </trkpt>
      <trkpt lat="43.2283" lon="5.42415">
        <ele>262.36</ele>
        <time>2018-01-07T08:55:46Z</time>
      </trkpt>
      <trkpt lat="43.22827" lon="5.4242">
        <ele>261.87</ele>
        <time>2018-01-07T08:55:51Z</time>
      </trkpt>
      <trkpt lat="43.22818" lon="5.42431">
        <ele>258.82</ele>
        <time>2018-01-07T08:56:05Z</time>
      </trkpt>
      <trkpt lat="43.22815" lon="5.4244">
        <ele>257.2</ele>
        <time>2018-01-07T08:56:21Z</time>
      </trkpt>
      <trkpt lat="43.22811" lon="5.42423">
        <ele>259.41</ele>
        <time>2018-01-07T08:56:36Z</time>
      </trkpt>
      <trkpt lat="43.2281" lon="5.42423">
        <ele>260.5</ele>
        <time>2018-01-07T08:56:52Z</time>
      </trkpt>
      <trkpt lat="43.22808" lon="5.42428">
        <ele>260.02</ele>
        <time>2018-01-07T08:57:13Z</time>
      </trkpt>
      <trkpt lat="43.228" lon="5.42429">
        <ele>257.83</ele>
        <time>2018-01-07T08:57:28Z</time>
      </trkpt>
      <trkpt lat="43.22792" lon="5.42436">
        <ele>254.63</ele>
        <time>2018-01-07T08:57:42Z</time>
      </trkpt>
      <trkpt lat="43.22786" lon="5.42435">
        <ele>252.02</ele>
        <time>2018-01-07T08:57:53Z</time>
      </trkpt>
      <trkpt lat="43.22779" lon="5.4243">
        <ele>250.71</ele>
        <time>2018-01-07T08:58:04Z</time>
      </trkpt>
      <trkpt lat="43.2277" lon="5.4242">
        <ele>248.96</ele>
        <time>2018-01-07T08:58:18Z</time>
      </trkpt>
      <trkpt lat="43.22766" lon="5.42419">
        <ele>248.16</ele>
        <time>2018-01-07T08:58:23Z</time>
      </trkpt>
      <trkpt lat="43.22765" lon="5.42418">
        <ele>247.95</ele>
        <time>2018-01-07T08:58:24Z</time>
      </trkpt>
      <trkpt lat="43.22761" lon="5.42416">
        <ele>246.85</ele>
        <time>2018-01-07T08:58:29Z</time>
      </trkpt>
      <trkpt lat="43.22746" lon="5.42409">
        <ele>245.38</ele>
        <time>2018-01-07T08:58:45Z</time>
      </trkpt>
      <trkpt lat="43.2273" lon="5.42404">
        <ele>245.79</ele>
        <time>2018-01-07T08:59:02Z</time>
      </trkpt>
      <trkpt lat="43.22722" lon="5.42403">
        <ele>245.45</ele>
        <time>2018-01-07T08:59:12Z</time>
      </trkpt>
      <trkpt lat="43.22708" lon="5.42404">
        <ele>244.58</ele>
        <time>2018-01-07T08:59:28Z</time>
      </trkpt>
      <trkpt lat="43.22697" lon="5.42415">
        <ele>244.6</ele>
        <time>2018-01-07T08:59:44Z</time>
      </trkpt>
      <trkpt lat="43.22685" lon="5.42426">
        <ele>242.14</ele>
        <time>2018-01-07T09:00:00Z</time>
      </trkpt>
      <trkpt lat="43.22683" lon="5.42429">
        <ele>241.58</ele>
        <time>2018-01-07T09:00:03Z</time>
      </trkpt>
      <trkpt lat="43.22682" lon="5.42432">
        <ele>241.07</ele>
        <time>2018-01-07T09:00:05Z</time>
      </trkpt>
      <trkpt lat="43.22678" lon="5.42435">
        <ele>240.02</ele>
        <time>2018-01-07T09:00:09Z</time>
      </trkpt>
      <trkpt lat="43.2267" lon="5.42444">
        <ele>239.3</ele>
        <time>2018-01-07T09:00:20Z</time>
      </trkpt>
      <trkpt lat="43.22669" lon="5.42445">
        <ele>239.17</ele>
        <time>2018-01-07T09:00:21Z</time>
      </trkpt>
      <trkpt lat="43.22668" lon="5.42445">
        <ele>239.1</ele>
        <time>2018-01-07T09:00:22Z</time>
      </trkpt>
      <trkpt lat="43.22667" lon="5.42445">
        <ele>239.01</ele>
        <time>2018-01-07T09:00:23Z</time>
      </trkpt>
      <trkpt lat="43.22655" lon="5.42451">
        <ele>237.98</ele>
        <time>2018-01-07T09:00:34Z</time>
      </trkpt>
      <trkpt lat="43.22646" lon="5.4246">
        <ele>238</ele>
        <time>2018-01-07T09:00:50Z</time>
      </trkpt>
      <trkpt lat="43.22636" lon="5.42468">
        <ele>239.99</ele>
        <time>2018-01-07T09:01:08Z</time>
      </trkpt>
      <trkpt lat="43.22625" lon="5.4248">
        <ele>242.96</ele>
        <time>2018-01-07T09:01:25Z</time>
      </trkpt>
      <trkpt lat="43.22615" lon="5.42494">
        <ele>241.56</ele>
        <time>2018-01-07T09:01:45Z</time>
      </trkpt>
      <trkpt lat="43.22603" lon="5.4251">
        <ele>243.41</ele>
        <time>2018-01-07T09:02:04Z</time>
      </trkpt>
      <trkpt lat="43.22596" lon="5.42525">
        <ele>245.26</ele>
        <time>2018-01-07T09:02:21Z</time>
      </trkpt>
      <trkpt lat="43.22594" lon="5.42531">
        <ele>245.13</ele>
        <time>2018-01-07T09:02:27Z</time>
      </trkpt>
      <trkpt lat="43.22593" lon="5.42532">
        <ele>244.93</ele>
        <time>2018-01-07T09:02:28Z</time>
      </trkpt>
      <trkpt lat="43.2258" lon="5.4255">
        <ele>244.39</ele>
        <time>2018-01-07T09:02:47Z</time>
      </trkpt>
      <trkpt lat="43.22578" lon="5.42554">
        <ele>245.61</ele>
        <time>2018-01-07T09:02:50Z</time>
      </trkpt>
      <trkpt lat="43.22574" lon="5.42559">
        <ele>248.83</ele>
        <time>2018-01-07T09:02:56Z</time>
      </trkpt>
      <trkpt lat="43.22568" lon="5.42576">
        <ele>250.43</ele>
        <time>2018-01-07T09:03:12Z</time>
      </trkpt>
      <trkpt lat="43.22563" lon="5.42593">
        <ele>250.9</ele>
        <time>2018-01-07T09:03:30Z</time>
      </trkpt>
      <trkpt lat="43.22557" lon="5.42606">
        <ele>253.97</ele>
        <time>2018-01-07T09:03:44Z</time>
      </trkpt>
      <trkpt lat="43.22558" lon="5.42622">
        <ele>254.75</ele>
        <time>2018-01-07T09:04:00Z</time>
      </trkpt>
      <trkpt lat="43.22561" lon="5.42637">
        <ele>255.98</ele>
        <time>2018-01-07T09:04:14Z</time>
      </trkpt>
      <trkpt lat="43.22555" lon="5.42638">
        <ele>257.49</ele>
        <time>2018-01-07T09:04:29Z</time>
      </trkpt>
      <trkpt lat="43.2255" lon="5.42626">
        <ele>257.68</ele>
        <time>2018-01-07T09:04:41Z</time>
      </trkpt>
      <trkpt lat="43.22544" lon="5.42609">
        <ele>259.43</ele>
        <time>2018-01-07T09:04:56Z</time>
      </trkpt>
      <trkpt lat="43.22545" lon="5.4259">
        <ele>260.26</ele>
        <time>2018-01-07T09:05:13Z</time>
      </trkpt>
      <trkpt lat="43.22546" lon="5.42569">
        <ele>260.51</ele>
        <time>2018-01-07T09:05:32Z</time>
      </trkpt>
      <trkpt lat="43.22548" lon="5.4255">
        <ele>261.47</ele>
        <time>2018-01-07T09:05:47Z</time>
      </trkpt>
      <trkpt lat="43.22549" lon="5.42523">
        <ele>263.99</ele>
        <time>2018-01-07T09:06:06Z</time>
      </trkpt>
      <trkpt lat="43.22543" lon="5.42506">
        <ele>266.33</ele>
        <time>2018-01-07T09:06:21Z</time>
      </trkpt>
      <trkpt lat="43.22537" lon="5.42515">
        <ele>267.28</ele>
        <time>2018-01-07T09:06:36Z</time>
      </trkpt>
      <trkpt lat="43.22538" lon="5.42532">
        <ele>269.05</ele>
        <time>2018-01-07T09:06:54Z</time>
      </trkpt>
      <trkpt lat="43.22532" lon="5.42544">
        <ele>269.05</ele>
        <time>2018-01-07T09:07:11Z</time>
      </trkpt>
      <trkpt lat="43.22523" lon="5.42559">
        <ele>270.45</ele>
        <time>2018-01-07T09:07:31Z</time>
      </trkpt>
      <trkpt lat="43.22519" lon="5.42567">
        <ele>273.53</ele>
        <time>2018-01-07T09:07:41Z</time>
      </trkpt>
      <trkpt lat="43.22513" lon="5.42582">
        <ele>275.17</ele>
        <time>2018-01-07T09:07:56Z</time>
      </trkpt>
      <trkpt lat="43.22512" lon="5.42591">
        <ele>275.17</ele>
        <time>2018-01-07T09:08:12Z</time>
      </trkpt>
      <trkpt lat="43.22509" lon="5.42594">
        <ele>277.31</ele>
        <time>2018-01-07T09:08:35Z</time>
      </trkpt>
      <trkpt lat="43.225" lon="5.42592">
        <ele>276.74</ele>
        <time>2018-01-07T09:08:51Z</time>
      </trkpt>
      <trkpt lat="43.225" lon="5.42576">
        <ele>276.88</ele>
        <time>2018-01-07T09:09:04Z</time>
      </trkpt>
      <trkpt lat="43.22499" lon="5.42575">
        <ele>276.88</ele>
        <time>2018-01-07T09:09:05Z</time>
      </trkpt>
      <trkpt lat="43.22499" lon="5.42573">
        <ele>276.87</ele>
        <time>2018-01-07T09:09:06Z</time>
      </trkpt>
      <trkpt lat="43.22502" lon="5.42562">
        <ele>275.29</ele>
        <time>2018-01-07T09:09:18Z</time>
      </trkpt>
      <trkpt lat="43.22505" lon="5.42543">
        <ele>275.88</ele>
        <time>2018-01-07T09:09:38Z</time>
      </trkpt>
      <trkpt lat="43.2251" lon="5.42529">
        <ele>277.04</ele>
        <time>2018-01-07T09:09:53Z</time>
      </trkpt>
      <trkpt lat="43.22513" lon="5.42516">
        <ele>276.51</ele>
        <time>2018-01-07T09:10:10Z</time>
      </trkpt>
      <trkpt lat="43.22513" lon="5.42514">
        <ele>275.14</ele>
        <time>2018-01-07T09:10:32Z</time>
      </trkpt>
      <trkpt lat="43.22507" lon="5.42509">
        <ele>274.34</ele>
        <time>2018-01-07T09:10:47Z</time>
      </trkpt>
      <trkpt lat="43.22505" lon="5.42506">
        <ele>272.27</ele>
        <time>2018-01-07T09:11:01Z</time>
      </trkpt>
      <trkpt lat="43.22503" lon="5.42502">
        <ele>270.36</ele>
        <time>2018-01-07T09:11:16Z</time>
      </trkpt>
      <trkpt lat="43.22506" lon="5.42493">
        <ele>267.93</ele>
        <time>2018-01-07T09:11:32Z</time>
      </trkpt>
      <trkpt lat="43.22499" lon="5.42488">
        <ele>265.36</ele>
        <time>2018-01-07T09:11:46Z</time>
      </trkpt>
      <trkpt lat="43.22495" lon="5.42487">
        <ele>263.74</ele>
        <time>2018-01-07T09:12:01Z</time>
      </trkpt>
      <trkpt lat="43.22495" lon="5.42484">
        <ele>264.73</ele>
        <time>2018-01-07T09:12:16Z</time>
      </trkpt>
      <trkpt lat="43.22489" lon="5.42482">
        <ele>263.03</ele>
        <time>2018-01-07T09:12:29Z</time>
      </trkpt>
      <trkpt lat="43.22481" lon="5.42479">
        <ele>261.36</ele>
        <time>2018-01-07T09:12:43Z</time>
      </trkpt>
      <trkpt lat="43.22477" lon="5.42479">
        <ele>260.93</ele>
        <time>2018-01-07T09:12:58Z</time>
      </trkpt>
      <trkpt lat="43.22474" lon="5.42474">
        <ele>260.1</ele>
        <time>2018-01-07T09:13:08Z</time>
      </trkpt>
      <trkpt lat="43.22472" lon="5.42473">
        <ele>259.01</ele>
        <time>2018-01-07T09:13:14Z</time>
      </trkpt>
      <trkpt lat="43.22471" lon="5.4247">
        <ele>262.14</ele>
        <time>2018-01-07T09:13:23Z</time>
      </trkpt>
      <trkpt lat="43.22471" lon="5.42469">
        <ele>258.85</ele>
        <time>2018-01-07T09:13:34Z</time>
      </trkpt>
      <trkpt lat="43.22467" lon="5.42464">
        <ele>257.01</ele>
        <time>2018-01-07T09:13:51Z</time>
      </trkpt>
      <trkpt lat="43.22464" lon="5.42463">
        <ele>254.83</ele>
        <time>2018-01-07T09:13:56Z</time>
      </trkpt>
      <trkpt lat="43.22462" lon="5.42461">
        <ele>253.8</ele>
        <time>2018-01-07T09:14:10Z</time>
      </trkpt>
      <trkpt lat="43.22461" lon="5.42455">
        <ele>252.92</ele>
        <time>2018-01-07T09:14:26Z</time>
      </trkpt>
      <trkpt lat="43.22458" lon="5.42449">
        <ele>250.82</ele>
        <time>2018-01-07T09:14:41Z</time>
      </trkpt>
      <trkpt lat="43.22458" lon="5.42443">
        <ele>247.75</ele>
        <time>2018-01-07T09:14:52Z</time>
      </trkpt>
      <trkpt lat="43.22451" lon="5.42441">
        <ele>244.91</ele>
        <time>2018-01-07T09:15:08Z</time>
      </trkpt>
      <trkpt lat="43.22444" lon="5.42437">
        <ele>243.44</ele>
        <time>2018-01-07T09:15:28Z</time>
      </trkpt>
      <trkpt lat="43.22434" lon="5.4243">
        <ele>240.5</ele>
        <time>2018-01-07T09:15:50Z</time>
      </trkpt>
      <trkpt lat="43.22427" lon="5.42428">
        <ele>237.39</ele>
        <time>2018-01-07T09:16:03Z</time>
      </trkpt>
      <trkpt lat="43.22423" lon="5.42426">
        <ele>234.59</ele>
        <time>2018-01-07T09:16:12Z</time>
      </trkpt>
      <trkpt lat="43.2242" lon="5.42422">
        <ele>233.7</ele>
        <time>2018-01-07T09:16:27Z</time>
      </trkpt>
      <trkpt lat="43.22416" lon="5.42416">
        <ele>231.97</ele>
        <time>2018-01-07T09:16:48Z</time>
      </trkpt>
      <trkpt lat="43.22412" lon="5.42415">
        <ele>228.93</ele>
        <time>2018-01-07T09:17:02Z</time>
      </trkpt>
      <trkpt lat="43.22406" lon="5.42408">
        <ele>225.77</ele>
        <time>2018-01-07T09:17:19Z</time>
      </trkpt>
      <trkpt lat="43.224" lon="5.42403">
        <ele>224.55</ele>
        <time>2018-01-07T09:17:40Z</time>
      </trkpt>
      <trkpt lat="43.22389" lon="5.42407">
        <ele>221.69</ele>
        <time>2018-01-07T09:17:58Z</time>
      </trkpt>
      <trkpt lat="43.22383" lon="5.42412">
        <ele>219.78</ele>
        <time>2018-01-07T09:18:13Z</time>
      </trkpt>
      <trkpt lat="43.22378" lon="5.42413">
        <ele>219.32</ele>
        <time>2018-01-07T09:18:24Z</time>
      </trkpt>
      <trkpt lat="43.22373" lon="5.42412">
        <ele>217.18</ele>
        <time>2018-01-07T09:18:37Z</time>
      </trkpt>
      <trkpt lat="43.2237" lon="5.42408">
        <ele>217.08</ele>
        <time>2018-01-07T09:18:52Z</time>
      </trkpt>
      <trkpt lat="43.22376" lon="5.42399">
        <ele>215.71</ele>
        <time>2018-01-07T09:19:07Z</time>
      </trkpt>
      <trkpt lat="43.22373" lon="5.42402">
        <ele>214.82</ele>
        <time>2018-01-07T09:19:30Z</time>
      </trkpt>
      <trkpt lat="43.22364" lon="5.42405">
        <ele>212.9</ele>
        <time>2018-01-07T09:19:43Z</time>
      </trkpt>
      <trkpt lat="43.22363" lon="5.42405">
        <ele>212.8</ele>
        <time>2018-01-07T09:19:44Z</time>
      </trkpt>
      <trkpt lat="43.22362" lon="5.42405">
        <ele>212.73</ele>
        <time>2018-01-07T09:19:45Z</time>
      </trkpt>
      <trkpt lat="43.22361" lon="5.42405">
        <ele>212.7</ele>
        <time>2018-01-07T09:19:46Z</time>
      </trkpt>
      <trkpt lat="43.22345" lon="5.42398">
        <ele>209.63</ele>
        <time>2018-01-07T09:20:03Z</time>
      </trkpt>
      <trkpt lat="43.22337" lon="5.42394">
        <ele>208.74</ele>
        <time>2018-01-07T09:20:16Z</time>
      </trkpt>
      <trkpt lat="43.22332" lon="5.42392">
        <ele>208.48</ele>
        <time>2018-01-07T09:20:24Z</time>
      </trkpt>
      <trkpt lat="43.22329" lon="5.42391">
        <ele>208.16</ele>
        <time>2018-01-07T09:20:27Z</time>
      </trkpt>
      <trkpt lat="43.22328" lon="5.42391">
        <ele>208.01</ele>
        <time>2018-01-07T09:20:28Z</time>
      </trkpt>
      <trkpt lat="43.22326" lon="5.4239">
        <ele>207.49</ele>
        <time>2018-01-07T09:20:31Z</time>
      </trkpt>
      <trkpt lat="43.22325" lon="5.4239">
        <ele>207.3</ele>
        <time>2018-01-07T09:20:32Z</time>
      </trkpt>
      <trkpt lat="43.22324" lon="5.4239">
        <ele>207.09</ele>
        <time>2018-01-07T09:20:33Z</time>
      </trkpt>
      <trkpt lat="43.22305" lon="5.42378">
        <ele>204.22</ele>
        <time>2018-01-07T09:20:54Z</time>
      </trkpt>
      <trkpt lat="43.22297" lon="5.42357">
        <ele>202.72</ele>
        <time>2018-01-07T09:21:13Z</time>
      </trkpt>
      <trkpt lat="43.2229" lon="5.42338">
        <ele>201.86</ele>
        <time>2018-01-07T09:21:30Z</time>
      </trkpt>
      <trkpt lat="43.22287" lon="5.42332">
        <ele>200.96</ele>
        <time>2018-01-07T09:21:35Z</time>
      </trkpt>
      <trkpt lat="43.22277" lon="5.42315">
        <ele>199.88</ele>
        <time>2018-01-07T09:21:51Z</time>
      </trkpt>
      <trkpt lat="43.22261" lon="5.42295">
        <ele>196.85</ele>
        <time>2018-01-07T09:22:11Z</time>
      </trkpt>
      <trkpt lat="43.2226" lon="5.42294">
        <ele>196.72</ele>
        <time>2018-01-07T09:22:12Z</time>
      </trkpt>
      <trkpt lat="43.22247" lon="5.42281">
        <ele>196.76</ele>
        <time>2018-01-07T09:22:28Z</time>
      </trkpt>
      <trkpt lat="43.22244" lon="5.42261">
        <ele>196.95</ele>
        <time>2018-01-07T09:22:45Z</time>
      </trkpt>
      <trkpt lat="43.22239" lon="5.42243">
        <ele>198.93</ele>
        <time>2018-01-07T09:23:03Z</time>
      </trkpt>
      <trkpt lat="43.22234" lon="5.42226">
        <ele>200.91</ele>
        <time>2018-01-07T09:23:18Z</time>
      </trkpt>
      <trkpt lat="43.22233" lon="5.42208">
        <ele>201.86</ele>
        <time>2018-01-07T09:23:35Z</time>
      </trkpt>
      <trkpt lat="43.22229" lon="5.42191">
        <ele>202.28</ele>
        <time>2018-01-07T09:23:51Z</time>
      </trkpt>
      <trkpt lat="43.22224" lon="5.42177">
        <ele>203.38</ele>
        <time>2018-01-07T09:24:03Z</time>
      </trkpt>
      <trkpt lat="43.22223" lon="5.42175">
        <ele>203.43</ele>
        <time>2018-01-07T09:24:05Z</time>
      </trkpt>
      <trkpt lat="43.22214" lon="5.4216">
        <ele>205.48</ele>
        <time>2018-01-07T09:24:19Z</time>
      </trkpt>
      <trkpt lat="43.22204" lon="5.42146">
        <ele>206.62</ele>
        <time>2018-01-07T09:24:34Z</time>
      </trkpt>
      <trkpt lat="43.22199" lon="5.42135">
        <ele>206.4</ele>
        <time>2018-01-07T09:24:45Z</time>
      </trkpt>
      <trkpt lat="43.22196" lon="5.42112">
        <ele>206.47</ele>
        <time>2018-01-07T09:25:05Z</time>
      </trkpt>
      <trkpt lat="43.222" lon="5.42093">
        <ele>218.28</ele>
        <time>2018-01-07T09:25:26Z</time>
      </trkpt>
      <trkpt lat="43.22201" lon="5.42091">
        <ele>218.28</ele>
        <time>2018-01-07T09:25:29Z</time>
      </trkpt>
      <trkpt lat="43.22202" lon="5.42087">
        <ele>214.46</ele>
        <time>2018-01-07T09:25:33Z</time>
      </trkpt>
      <trkpt lat="43.22202" lon="5.42084">
        <ele>211.18</ele>
        <time>2018-01-07T09:25:36Z</time>
      </trkpt>
      <trkpt lat="43.22204" lon="5.42075">
        <ele>208.14</ele>
        <time>2018-01-07T09:25:46Z</time>
      </trkpt>
      <trkpt lat="43.22201" lon="5.42058">
        <ele>206.85</ele>
        <time>2018-01-07T09:26:04Z</time>
      </trkpt>
      <trkpt lat="43.22193" lon="5.42049">
        <ele>209.88</ele>
        <time>2018-01-07T09:26:19Z</time>
      </trkpt>
      <trkpt lat="43.22182" lon="5.42053">
        <ele>210.98</ele>
        <time>2018-01-07T09:26:35Z</time>
      </trkpt>
      <trkpt lat="43.22172" lon="5.42057">
        <ele>212.08</ele>
        <time>2018-01-07T09:26:50Z</time>
      </trkpt>
      <trkpt lat="43.22163" lon="5.4206">
        <ele>213.15</ele>
        <time>2018-01-07T09:27:01Z</time>
      </trkpt>
      <trkpt lat="43.22153" lon="5.4208">
        <ele>213.41</ele>
        <time>2018-01-07T09:27:19Z</time>
      </trkpt>
      <trkpt lat="43.2215" lon="5.42097">
        <ele>213.01</ele>
        <time>2018-01-07T09:27:33Z</time>
      </trkpt>
      <trkpt lat="43.22147" lon="5.4212">
        <ele>214.52</ele>
        <time>2018-01-07T09:27:53Z</time>
      </trkpt>
      <trkpt lat="43.22136" lon="5.42141">
        <ele>216.23</ele>
        <time>2018-01-07T09:28:09Z</time>
      </trkpt>
      <trkpt lat="43.22119" lon="5.42162">
        <ele>215.11</ele>
        <time>2018-01-07T09:28:27Z</time>
      </trkpt>
      <trkpt lat="43.22106" lon="5.42175">
        <ele>216.13</ele>
        <time>2018-01-07T09:28:41Z</time>
      </trkpt>
      <trkpt lat="43.22104" lon="5.42176">
        <ele>216.06</ele>
        <time>2018-01-07T09:28:43Z</time>
      </trkpt>
      <trkpt lat="43.22089" lon="5.42186">
        <ele>215.66</ele>
        <time>2018-01-07T09:28:59Z</time>
      </trkpt>
      <trkpt lat="43.22075" lon="5.42193">
        <ele>216.08</ele>
        <time>2018-01-07T09:29:14Z</time>
      </trkpt>
      <trkpt lat="43.22059" lon="5.42205">
        <ele>215.78</ele>
        <time>2018-01-07T09:29:30Z</time>
      </trkpt>
      <trkpt lat="43.22042" lon="5.42214">
        <ele>216.23</ele>
        <time>2018-01-07T09:29:46Z</time>
      </trkpt>
      <trkpt lat="43.22032" lon="5.42218">
        <ele>216.74</ele>
        <time>2018-01-07T09:29:56Z</time>
      </trkpt>
      <trkpt lat="43.22028" lon="5.42217">
        <ele>216.72</ele>
        <time>2018-01-07T09:29:59Z</time>
      </trkpt>
      <trkpt lat="43.22027" lon="5.42218">
        <ele>216.7</ele>
        <time>2018-01-07T09:30:00Z</time>
      </trkpt>
      <trkpt lat="43.22009" lon="5.42227">
        <ele>217.61</ele>
        <time>2018-01-07T09:30:18Z</time>
      </trkpt>
      <trkpt lat="43.22001" lon="5.42232">
        <ele>217.46</ele>
        <time>2018-01-07T09:30:27Z</time>
      </trkpt>
      <trkpt lat="43.21986" lon="5.42242">
        <ele>215.42</ele>
        <time>2018-01-07T09:30:42Z</time>
      </trkpt>
      <trkpt lat="43.2198" lon="5.42245">
        <ele>214.87</ele>
        <time>2018-01-07T09:30:48Z</time>
      </trkpt>
      <trkpt lat="43.21976" lon="5.42247">
        <ele>214.31</ele>
        <time>2018-01-07T09:30:51Z</time>
      </trkpt>
      <trkpt lat="43.21975" lon="5.42248">
        <ele>214.18</ele>
        <time>2018-01-07T09:30:52Z</time>
      </trkpt>
      <trkpt lat="43.21974" lon="5.42248">
        <ele>214.12</ele>
        <time>2018-01-07T09:30:53Z</time>
      </trkpt>
      <trkpt lat="43.21972" lon="5.42249">
        <ele>214.11</ele>
        <time>2018-01-07T09:30:54Z</time>
      </trkpt>
      <trkpt lat="43.21971" lon="5.42249">
        <ele>214.11</ele>
        <time>2018-01-07T09:30:55Z</time>
      </trkpt>
      <trkpt lat="43.2197" lon="5.4225">
        <ele>214.11</ele>
        <time>2018-01-07T09:30:56Z</time>
      </trkpt>
      <trkpt lat="43.21948" lon="5.42261">
        <ele>213.71</ele>
        <time>2018-01-07T09:31:14Z</time>
      </trkpt>
      <trkpt lat="43.21939" lon="5.42279">
        <ele>214.19</ele>
        <time>2018-01-07T09:31:28Z</time>
      </trkpt>
      <trkpt lat="43.21931" lon="5.42296">
        <ele>211.24</ele>
        <time>2018-01-07T09:31:44Z</time>
      </trkpt>
      <trkpt lat="43.21923" lon="5.42303">
        <ele>210.43</ele>
        <time>2018-01-07T09:31:57Z</time>
      </trkpt>
      <trkpt lat="43.2191" lon="5.42321">
        <ele>207.37</ele>
        <time>2018-01-07T09:32:14Z</time>
      </trkpt>
      <trkpt lat="43.21899" lon="5.42332">
        <ele>207.15</ele>
        <time>2018-01-07T09:32:31Z</time>
      </trkpt>
      <trkpt lat="43.21896" lon="5.42333">
        <ele>208.02</ele>
        <time>2018-01-07T09:32:48Z</time>
      </trkpt>
      <trkpt lat="43.21896" lon="5.42334">
        <ele>209.82</ele>
        <time>2018-01-07T09:33:16Z</time>
      </trkpt>
      <trkpt lat="43.21896" lon="5.42334">
        <ele>208.76</ele>
        <time>2018-01-07T09:33:54Z</time>
      </trkpt>
      <trkpt lat="43.21896" lon="5.42334">
        <ele>208.3</ele>
        <time>2018-01-07T09:34:13Z</time>
      </trkpt>
      <trkpt lat="43.21891" lon="5.4234">
        <ele>207.58</ele>
        <time>2018-01-07T09:34:32Z</time>
      </trkpt>
      <trkpt lat="43.21889" lon="5.42348">
        <ele>210.21</ele>
        <time>2018-01-07T09:34:48Z</time>
      </trkpt>
      <trkpt lat="43.21885" lon="5.42355">
        <ele>213.21</ele>
        <time>2018-01-07T09:35:05Z</time>
      </trkpt>
      <trkpt lat="43.21882" lon="5.42364">
        <ele>214.28</ele>
        <time>2018-01-07T09:35:18Z</time>
      </trkpt>
      <trkpt lat="43.21879" lon="5.42374">
        <ele>216.89</ele>
        <time>2018-01-07T09:35:33Z</time>
      </trkpt>
      <trkpt lat="43.21874" lon="5.42386">
        <ele>218.53</ele>
        <time>2018-01-07T09:35:49Z</time>
      </trkpt>
      <trkpt lat="43.21869" lon="5.42395">
        <ele>220.49</ele>
        <time>2018-01-07T09:36:08Z</time>
      </trkpt>
      <trkpt lat="43.21864" lon="5.42406">
        <ele>221.32</ele>
        <time>2018-01-07T09:36:29Z</time>
      </trkpt>
      <trkpt lat="43.21861" lon="5.4242">
        <ele>224.5</ele>
        <time>2018-01-07T09:36:48Z</time>
      </trkpt>
      <trkpt lat="43.21856" lon="5.42434">
        <ele>226.78</ele>
        <time>2018-01-07T09:37:07Z</time>
      </trkpt>
      <trkpt lat="43.21852" lon="5.42456">
        <ele>228.21</ele>
        <time>2018-01-07T09:37:31Z</time>
      </trkpt>
      <trkpt lat="43.21844" lon="5.42473">
        <ele>230.18</ele>
        <time>2018-01-07T09:37:50Z</time>
      </trkpt>
      <trkpt lat="43.21829" lon="5.42484">
        <ele>233.25</ele>
        <time>2018-01-07T09:38:05Z</time>
      </trkpt>
      <trkpt lat="43.21812" lon="5.42486">
        <ele>235.34</ele>
        <time>2018-01-07T09:38:20Z</time>
      </trkpt>
      <trkpt lat="43.218" lon="5.4249">
        <ele>233.64</ele>
        <time>2018-01-07T09:38:31Z</time>
      </trkpt>
      <trkpt lat="43.21798" lon="5.4249">
        <ele>233.24</ele>
        <time>2018-01-07T09:38:32Z</time>
      </trkpt>
      <trkpt lat="43.21797" lon="5.42491">
        <ele>232.92</ele>
        <time>2018-01-07T09:38:33Z</time>
      </trkpt>
      <trkpt lat="43.21796" lon="5.42491">
        <ele>232.63</ele>
        <time>2018-01-07T09:38:34Z</time>
      </trkpt>
      <trkpt lat="43.21795" lon="5.42491">
        <ele>232.35</ele>
        <time>2018-01-07T09:38:35Z</time>
      </trkpt>
      <trkpt lat="43.21779" lon="5.42496">
        <ele>231.19</ele>
        <time>2018-01-07T09:38:51Z</time>
      </trkpt>
      <trkpt lat="43.21766" lon="5.42499">
        <ele>231.69</ele>
        <time>2018-01-07T09:39:05Z</time>
      </trkpt>
      <trkpt lat="43.21755" lon="5.42504">
        <ele>231.98</ele>
        <time>2018-01-07T09:39:23Z</time>
      </trkpt>
      <trkpt lat="43.21743" lon="5.42513">
        <ele>232.78</ele>
        <time>2018-01-07T09:39:42Z</time>
      </trkpt>
      <trkpt lat="43.21736" lon="5.42519">
        <ele>235.82</ele>
        <time>2018-01-07T09:39:55Z</time>
      </trkpt>
      <trkpt lat="43.21727" lon="5.42525">
        <ele>233.95</ele>
        <time>2018-01-07T09:40:11Z</time>
      </trkpt>
      <trkpt lat="43.21715" lon="5.42529">
        <ele>234.52</ele>
        <time>2018-01-07T09:40:28Z</time>
      </trkpt>
      <trkpt lat="43.21705" lon="5.42525">
        <ele>232.69</ele>
        <time>2018-01-07T09:40:43Z</time>
      </trkpt>
      <trkpt lat="43.21704" lon="5.42514">
        <ele>231.38</ele>
        <time>2018-01-07T09:40:58Z</time>
      </trkpt>
      <trkpt lat="43.21706" lon="5.42501">
        <ele>230.82</ele>
        <time>2018-01-07T09:41:14Z</time>
      </trkpt>
      <trkpt lat="43.21709" lon="5.42489">
        <ele>229.44</ele>
        <time>2018-01-07T09:41:31Z</time>
      </trkpt>
      <trkpt lat="43.21709" lon="5.42473">
        <ele>226.66</ele>
        <time>2018-01-07T09:41:51Z</time>
      </trkpt>
      <trkpt lat="43.21709" lon="5.42459">
        <ele>224.54</ele>
        <time>2018-01-07T09:42:09Z</time>
      </trkpt>
      <trkpt lat="43.21708" lon="5.42447">
        <ele>221.41</ele>
        <time>2018-01-07T09:42:22Z</time>
      </trkpt>
      <trkpt lat="43.21708" lon="5.42446">
        <ele>218.35</ele>
        <time>2018-01-07T09:42:44Z</time>
      </trkpt>
      <trkpt lat="43.21708" lon="5.42446">
        <ele>221.71</ele>
        <time>2018-01-07T09:42:52Z</time>
      </trkpt>
      <trkpt lat="43.2171" lon="5.42435">
        <ele>224.37</ele>
        <time>2018-01-07T09:43:18Z</time>
      </trkpt>
      <trkpt lat="43.21708" lon="5.42429">
        <ele>222.4</ele>
        <time>2018-01-07T09:43:24Z</time>
      </trkpt>
      <trkpt lat="43.21707" lon="5.42425">
        <ele>221.23</ele>
        <time>2018-01-07T09:43:27Z</time>
      </trkpt>
      <trkpt lat="43.21707" lon="5.42423">
        <ele>220.96</ele>
        <time>2018-01-07T09:43:28Z</time>
      </trkpt>
      <trkpt lat="43.21709" lon="5.42407">
        <ele>218.4</ele>
        <time>2018-01-07T09:43:41Z</time>
      </trkpt>
      <trkpt lat="43.21707" lon="5.42398">
        <ele>216.75</ele>
        <time>2018-01-07T09:43:48Z</time>
      </trkpt>
      <trkpt lat="43.21706" lon="5.42389">
        <ele>215.69</ele>
        <time>2018-01-07T09:43:54Z</time>
      </trkpt>
      <trkpt lat="43.21706" lon="5.42371">
        <ele>215.45</ele>
        <time>2018-01-07T09:44:08Z</time>
      </trkpt>
      <trkpt lat="43.21714" lon="5.42362">
        <ele>212.2</ele>
        <time>2018-01-07T09:44:22Z</time>
      </trkpt>
      <trkpt lat="43.21715" lon="5.42359">
        <ele>210.58</ele>
        <time>2018-01-07T09:44:25Z</time>
      </trkpt>
      <trkpt lat="43.21717" lon="5.42349">
        <ele>209.67</ele>
        <time>2018-01-07T09:44:34Z</time>
      </trkpt>
      <trkpt lat="43.21717" lon="5.42347">
        <ele>209.66</ele>
        <time>2018-01-07T09:44:35Z</time>
      </trkpt>
      <trkpt lat="43.21713" lon="5.42316">
        <ele>208.98</ele>
        <time>2018-01-07T09:44:54Z</time>
      </trkpt>
      <trkpt lat="43.21713" lon="5.42298">
        <ele>207.02</ele>
        <time>2018-01-07T09:45:07Z</time>
      </trkpt>
      <trkpt lat="43.2172" lon="5.42281">
        <ele>207.19</ele>
        <time>2018-01-07T09:45:22Z</time>
      </trkpt>
      <trkpt lat="43.21722" lon="5.42262">
        <ele>207.29</ele>
        <time>2018-01-07T09:45:37Z</time>
      </trkpt>
      <trkpt lat="43.21725" lon="5.42245">
        <ele>206.6</ele>
        <time>2018-01-07T09:45:53Z</time>
      </trkpt>
      <trkpt lat="43.21725" lon="5.4224">
        <ele>206.41</ele>
        <time>2018-01-07T09:45:57Z</time>
      </trkpt>
      <trkpt lat="43.21724" lon="5.42238">
        <ele>206.29</ele>
        <time>2018-01-07T09:45:58Z</time>
      </trkpt>
      <trkpt lat="43.21724" lon="5.42237">
        <ele>206.17</ele>
        <time>2018-01-07T09:45:59Z</time>
      </trkpt>
      <trkpt lat="43.21724" lon="5.42235">
        <ele>206.04</ele>
        <time>2018-01-07T09:46:00Z</time>
      </trkpt>
      <trkpt lat="43.21724" lon="5.42223">
        <ele>203.25</ele>
        <time>2018-01-07T09:46:09Z</time>
      </trkpt>
      <trkpt lat="43.21726" lon="5.42196">
        <ele>200.84</ele>
        <time>2018-01-07T09:46:29Z</time>
      </trkpt>
      <trkpt lat="43.21727" lon="5.42181">
        <ele>199.71</ele>
        <time>2018-01-07T09:46:43Z</time>
      </trkpt>
      <trkpt lat="43.21728" lon="5.42176">
        <ele>199.84</ele>
        <time>2018-01-07T09:46:47Z</time>
      </trkpt>
      <trkpt lat="43.21728" lon="5.42173">
        <ele>199.71</ele>
        <time>2018-01-07T09:46:50Z</time>
      </trkpt>
      <trkpt lat="43.21728" lon="5.42171">
        <ele>199.76</ele>
        <time>2018-01-07T09:46:51Z</time>
      </trkpt>
      <trkpt lat="43.21731" lon="5.42158">
        <ele>201.87</ele>
        <time>2018-01-07T09:47:06Z</time>
      </trkpt>
      <trkpt lat="43.2173" lon="5.4214">
        <ele>199.81</ele>
        <time>2018-01-07T09:47:24Z</time>
      </trkpt>
      <trkpt lat="43.21731" lon="5.42137">
        <ele>203.07</ele>
        <time>2018-01-07T09:47:33Z</time>
      </trkpt>
      <trkpt lat="43.21732" lon="5.42137">
        <ele>206.28</ele>
        <time>2018-01-07T09:47:38Z</time>
      </trkpt>
      <trkpt lat="43.21731" lon="5.42137">
        <ele>206.55</ele>
        <time>2018-01-07T09:47:39Z</time>
      </trkpt>
      <trkpt lat="43.21731" lon="5.42137">
        <ele>202.98</ele>
        <time>2018-01-07T09:47:49Z</time>
      </trkpt>
      <trkpt lat="43.21727" lon="5.42123">
        <ele>202.75</ele>
        <time>2018-01-07T09:48:04Z</time>
      </trkpt>
      <trkpt lat="43.2172" lon="5.42114">
        <ele>200.6</ele>
        <time>2018-01-07T09:48:20Z</time>
      </trkpt>
      <trkpt lat="43.21716" lon="5.42104">
        <ele>198.55</ele>
        <time>2018-01-07T09:48:34Z</time>
      </trkpt>
      <trkpt lat="43.21714" lon="5.42091">
        <ele>196.89</ele>
        <time>2018-01-07T09:48:49Z</time>
      </trkpt>
      <trkpt lat="43.21713" lon="5.4208">
        <ele>194.45</ele>
        <time>2018-01-07T09:49:10Z</time>
      </trkpt>
      <trkpt lat="43.21708" lon="5.42074">
        <ele>192.82</ele>
        <time>2018-01-07T09:49:27Z</time>
      </trkpt>
      <trkpt lat="43.21706" lon="5.42071">
        <ele>190.88</ele>
        <time>2018-01-07T09:49:42Z</time>
      </trkpt>
      <trkpt lat="43.21705" lon="5.42064">
        <ele>189.74</ele>
        <time>2018-01-07T09:50:01Z</time>
      </trkpt>
      <trkpt lat="43.217" lon="5.4206">
        <ele>186.72</ele>
        <time>2018-01-07T09:50:16Z</time>
      </trkpt>
      <trkpt lat="43.21687" lon="5.42061">
        <ele>184.76</ele>
        <time>2018-01-07T09:50:33Z</time>
      </trkpt>
      <trkpt lat="43.21679" lon="5.42056">
        <ele>181.73</ele>
        <time>2018-01-07T09:50:48Z</time>
      </trkpt>
      <trkpt lat="43.21677" lon="5.42049">
        <ele>180.29</ele>
        <time>2018-01-07T09:51:06Z</time>
      </trkpt>
      <trkpt lat="43.21668" lon="5.42042">
        <ele>178.84</ele>
        <time>2018-01-07T09:51:24Z</time>
      </trkpt>
      <trkpt lat="43.21661" lon="5.42039">
        <ele>180.45</ele>
        <time>2018-01-07T09:51:40Z</time>
      </trkpt>
      <trkpt lat="43.21659" lon="5.42033">
        <ele>179.28</ele>
        <time>2018-01-07T09:51:56Z</time>
      </trkpt>
      <trkpt lat="43.21651" lon="5.42016">
        <ele>182.4</ele>
        <time>2018-01-07T09:52:18Z</time>
      </trkpt>
      <trkpt lat="43.21643" lon="5.42005">
        <ele>184.26</ele>
        <time>2018-01-07T09:52:37Z</time>
      </trkpt>
      <trkpt lat="43.21631" lon="5.41996">
        <ele>185.5</ele>
        <time>2018-01-07T09:52:55Z</time>
      </trkpt>
      <trkpt lat="43.2163" lon="5.41995">
        <ele>185.53</ele>
        <time>2018-01-07T09:52:56Z</time>
      </trkpt>
      <trkpt lat="43.21626" lon="5.4199">
        <ele>186.32</ele>
        <time>2018-01-07T09:53:01Z</time>
      </trkpt>
      <trkpt lat="43.21615" lon="5.41975">
        <ele>187.06</ele>
        <time>2018-01-07T09:53:16Z</time>
      </trkpt>
      <trkpt lat="43.21604" lon="5.41955">
        <ele>186.99</ele>
        <time>2018-01-07T09:53:33Z</time>
      </trkpt>
      <trkpt lat="43.2159" lon="5.41938">
        <ele>186.94</ele>
        <time>2018-01-07T09:53:49Z</time>
      </trkpt>
      <trkpt lat="43.21584" lon="5.4193">
        <ele>186.39</ele>
        <time>2018-01-07T09:53:58Z</time>
      </trkpt>
      <trkpt lat="43.21581" lon="5.41925">
        <ele>186.15</ele>
        <time>2018-01-07T09:54:11Z</time>
      </trkpt>
      <trkpt lat="43.21576" lon="5.41928">
        <ele>185.62</ele>
        <time>2018-01-07T09:54:25Z</time>
      </trkpt>
      <trkpt lat="43.21576" lon="5.41927">
        <ele>182.58</ele>
        <time>2018-01-07T09:54:39Z</time>
      </trkpt>
      <trkpt lat="43.21575" lon="5.41926">
        <ele>185.37</ele>
        <time>2018-01-07T09:55:38Z</time>
      </trkpt>
      <trkpt lat="43.21575" lon="5.41927">
        <ele>185.81</ele>
        <time>2018-01-07T09:56:24Z</time>
      </trkpt>
      <trkpt lat="43.21574" lon="5.41927">
        <ele>183.07</ele>
        <time>2018-01-07T09:57:03Z</time>
      </trkpt>
      <trkpt lat="43.21575" lon="5.41922">
        <ele>186.01</ele>
        <time>2018-01-07T09:57:18Z</time>
      </trkpt>
      <trkpt lat="43.21575" lon="5.41921">
        <ele>185.39</ele>
        <time>2018-01-07T09:57:51Z</time>
      </trkpt>
      <trkpt lat="43.21577" lon="5.41921">
        <ele>184.17</ele>
        <time>2018-01-07T09:58:23Z</time>
      </trkpt>
      <trkpt lat="43.21575" lon="5.41915">
        <ele>185.65</ele>
        <time>2018-01-07T09:58:44Z</time>
      </trkpt>
      <trkpt lat="43.21572" lon="5.41911">
        <ele>187.36</ele>
        <time>2018-01-07T09:59:19Z</time>
      </trkpt>
      <trkpt lat="43.2157" lon="5.41905">
        <ele>187.25</ele>
        <time>2018-01-07T09:59:37Z</time>
      </trkpt>
      <trkpt lat="43.21569" lon="5.41898">
        <ele>185.63</ele>
        <time>2018-01-07T09:59:58Z</time>
      </trkpt>
      <trkpt lat="43.21569" lon="5.41898">
        <ele>188.71</ele>
        <time>2018-01-07T10:00:09Z</time>
      </trkpt>
      <trkpt lat="43.21569" lon="5.41899">
        <ele>185.58</ele>
        <time>2018-01-07T10:00:22Z</time>
      </trkpt>
      <trkpt lat="43.21567" lon="5.41895">
        <ele>188.61</ele>
        <time>2018-01-07T10:00:35Z</time>
      </trkpt>
      <trkpt lat="43.21564" lon="5.41892">
        <ele>191.99</ele>
        <time>2018-01-07T10:00:45Z</time>
      </trkpt>
      <trkpt lat="43.21563" lon="5.41891">
        <ele>193.59</ele>
        <time>2018-01-07T10:00:48Z</time>
      </trkpt>
      <trkpt lat="43.21552" lon="5.41887">
        <ele>196.87</ele>
        <time>2018-01-07T10:01:07Z</time>
      </trkpt>
      <trkpt lat="43.21543" lon="5.41872">
        <ele>199.5</ele>
        <time>2018-01-07T10:01:27Z</time>
      </trkpt>
      <trkpt lat="43.2154" lon="5.41869">
        <ele>202.54</ele>
        <time>2018-01-07T10:01:32Z</time>
      </trkpt>
      <trkpt lat="43.21534" lon="5.41861">
        <ele>202.99</ele>
        <time>2018-01-07T10:01:42Z</time>
      </trkpt>
      <trkpt lat="43.21533" lon="5.41858">
        <ele>204.87</ele>
        <time>2018-01-07T10:01:45Z</time>
      </trkpt>
      <trkpt lat="43.21531" lon="5.41851">
        <ele>208.04</ele>
        <time>2018-01-07T10:01:50Z</time>
      </trkpt>
      <trkpt lat="43.21526" lon="5.41841">
        <ele>207</ele>
        <time>2018-01-07T10:01:59Z</time>
      </trkpt>
      <trkpt lat="43.21525" lon="5.41839">
        <ele>205.82</ele>
        <time>2018-01-07T10:02:01Z</time>
      </trkpt>
      <trkpt lat="43.21519" lon="5.41832">
        <ele>204.9</ele>
        <time>2018-01-07T10:02:16Z</time>
      </trkpt>
      <trkpt lat="43.21518" lon="5.41831">
        <ele>201.55</ele>
        <time>2018-01-07T10:02:26Z</time>
      </trkpt>
      <trkpt lat="43.21521" lon="5.41828">
        <ele>203.39</ele>
        <time>2018-01-07T10:02:42Z</time>
      </trkpt>
      <trkpt lat="43.21525" lon="5.4182">
        <ele>202.8</ele>
        <time>2018-01-07T10:02:51Z</time>
      </trkpt>
      <trkpt lat="43.21541" lon="5.41808">
        <ele>199.99</ele>
        <time>2018-01-07T10:03:07Z</time>
      </trkpt>
      <trkpt lat="43.21547" lon="5.41805">
        <ele>199.69</ele>
        <time>2018-01-07T10:03:13Z</time>
      </trkpt>
      <trkpt lat="43.21559" lon="5.41804">
        <ele>197.51</ele>
        <time>2018-01-07T10:03:26Z</time>
      </trkpt>
      <trkpt lat="43.21575" lon="5.41801">
        <ele>197.95</ele>
        <time>2018-01-07T10:03:43Z</time>
      </trkpt>
      <trkpt lat="43.21588" lon="5.41794">
        <ele>198.82</ele>
        <time>2018-01-07T10:03:57Z</time>
      </trkpt>
      <trkpt lat="43.21591" lon="5.41793">
        <ele>199.04</ele>
        <time>2018-01-07T10:04:00Z</time>
      </trkpt>
      <trkpt lat="43.21592" lon="5.41793">
        <ele>199.11</ele>
        <time>2018-01-07T10:04:01Z</time>
      </trkpt>
      <trkpt lat="43.21607" lon="5.4179">
        <ele>199.85</ele>
        <time>2018-01-07T10:04:16Z</time>
      </trkpt>
      <trkpt lat="43.21621" lon="5.41789">
        <ele>201.8</ele>
        <time>2018-01-07T10:04:31Z</time>
      </trkpt>
      <trkpt lat="43.21623" lon="5.41788">
        <ele>201.72</ele>
        <time>2018-01-07T10:04:33Z</time>
      </trkpt>
      <trkpt lat="43.21624" lon="5.41788">
        <ele>201.42</ele>
        <time>2018-01-07T10:04:34Z</time>
      </trkpt>
      <trkpt lat="43.21639" lon="5.4178">
        <ele>201.78</ele>
        <time>2018-01-07T10:04:49Z</time>
      </trkpt>
      <trkpt lat="43.21642" lon="5.41778">
        <ele>202.2</ele>
        <time>2018-01-07T10:04:52Z</time>
      </trkpt>
      <trkpt lat="43.21643" lon="5.41777">
        <ele>202.45</ele>
        <time>2018-01-07T10:04:53Z</time>
      </trkpt>
      <trkpt lat="43.21656" lon="5.41768">
        <ele>203.9</ele>
        <time>2018-01-07T10:05:07Z</time>
      </trkpt>
      <trkpt lat="43.21669" lon="5.41763">
        <ele>205.32</ele>
        <time>2018-01-07T10:05:21Z</time>
      </trkpt>
      <trkpt lat="43.21675" lon="5.41758">
        <ele>204.93</ele>
        <time>2018-01-07T10:05:27Z</time>
      </trkpt>
      <trkpt lat="43.21683" lon="5.41743">
        <ele>203.81</ele>
        <time>2018-01-07T10:05:41Z</time>
      </trkpt>
      <trkpt lat="43.21686" lon="5.41735">
        <ele>206.91</ele>
        <time>2018-01-07T10:05:47Z</time>
      </trkpt>
      <trkpt lat="43.21703" lon="5.41723">
        <ele>205.85</ele>
        <time>2018-01-07T10:06:04Z</time>
      </trkpt>
      <trkpt lat="43.21716" lon="5.41718">
        <ele>202.81</ele>
        <time>2018-01-07T10:06:17Z</time>
      </trkpt>
      <trkpt lat="43.21722" lon="5.41706">
        <ele>200.4</ele>
        <time>2018-01-07T10:06:32Z</time>
      </trkpt>
      <trkpt lat="43.21724" lon="5.41704">
        <ele>199.53</ele>
        <time>2018-01-07T10:06:35Z</time>
      </trkpt>
      <trkpt lat="43.21731" lon="5.41698">
        <ele>198.66</ele>
        <time>2018-01-07T10:06:52Z</time>
      </trkpt>
      <trkpt lat="43.21735" lon="5.41693">
        <ele>195.12</ele>
        <time>2018-01-07T10:07:04Z</time>
      </trkpt>
      <trkpt lat="43.21742" lon="5.41687">
        <ele>192.88</ele>
        <time>2018-01-07T10:07:19Z</time>
      </trkpt>
      <trkpt lat="43.21747" lon="5.41679">
        <ele>192.4</ele>
        <time>2018-01-07T10:07:36Z</time>
      </trkpt>
      <trkpt lat="43.21749" lon="5.41673">
        <ele>189.26</ele>
        <time>2018-01-07T10:07:48Z</time>
      </trkpt>
      <trkpt lat="43.21751" lon="5.41666">
        <ele>186.94</ele>
        <time>2018-01-07T10:08:03Z</time>
      </trkpt>
      <trkpt lat="43.21752" lon="5.41658">
        <ele>185.17</ele>
        <time>2018-01-07T10:08:19Z</time>
      </trkpt>
      <trkpt lat="43.21752" lon="5.41656">
        <ele>183.26</ele>
        <time>2018-01-07T10:08:23Z</time>
      </trkpt>
      <trkpt lat="43.21755" lon="5.41652">
        <ele>181.36</ele>
        <time>2018-01-07T10:08:41Z</time>
      </trkpt>
      <trkpt lat="43.21758" lon="5.41638">
        <ele>179.23</ele>
        <time>2018-01-07T10:08:58Z</time>
      </trkpt>
      <trkpt lat="43.2176" lon="5.4163">
        <ele>176.88</ele>
        <time>2018-01-07T10:09:13Z</time>
      </trkpt>
      <trkpt lat="43.21768" lon="5.41624">
        <ele>173.7</ele>
        <time>2018-01-07T10:09:27Z</time>
      </trkpt>
      <trkpt lat="43.21775" lon="5.41622">
        <ele>172.23</ele>
        <time>2018-01-07T10:09:43Z</time>
      </trkpt>
      <trkpt lat="43.21782" lon="5.41614">
        <ele>169.77</ele>
        <time>2018-01-07T10:09:55Z</time>
      </trkpt>
      <trkpt lat="43.21788" lon="5.41611">
        <ele>166.5</ele>
        <time>2018-01-07T10:10:03Z</time>
      </trkpt>
      <trkpt lat="43.21789" lon="5.4161">
        <ele>166.2</ele>
        <time>2018-01-07T10:10:04Z</time>
      </trkpt>
      <trkpt lat="43.21793" lon="5.41606">
        <ele>164.5</ele>
        <time>2018-01-07T10:10:09Z</time>
      </trkpt>
      <trkpt lat="43.21793" lon="5.41597">
        <ele>161.32</ele>
        <time>2018-01-07T10:10:17Z</time>
      </trkpt>
      <trkpt lat="43.21793" lon="5.41593">
        <ele>164.15</ele>
        <time>2018-01-07T10:10:39Z</time>
      </trkpt>
      <trkpt lat="43.21794" lon="5.41593">
        <ele>164.21</ele>
        <time>2018-01-07T10:11:07Z</time>
      </trkpt>
      <trkpt lat="43.21794" lon="5.41594">
        <ele>165.3</ele>
        <time>2018-01-07T10:11:31Z</time>
      </trkpt>
      <trkpt lat="43.21795" lon="5.41591">
        <ele>164.32</ele>
        <time>2018-01-07T10:11:56Z</time>
      </trkpt>
      <trkpt lat="43.21793" lon="5.41591">
        <ele>165.65</ele>
        <time>2018-01-07T10:12:22Z</time>
      </trkpt>
      <trkpt lat="43.21791" lon="5.41578">
        <ele>165</ele>
        <time>2018-01-07T10:12:35Z</time>
      </trkpt>
      <trkpt lat="43.2179" lon="5.41579">
        <ele>164.09</ele>
        <time>2018-01-07T10:12:48Z</time>
      </trkpt>
      <trkpt lat="43.21798" lon="5.4159">
        <ele>164.26</ele>
        <time>2018-01-07T10:13:01Z</time>
      </trkpt>
      <trkpt lat="43.21797" lon="5.41593">
        <ele>165.58</ele>
        <time>2018-01-07T10:13:23Z</time>
      </trkpt>
      <trkpt lat="43.21796" lon="5.416">
        <ele>165.62</ele>
        <time>2018-01-07T10:13:41Z</time>
      </trkpt>
      <trkpt lat="43.21789" lon="5.41613">
        <ele>168.12</ele>
        <time>2018-01-07T10:14:00Z</time>
      </trkpt>
      <trkpt lat="43.21781" lon="5.4162">
        <ele>167.91</ele>
        <time>2018-01-07T10:14:16Z</time>
      </trkpt>
      <trkpt lat="43.21777" lon="5.41626">
        <ele>171.1</ele>
        <time>2018-01-07T10:14:29Z</time>
      </trkpt>
      <trkpt lat="43.2177" lon="5.41625">
        <ele>172.34</ele>
        <time>2018-01-07T10:14:45Z</time>
      </trkpt>
      <trkpt lat="43.21763" lon="5.41628">
        <ele>174.99</ele>
        <time>2018-01-07T10:15:03Z</time>
      </trkpt>
      <trkpt lat="43.21762" lon="5.41636">
        <ele>177.4</ele>
        <time>2018-01-07T10:15:20Z</time>
      </trkpt>
      <trkpt lat="43.21758" lon="5.41641">
        <ele>178.26</ele>
        <time>2018-01-07T10:15:36Z</time>
      </trkpt>
      <trkpt lat="43.21755" lon="5.4165">
        <ele>179.26</ele>
        <time>2018-01-07T10:15:50Z</time>
      </trkpt>
      <trkpt lat="43.21752" lon="5.41655">
        <ele>179.83</ele>
        <time>2018-01-07T10:16:07Z</time>
      </trkpt>
      <trkpt lat="43.21752" lon="5.41662">
        <ele>181.35</ele>
        <time>2018-01-07T10:16:23Z</time>
      </trkpt>
      <trkpt lat="43.21752" lon="5.41666">
        <ele>184.77</ele>
        <time>2018-01-07T10:16:31Z</time>
      </trkpt>
      <trkpt lat="43.21751" lon="5.41671">
        <ele>187.82</ele>
        <time>2018-01-07T10:16:42Z</time>
      </trkpt>
      <trkpt lat="43.21751" lon="5.41678">
        <ele>187.92</ele>
        <time>2018-01-07T10:17:00Z</time>
      </trkpt>
      <trkpt lat="43.21747" lon="5.41682">
        <ele>189.6</ele>
        <time>2018-01-07T10:17:20Z</time>
      </trkpt>
      <trkpt lat="43.21745" lon="5.41686">
        <ele>192.64</ele>
        <time>2018-01-07T10:17:29Z</time>
      </trkpt>
      <trkpt lat="43.21739" lon="5.41695">
        <ele>195.59</ele>
        <time>2018-01-07T10:17:51Z</time>
      </trkpt>
      <trkpt lat="43.21734" lon="5.417">
        <ele>195.37</ele>
        <time>2018-01-07T10:18:13Z</time>
      </trkpt>
      <trkpt lat="43.21727" lon="5.41704">
        <ele>197.87</ele>
        <time>2018-01-07T10:18:27Z</time>
      </trkpt>
      <trkpt lat="43.21724" lon="5.41705">
        <ele>199.61</ele>
        <time>2018-01-07T10:18:31Z</time>
      </trkpt>
      <trkpt lat="43.21719" lon="5.41716">
        <ele>202.28</ele>
        <time>2018-01-07T10:18:47Z</time>
      </trkpt>
      <trkpt lat="43.2171" lon="5.41721">
        <ele>204.97</ele>
        <time>2018-01-07T10:19:02Z</time>
      </trkpt>
      <trkpt lat="43.21699" lon="5.41727">
        <ele>207.39</ele>
        <time>2018-01-07T10:19:15Z</time>
      </trkpt>
      <trkpt lat="43.21694" lon="5.41731">
        <ele>204.09</ele>
        <time>2018-01-07T10:19:21Z</time>
      </trkpt>
      <trkpt lat="43.21685" lon="5.41738">
        <ele>200.8</ele>
        <time>2018-01-07T10:19:32Z</time>
      </trkpt>
      <trkpt lat="43.21684" lon="5.41742">
        <ele>200.35</ele>
        <time>2018-01-07T10:19:36Z</time>
      </trkpt>
      <trkpt lat="43.21677" lon="5.41754">
        <ele>203.46</ele>
        <time>2018-01-07T10:19:47Z</time>
      </trkpt>
      <trkpt lat="43.21676" lon="5.41757">
        <ele>203.68</ele>
        <time>2018-01-07T10:19:49Z</time>
      </trkpt>
      <trkpt lat="43.21676" lon="5.41757">
        <ele>203.87</ele>
        <time>2018-01-07T10:19:50Z</time>
      </trkpt>
      <trkpt lat="43.21674" lon="5.41758">
        <ele>204.1</ele>
        <time>2018-01-07T10:19:51Z</time>
      </trkpt>
      <trkpt lat="43.21673" lon="5.41759">
        <ele>204.37</ele>
        <time>2018-01-07T10:19:52Z</time>
      </trkpt>
      <trkpt lat="43.21672" lon="5.4176">
        <ele>204.69</ele>
        <time>2018-01-07T10:19:53Z</time>
      </trkpt>
      <trkpt lat="43.21671" lon="5.41761">
        <ele>204.96</ele>
        <time>2018-01-07T10:19:54Z</time>
      </trkpt>
      <trkpt lat="43.21656" lon="5.41773">
        <ele>202.27</ele>
        <time>2018-01-07T10:20:10Z</time>
      </trkpt>
      <trkpt lat="43.21641" lon="5.4178">
        <ele>203.37</ele>
        <time>2018-01-07T10:20:24Z</time>
      </trkpt>
      <trkpt lat="43.21632" lon="5.41782">
        <ele>204.41</ele>
        <time>2018-01-07T10:20:32Z</time>
      </trkpt>
      <trkpt lat="43.21631" lon="5.41783">
        <ele>204.51</ele>
        <time>2018-01-07T10:20:33Z</time>
      </trkpt>
      <trkpt lat="43.21612" lon="5.41788">
        <ele>201.48</ele>
        <time>2018-01-07T10:20:51Z</time>
      </trkpt>
      <trkpt lat="43.21605" lon="5.41791">
        <ele>198.18</ele>
        <time>2018-01-07T10:20:59Z</time>
      </trkpt>
      <trkpt lat="43.21602" lon="5.41792">
        <ele>196.86</ele>
        <time>2018-01-07T10:21:02Z</time>
      </trkpt>
      <trkpt lat="43.21588" lon="5.41795">
        <ele>200</ele>
        <time>2018-01-07T10:21:14Z</time>
      </trkpt>
      <trkpt lat="43.21586" lon="5.41795">
        <ele>200.32</ele>
        <time>2018-01-07T10:21:16Z</time>
      </trkpt>
      <trkpt lat="43.21569" lon="5.41801">
        <ele>199.31</ele>
        <time>2018-01-07T10:21:33Z</time>
      </trkpt>
      <trkpt lat="43.21553" lon="5.41803">
        <ele>199.62</ele>
        <time>2018-01-07T10:21:50Z</time>
      </trkpt>
      <trkpt lat="43.2155" lon="5.41804">
        <ele>200.21</ele>
        <time>2018-01-07T10:21:53Z</time>
      </trkpt>
      <trkpt lat="43.21536" lon="5.41809">
        <ele>201.51</ele>
        <time>2018-01-07T10:22:07Z</time>
      </trkpt>
      <trkpt lat="43.21524" lon="5.41822">
        <ele>203.54</ele>
        <time>2018-01-07T10:22:23Z</time>
      </trkpt>
      <trkpt lat="43.21527" lon="5.41827">
        <ele>204.14</ele>
        <time>2018-01-07T10:22:29Z</time>
      </trkpt>
      <trkpt lat="43.21535" lon="5.41838">
        <ele>201.98</ele>
        <time>2018-01-07T10:22:44Z</time>
      </trkpt>
      <trkpt lat="43.21543" lon="5.41849">
        <ele>203.28</ele>
        <time>2018-01-07T10:22:58Z</time>
      </trkpt>
      <trkpt lat="43.21548" lon="5.41858">
        <ele>203.91</ele>
        <time>2018-01-07T10:23:12Z</time>
      </trkpt>
      <trkpt lat="43.2155" lon="5.41862">
        <ele>200.59</ele>
        <time>2018-01-07T10:23:17Z</time>
      </trkpt>
      <trkpt lat="43.21554" lon="5.41868">
        <ele>197.54</ele>
        <time>2018-01-07T10:23:24Z</time>
      </trkpt>
      <trkpt lat="43.2156" lon="5.41876">
        <ele>194.42</ele>
        <time>2018-01-07T10:23:35Z</time>
      </trkpt>
      <trkpt lat="43.21565" lon="5.4188">
        <ele>193.21</ele>
        <time>2018-01-07T10:23:47Z</time>
      </trkpt>
      <trkpt lat="43.21568" lon="5.41897">
        <ele>192.59</ele>
        <time>2018-01-07T10:24:05Z</time>
      </trkpt>
      <trkpt lat="43.2157" lon="5.41908">
        <ele>190.9</ele>
        <time>2018-01-07T10:24:19Z</time>
      </trkpt>
      <trkpt lat="43.21572" lon="5.41914">
        <ele>188.85</ele>
        <time>2018-01-07T10:24:31Z</time>
      </trkpt>
      <trkpt lat="43.21578" lon="5.41924">
        <ele>191.34</ele>
        <time>2018-01-07T10:24:48Z</time>
      </trkpt>
      <trkpt lat="43.21581" lon="5.41931">
        <ele>191.81</ele>
        <time>2018-01-07T10:25:04Z</time>
      </trkpt>
      <trkpt lat="43.21585" lon="5.41933">
        <ele>192.1</ele>
        <time>2018-01-07T10:25:08Z</time>
      </trkpt>
      <trkpt lat="43.21592" lon="5.41939">
        <ele>192.6</ele>
        <time>2018-01-07T10:25:16Z</time>
      </trkpt>
      <trkpt lat="43.21598" lon="5.41944">
        <ele>192.69</ele>
        <time>2018-01-07T10:25:24Z</time>
      </trkpt>
      <trkpt lat="43.21599" lon="5.41945">
        <ele>192.79</ele>
        <time>2018-01-07T10:25:25Z</time>
      </trkpt>
      <trkpt lat="43.216" lon="5.41946">
        <ele>192.86</ele>
        <time>2018-01-07T10:25:26Z</time>
      </trkpt>
      <trkpt lat="43.21605" lon="5.41953">
        <ele>191.7</ele>
        <time>2018-01-07T10:25:32Z</time>
      </trkpt>
      <trkpt lat="43.21608" lon="5.41956">
        <ele>190.79</ele>
        <time>2018-01-07T10:25:35Z</time>
      </trkpt>
      <trkpt lat="43.21614" lon="5.41971">
        <ele>190.76</ele>
        <time>2018-01-07T10:25:50Z</time>
      </trkpt>
      <trkpt lat="43.21624" lon="5.41988">
        <ele>187.94</ele>
        <time>2018-01-07T10:26:08Z</time>
      </trkpt>
      <trkpt lat="43.21633" lon="5.41999">
        <ele>189.32</ele>
        <time>2018-01-07T10:26:23Z</time>
      </trkpt>
      <trkpt lat="43.21645" lon="5.42004">
        <ele>188.48</ele>
        <time>2018-01-07T10:26:41Z</time>
      </trkpt>
      <trkpt lat="43.21651" lon="5.42011">
        <ele>186.27</ele>
        <time>2018-01-07T10:26:52Z</time>
      </trkpt>
      <trkpt lat="43.21652" lon="5.42012">
        <ele>186.1</ele>
        <time>2018-01-07T10:26:53Z</time>
      </trkpt>
      <trkpt lat="43.21656" lon="5.42022">
        <ele>186.45</ele>
        <time>2018-01-07T10:27:03Z</time>
      </trkpt>
      <trkpt lat="43.21664" lon="5.42036">
        <ele>184.77</ele>
        <time>2018-01-07T10:27:20Z</time>
      </trkpt>
      <trkpt lat="43.21671" lon="5.42041">
        <ele>185.6</ele>
        <time>2018-01-07T10:27:34Z</time>
      </trkpt>
      <trkpt lat="43.21676" lon="5.42043">
        <ele>183.26</ele>
        <time>2018-01-07T10:27:48Z</time>
      </trkpt>
      <trkpt lat="43.21679" lon="5.42048">
        <ele>183.31</ele>
        <time>2018-01-07T10:28:05Z</time>
      </trkpt>
      <trkpt lat="43.21677" lon="5.42049">
        <ele>181.41</ele>
        <time>2018-01-07T10:28:41Z</time>
      </trkpt>
      <trkpt lat="43.21675" lon="5.4205">
        <ele>184.51</ele>
        <time>2018-01-07T10:29:04Z</time>
      </trkpt>
      <trkpt lat="43.21674" lon="5.42051">
        <ele>184.46</ele>
        <time>2018-01-07T10:29:37Z</time>
      </trkpt>
      <trkpt lat="43.21675" lon="5.42053">
        <ele>183.58</ele>
        <time>2018-01-07T10:29:57Z</time>
      </trkpt>
      <trkpt lat="43.21667" lon="5.42058">
        <ele>181.3</ele>
        <time>2018-01-07T10:30:14Z</time>
      </trkpt>
      <trkpt lat="43.21659" lon="5.42054">
        <ele>177.99</ele>
        <time>2018-01-07T10:30:31Z</time>
      </trkpt>
      <trkpt lat="43.21659" lon="5.42058">
        <ele>175.23</ele>
        <time>2018-01-07T10:30:45Z</time>
      </trkpt>
      <trkpt lat="43.21659" lon="5.42061">
        <ele>171.94</ele>
        <time>2018-01-07T10:30:52Z</time>
      </trkpt>
      <trkpt lat="43.21664" lon="5.42074">
        <ele>168.66</ele>
        <time>2018-01-07T10:31:08Z</time>
      </trkpt>
      <trkpt lat="43.21667" lon="5.42078">
        <ele>167.63</ele>
        <time>2018-01-07T10:31:12Z</time>
      </trkpt>
      <trkpt lat="43.21673" lon="5.42091">
        <ele>168.51</ele>
        <time>2018-01-07T10:31:27Z</time>
      </trkpt>
      <trkpt lat="43.21674" lon="5.42093">
        <ele>168.26</ele>
        <time>2018-01-07T10:31:29Z</time>
      </trkpt>
      <trkpt lat="43.21675" lon="5.42094">
        <ele>168.12</ele>
        <time>2018-01-07T10:31:30Z</time>
      </trkpt>
      <trkpt lat="43.21675" lon="5.42094">
        <ele>167.87</ele>
        <time>2018-01-07T10:31:31Z</time>
      </trkpt>
      <trkpt lat="43.21677" lon="5.42106">
        <ele>165.12</ele>
        <time>2018-01-07T10:31:45Z</time>
      </trkpt>
      <trkpt lat="43.21675" lon="5.42119">
        <ele>162.08</ele>
        <time>2018-01-07T10:32:00Z</time>
      </trkpt>
      <trkpt lat="43.21675" lon="5.42121">
        <ele>161.83</ele>
        <time>2018-01-07T10:32:01Z</time>
      </trkpt>
      <trkpt lat="43.21675" lon="5.42123">
        <ele>161.54</ele>
        <time>2018-01-07T10:32:02Z</time>
      </trkpt>
      <trkpt lat="43.21677" lon="5.42139">
        <ele>158.52</ele>
        <time>2018-01-07T10:32:16Z</time>
      </trkpt>
      <trkpt lat="43.21673" lon="5.42151">
        <ele>155.53</ele>
        <time>2018-01-07T10:32:31Z</time>
      </trkpt>
      <trkpt lat="43.21674" lon="5.42165">
        <ele>153.11</ele>
        <time>2018-01-07T10:32:48Z</time>
      </trkpt>
      <trkpt lat="43.21669" lon="5.4217">
        <ele>150.71</ele>
        <time>2018-01-07T10:33:03Z</time>
      </trkpt>
      <trkpt lat="43.21666" lon="5.42176">
        <ele>148.19</ele>
        <time>2018-01-07T10:33:22Z</time>
      </trkpt>
      <trkpt lat="43.21659" lon="5.42176">
        <ele>146.23</ele>
        <time>2018-01-07T10:33:37Z</time>
      </trkpt>
      <trkpt lat="43.21658" lon="5.42181">
        <ele>143.18</ele>
        <time>2018-01-07T10:33:50Z</time>
      </trkpt>
      <trkpt lat="43.21659" lon="5.42189">
        <ele>140.14</ele>
        <time>2018-01-07T10:34:04Z</time>
      </trkpt>
      <trkpt lat="43.21657" lon="5.42195">
        <ele>136.83</ele>
        <time>2018-01-07T10:34:18Z</time>
      </trkpt>
      <trkpt lat="43.21656" lon="5.42199">
        <ele>133.68</ele>
        <time>2018-01-07T10:34:28Z</time>
      </trkpt>
      <trkpt lat="43.21652" lon="5.42205">
        <ele>131.16</ele>
        <time>2018-01-07T10:34:46Z</time>
      </trkpt>
      <trkpt lat="43.21648" lon="5.42216">
        <ele>128.05</ele>
        <time>2018-01-07T10:35:03Z</time>
      </trkpt>
      <trkpt lat="43.21643" lon="5.42227">
        <ele>126.66</ele>
        <time>2018-01-07T10:35:12Z</time>
      </trkpt>
      <trkpt lat="43.21629" lon="5.42233">
        <ele>123.49</ele>
        <time>2018-01-07T10:35:29Z</time>
      </trkpt>
      <trkpt lat="43.21629" lon="5.42235">
        <ele>123.93</ele>
        <time>2018-01-07T10:35:48Z</time>
      </trkpt>
      <trkpt lat="43.21626" lon="5.42241">
        <ele>120.88</ele>
        <time>2018-01-07T10:36:06Z</time>
      </trkpt>
      <trkpt lat="43.21621" lon="5.4225">
        <ele>120.58</ele>
        <time>2018-01-07T10:36:25Z</time>
      </trkpt>
      <trkpt lat="43.21613" lon="5.4225">
        <ele>119.92</ele>
        <time>2018-01-07T10:36:41Z</time>
      </trkpt>
      <trkpt lat="43.2161" lon="5.42235">
        <ele>118.4</ele>
        <time>2018-01-07T10:36:56Z</time>
      </trkpt>
      <trkpt lat="43.21608" lon="5.42233">
        <ele>117.58</ele>
        <time>2018-01-07T10:37:00Z</time>
      </trkpt>
      <trkpt lat="43.21605" lon="5.42228">
        <ele>116.06</ele>
        <time>2018-01-07T10:37:05Z</time>
      </trkpt>
      <trkpt lat="43.21605" lon="5.42226">
        <ele>115.67</ele>
        <time>2018-01-07T10:37:06Z</time>
      </trkpt>
      <trkpt lat="43.21603" lon="5.42219">
        <ele>112.3</ele>
        <time>2018-01-07T10:37:14Z</time>
      </trkpt>
      <trkpt lat="43.216" lon="5.4221">
        <ele>109.14</ele>
        <time>2018-01-07T10:37:24Z</time>
      </trkpt>
      <trkpt lat="43.21599" lon="5.42197">
        <ele>105.85</ele>
        <time>2018-01-07T10:37:35Z</time>
      </trkpt>
      <trkpt lat="43.21589" lon="5.42187">
        <ele>105.05</ele>
        <time>2018-01-07T10:37:53Z</time>
      </trkpt>
      <trkpt lat="43.21583" lon="5.42184">
        <ele>101.82</ele>
        <time>2018-01-07T10:38:08Z</time>
      </trkpt>
      <trkpt lat="43.21574" lon="5.42184">
        <ele>102.46</ele>
        <time>2018-01-07T10:38:29Z</time>
      </trkpt>
      <trkpt lat="43.21571" lon="5.42181">
        <ele>99.39</ele>
        <time>2018-01-07T10:38:39Z</time>
      </trkpt>
      <trkpt lat="43.21564" lon="5.42178">
        <ele>96.21</ele>
        <time>2018-01-07T10:38:57Z</time>
      </trkpt>
      <trkpt lat="43.2156" lon="5.42176">
        <ele>93.13</ele>
        <time>2018-01-07T10:39:11Z</time>
      </trkpt>
      <trkpt lat="43.21557" lon="5.42178">
        <ele>90.01</ele>
        <time>2018-01-07T10:39:17Z</time>
      </trkpt>
      <trkpt lat="43.21552" lon="5.42182">
        <ele>89.29</ele>
        <time>2018-01-07T10:39:30Z</time>
      </trkpt>
      <trkpt lat="43.21551" lon="5.42188">
        <ele>89.28</ele>
        <time>2018-01-07T10:39:41Z</time>
      </trkpt>
      <trkpt lat="43.21543" lon="5.42202">
        <ele>86.67</ele>
        <time>2018-01-07T10:40:00Z</time>
      </trkpt>
      <trkpt lat="43.21536" lon="5.42216">
        <ele>84.95</ele>
        <time>2018-01-07T10:40:15Z</time>
      </trkpt>
      <trkpt lat="43.21526" lon="5.42226">
        <ele>81.96</ele>
        <time>2018-01-07T10:40:35Z</time>
      </trkpt>
      <trkpt lat="43.21521" lon="5.42223">
        <ele>81.29</ele>
        <time>2018-01-07T10:40:40Z</time>
      </trkpt>
      <trkpt lat="43.21516" lon="5.42217">
        <ele>78.16</ele>
        <time>2018-01-07T10:40:47Z</time>
      </trkpt>
      <trkpt lat="43.21506" lon="5.42206">
        <ele>78.21</ele>
        <time>2018-01-07T10:41:04Z</time>
      </trkpt>
      <trkpt lat="43.21496" lon="5.42198">
        <ele>75.12</ele>
        <time>2018-01-07T10:41:17Z</time>
      </trkpt>
      <trkpt lat="43.21491" lon="5.42192">
        <ele>71.94</ele>
        <time>2018-01-07T10:41:24Z</time>
      </trkpt>
      <trkpt lat="43.21483" lon="5.42188">
        <ele>68.94</ele>
        <time>2018-01-07T10:41:33Z</time>
      </trkpt>
      <trkpt lat="43.21476" lon="5.42179">
        <ele>65.88</ele>
        <time>2018-01-07T10:41:43Z</time>
      </trkpt>
      <trkpt lat="43.21469" lon="5.42168">
        <ele>65.8</ele>
        <time>2018-01-07T10:41:54Z</time>
      </trkpt>
      <trkpt lat="43.21466" lon="5.42166">
        <ele>65.69</ele>
        <time>2018-01-07T10:41:58Z</time>
      </trkpt>
      <trkpt lat="43.21461" lon="5.42164">
        <ele>65.35</ele>
        <time>2018-01-07T10:42:03Z</time>
      </trkpt>
      <trkpt lat="43.21453" lon="5.42157">
        <ele>67.19</ele>
        <time>2018-01-07T10:42:20Z</time>
      </trkpt>
      <trkpt lat="43.2145" lon="5.4215">
        <ele>64.59</ele>
        <time>2018-01-07T10:42:34Z</time>
      </trkpt>
      <trkpt lat="43.21444" lon="5.42142">
        <ele>61.5</ele>
        <time>2018-01-07T10:42:47Z</time>
      </trkpt>
      <trkpt lat="43.21434" lon="5.42134">
        <ele>58.25</ele>
        <time>2018-01-07T10:43:01Z</time>
      </trkpt>
      <trkpt lat="43.21426" lon="5.4213">
        <ele>54.9</ele>
        <time>2018-01-07T10:43:08Z</time>
      </trkpt>
      <trkpt lat="43.21412" lon="5.42127">
        <ele>53.88</ele>
        <time>2018-01-07T10:43:26Z</time>
      </trkpt>
      <trkpt lat="43.21406" lon="5.42123">
        <ele>50.74</ele>
        <time>2018-01-07T10:43:39Z</time>
      </trkpt>
      <trkpt lat="43.21398" lon="5.42132">
        <ele>47.94</ele>
        <time>2018-01-07T10:43:54Z</time>
      </trkpt>
      <trkpt lat="43.21389" lon="5.42139">
        <ele>50.55</ele>
        <time>2018-01-07T10:44:07Z</time>
      </trkpt>
      <trkpt lat="43.21382" lon="5.42145">
        <ele>48.54</ele>
        <time>2018-01-07T10:44:17Z</time>
      </trkpt>
      <trkpt lat="43.21374" lon="5.42153">
        <ele>45.87</ele>
        <time>2018-01-07T10:44:31Z</time>
      </trkpt>
      <trkpt lat="43.2137" lon="5.42156">
        <ele>43.72</ele>
        <time>2018-01-07T10:44:43Z</time>
      </trkpt>
      <trkpt lat="43.21361" lon="5.42159">
        <ele>40.56</ele>
        <time>2018-01-07T10:44:55Z</time>
      </trkpt>
      <trkpt lat="43.2135" lon="5.42162">
        <ele>37.33</ele>
        <time>2018-01-07T10:45:08Z</time>
      </trkpt>
      <trkpt lat="43.21346" lon="5.42163">
        <ele>35.89</ele>
        <time>2018-01-07T10:45:13Z</time>
      </trkpt>
      <trkpt lat="43.21336" lon="5.42168">
        <ele>37.06</ele>
        <time>2018-01-07T10:45:28Z</time>
      </trkpt>
      <trkpt lat="43.2133" lon="5.42171">
        <ele>34.65</ele>
        <time>2018-01-07T10:45:44Z</time>
      </trkpt>
      <trkpt lat="43.21327" lon="5.42173">
        <ele>31.57</ele>
        <time>2018-01-07T10:45:58Z</time>
      </trkpt>
      <trkpt lat="43.21324" lon="5.42176">
        <ele>28.44</ele>
        <time>2018-01-07T10:46:06Z</time>
      </trkpt>
      <trkpt lat="43.21316" lon="5.42186">
        <ele>28.02</ele>
        <time>2018-01-07T10:46:26Z</time>
      </trkpt>
      <trkpt lat="43.21315" lon="5.42189">
        <ele>27.8</ele>
        <time>2018-01-07T10:46:28Z</time>
      </trkpt>
      <trkpt lat="43.21309" lon="5.42197">
        <ele>29.05</ele>
        <time>2018-01-07T10:46:38Z</time>
      </trkpt>
      <trkpt lat="43.21309" lon="5.42199">
        <ele>29.35</ele>
        <time>2018-01-07T10:46:39Z</time>
      </trkpt>
      <trkpt lat="43.21303" lon="5.42212">
        <ele>28.05</ele>
        <time>2018-01-07T10:46:52Z</time>
      </trkpt>
      <trkpt lat="43.213" lon="5.42218">
        <ele>24.86</ele>
        <time>2018-01-07T10:47:00Z</time>
      </trkpt>
      <trkpt lat="43.21291" lon="5.42232">
        <ele>21.69</ele>
        <time>2018-01-07T10:47:15Z</time>
      </trkpt>
      <trkpt lat="43.21282" lon="5.42242">
        <ele>19.77</ele>
        <time>2018-01-07T10:47:31Z</time>
      </trkpt>
      <trkpt lat="43.2128" lon="5.42244">
        <ele>18.48</ele>
        <time>2018-01-07T10:47:34Z</time>
      </trkpt>
      <trkpt lat="43.2127" lon="5.42255">
        <ele>19.06</ele>
        <time>2018-01-07T10:47:47Z</time>
      </trkpt>
      <trkpt lat="43.21269" lon="5.42256">
        <ele>18.64</ele>
        <time>2018-01-07T10:47:48Z</time>
      </trkpt>
      <trkpt lat="43.21268" lon="5.42257">
        <ele>18.24</ele>
        <time>2018-01-07T10:47:49Z</time>
      </trkpt>
      <trkpt lat="43.21262" lon="5.42264">
        <ele>15.16</ele>
        <time>2018-01-07T10:47:56Z</time>
      </trkpt>
      <trkpt lat="43.21252" lon="5.42274">
        <ele>13.68</ele>
        <time>2018-01-07T10:48:10Z</time>
      </trkpt>
      <trkpt lat="43.2125" lon="5.42279">
        <ele>12.9</ele>
        <time>2018-01-07T10:48:15Z</time>
      </trkpt>
      <trkpt lat="43.21249" lon="5.4228">
        <ele>12.92</ele>
        <time>2018-01-07T10:48:16Z</time>
      </trkpt>
      <trkpt lat="43.21237" lon="5.4229">
        <ele>14.33</ele>
        <time>2018-01-07T10:48:30Z</time>
      </trkpt>
      <trkpt lat="43.21233" lon="5.42298">
        <ele>13.57</ele>
        <time>2018-01-07T10:48:46Z</time>
      </trkpt>
      <trkpt lat="43.21223" lon="5.42308">
        <ele>11.8</ele>
        <time>2018-01-07T10:49:01Z</time>
      </trkpt>
      <trkpt lat="43.21212" lon="5.42318">
        <ele>8.68</ele>
        <time>2018-01-07T10:49:16Z</time>
      </trkpt>
      <trkpt lat="43.21198" lon="5.42324">
        <ele>6.43</ele>
        <time>2018-01-07T10:49:34Z</time>
      </trkpt>
      <trkpt lat="43.21192" lon="5.42327">
        <ele>6.14</ele>
        <time>2018-01-07T10:49:40Z</time>
      </trkpt>
      <trkpt lat="43.2119" lon="5.42328">
        <ele>6.1</ele>
        <time>2018-01-07T10:49:41Z</time>
      </trkpt>
      <trkpt lat="43.21189" lon="5.42328">
        <ele>6.07</ele>
        <time>2018-01-07T10:49:42Z</time>
      </trkpt>
      <trkpt lat="43.21188" lon="5.42329">
        <ele>6.04</ele>
        <time>2018-01-07T10:49:43Z</time>
      </trkpt>
      <trkpt lat="43.21178" lon="5.42332">
        <ele>6.04</ele>
        <time>2018-01-07T10:49:58Z</time>
      </trkpt>
      <trkpt lat="43.21172" lon="5.42335">
        <ele>5.77</ele>
        <time>2018-01-07T10:50:16Z</time>
      </trkpt>
      <trkpt lat="43.21172" lon="5.42339">
        <ele>4.52</ele>
        <time>2018-01-07T10:50:51Z</time>
      </trkpt>
      <trkpt lat="43.21171" lon="5.42337">
        <ele>5.33</ele>
        <time>2018-01-07T10:51:22Z</time>
      </trkpt>
      <trkpt lat="43.21169" lon="5.42338">
        <ele>5.06</ele>
        <time>2018-01-07T10:51:49Z</time>
      </trkpt>
      <trkpt lat="43.21168" lon="5.4234">
        <ele>5.83</ele>
        <time>2018-01-07T10:52:16Z</time>
      </trkpt>
      <trkpt lat="43.21169" lon="5.42338">
        <ele>4.69</ele>
        <time>2018-01-07T10:52:40Z</time>
      </trkpt>
      <trkpt lat="43.21169" lon="5.42339">
        <ele>5.28</ele>
        <time>2018-01-07T10:53:03Z</time>
      </trkpt>
      <trkpt lat="43.21168" lon="5.4234">
        <ele>2.26</ele>
        <time>2018-01-07T10:53:20Z</time>
      </trkpt>
      <trkpt lat="43.21168" lon="5.42337">
        <ele>4.39</ele>
        <time>2018-01-07T10:53:55Z</time>
      </trkpt>
      <trkpt lat="43.21168" lon="5.42338">
        <ele>4.53</ele>
        <time>2018-01-07T10:54:26Z</time>
      </trkpt>
      <trkpt lat="43.21167" lon="5.42337">
        <ele>1.52</ele>
        <time>2018-01-07T10:54:44Z</time>
      </trkpt>
      <trkpt lat="43.21167" lon="5.42338">
        <ele>4.6</ele>
        <time>2018-01-07T10:55:20Z</time>
      </trkpt>
      <trkpt lat="43.21167" lon="5.42339">
        <ele>4.45</ele>
        <time>2018-01-07T10:55:53Z</time>
      </trkpt>
      <trkpt lat="43.21167" lon="5.42339">
        <ele>2.97</ele>
        <time>2018-01-07T10:56:26Z</time>
      </trkpt>
      <trkpt lat="43.21166" lon="5.42335">
        <ele>3.25</ele>
        <time>2018-01-07T10:56:39Z</time>
      </trkpt>
      <trkpt lat="43.21171" lon="5.42332">
        <ele>3.4</ele>
        <time>2018-01-07T10:57:16Z</time>
      </trkpt>
      <trkpt lat="43.2117" lon="5.42334">
        <ele>6.28</ele>
        <time>2018-01-07T10:57:52Z</time>
      </trkpt>
      <trkpt lat="43.21175" lon="5.42335">
        <ele>3.19</ele>
        <time>2018-01-07T10:58:21Z</time>
      </trkpt>
      <trkpt lat="43.21173" lon="5.42333">
        <ele>4.77</ele>
        <time>2018-01-07T10:58:58Z</time>
      </trkpt>
      <trkpt lat="43.2117" lon="5.42333">
        <ele>3.91</ele>
        <time>2018-01-07T10:59:38Z</time>
      </trkpt>
      <trkpt lat="43.21172" lon="5.42332">
        <ele>6.8</ele>
        <time>2018-01-07T11:00:22Z</time>
      </trkpt>
      <trkpt lat="43.21171" lon="5.42332">
        <ele>5.55</ele>
        <time>2018-01-07T11:00:37Z</time>
      </trkpt>
      <trkpt lat="43.2117" lon="5.42332">
        <ele>5.88</ele>
        <time>2018-01-07T11:00:57Z</time>
      </trkpt>
      <trkpt lat="43.21176" lon="5.42328">
        <ele>6.25</ele>
        <time>2018-01-07T11:01:20Z</time>
      </trkpt>
      <trkpt lat="43.21182" lon="5.42323">
        <ele>6.42</ele>
        <time>2018-01-07T11:01:35Z</time>
      </trkpt>
      <trkpt lat="43.21175" lon="5.42325">
        <ele>5.26</ele>
        <time>2018-01-07T11:01:50Z</time>
      </trkpt>
      <trkpt lat="43.21174" lon="5.42327">
        <ele>5.19</ele>
        <time>2018-01-07T11:02:12Z</time>
      </trkpt>
      <trkpt lat="43.21176" lon="5.42325">
        <ele>4.35</ele>
        <time>2018-01-07T11:02:29Z</time>
      </trkpt>
      <trkpt lat="43.21172" lon="5.42318">
        <ele>4.81</ele>
        <time>2018-01-07T11:02:42Z</time>
      </trkpt>
      <trkpt lat="43.21163" lon="5.42308">
        <ele>6.25</ele>
        <time>2018-01-07T11:02:57Z</time>
      </trkpt>
      <trkpt lat="43.21154" lon="5.42293">
        <ele>7.65</ele>
        <time>2018-01-07T11:03:15Z</time>
      </trkpt>
      <trkpt lat="43.21153" lon="5.42292">
        <ele>7.71</ele>
        <time>2018-01-07T11:03:17Z</time>
      </trkpt>
      <trkpt lat="43.21151" lon="5.4229">
        <ele>7.79</ele>
        <time>2018-01-07T11:03:19Z</time>
      </trkpt>
      <trkpt lat="43.2115" lon="5.42289">
        <ele>7.83</ele>
        <time>2018-01-07T11:03:20Z</time>
      </trkpt>
      <trkpt lat="43.21149" lon="5.42288">
        <ele>7.95</ele>
        <time>2018-01-07T11:03:21Z</time>
      </trkpt>
      <trkpt lat="43.21137" lon="5.42278">
        <ele>8.75</ele>
        <time>2018-01-07T11:03:35Z</time>
      </trkpt>
      <trkpt lat="43.21126" lon="5.42273">
        <ele>7.93</ele>
        <time>2018-01-07T11:03:47Z</time>
      </trkpt>
      <trkpt lat="43.21125" lon="5.42273">
        <ele>7.71</ele>
        <time>2018-01-07T11:03:48Z</time>
      </trkpt>
      <trkpt lat="43.21123" lon="5.42273">
        <ele>7.52</ele>
        <time>2018-01-07T11:03:50Z</time>
      </trkpt>
      <trkpt lat="43.2112" lon="5.42273">
        <ele>6.62</ele>
        <time>2018-01-07T11:04:08Z</time>
      </trkpt>
      <trkpt lat="43.21112" lon="5.42266">
        <ele>3.8</ele>
        <time>2018-01-07T11:04:26Z</time>
      </trkpt>
      <trkpt lat="43.21098" lon="5.42257">
        <ele>3.88</ele>
        <time>2018-01-07T11:04:38Z</time>
      </trkpt>
      <trkpt lat="43.2109" lon="5.42242">
        <ele>5.47</ele>
        <time>2018-01-07T11:04:51Z</time>
      </trkpt>
      <trkpt lat="43.21089" lon="5.42238">
        <ele>6.17</ele>
        <time>2018-01-07T11:04:54Z</time>
      </trkpt>
      <trkpt lat="43.21089" lon="5.42237">
        <ele>6.38</ele>
        <time>2018-01-07T11:04:55Z</time>
      </trkpt>
      <trkpt lat="43.21089" lon="5.42235">
        <ele>6.57</ele>
        <time>2018-01-07T11:04:56Z</time>
      </trkpt>
      <trkpt lat="43.21085" lon="5.42218">
        <ele>6.67</ele>
        <time>2018-01-07T11:05:10Z</time>
      </trkpt>
      <trkpt lat="43.21086" lon="5.42212">
        <ele>6.38</ele>
        <time>2018-01-07T11:05:24Z</time>
      </trkpt>
      <trkpt lat="43.21086" lon="5.42209">
        <ele>6.46</ele>
        <time>2018-01-07T11:05:26Z</time>
      </trkpt>
      <trkpt lat="43.21086" lon="5.42208">
        <ele>6.53</ele>
        <time>2018-01-07T11:05:27Z</time>
      </trkpt>
      <trkpt lat="43.21085" lon="5.422">
        <ele>7.11</ele>
        <time>2018-01-07T11:05:32Z</time>
      </trkpt>
      <trkpt lat="43.21085" lon="5.42187">
        <ele>9.12</ele>
        <time>2018-01-07T11:05:44Z</time>
      </trkpt>
      <trkpt lat="43.21086" lon="5.42185">
        <ele>9.19</ele>
        <time>2018-01-07T11:05:45Z</time>
      </trkpt>
      <trkpt lat="43.21086" lon="5.42184">
        <ele>9.29</ele>
        <time>2018-01-07T11:05:46Z</time>
      </trkpt>
      <trkpt lat="43.21085" lon="5.42175">
        <ele>9.92</ele>
        <time>2018-01-07T11:05:51Z</time>
      </trkpt>
      <trkpt lat="43.21085" lon="5.42173">
        <ele>10</ele>
        <time>2018-01-07T11:05:52Z</time>
      </trkpt>
      <trkpt lat="43.21085" lon="5.42166">
        <ele>10.61</ele>
        <time>2018-01-07T11:05:57Z</time>
      </trkpt>
      <trkpt lat="43.21085" lon="5.42164">
        <ele>10.73</ele>
        <time>2018-01-07T11:05:58Z</time>
      </trkpt>
      <trkpt lat="43.21084" lon="5.42159">
        <ele>10.88</ele>
        <time>2018-01-07T11:06:01Z</time>
      </trkpt>
      <trkpt lat="43.21085" lon="5.42157">
        <ele>10.9</ele>
        <time>2018-01-07T11:06:02Z</time>
      </trkpt>
      <trkpt lat="43.21085" lon="5.42156">
        <ele>10.89</ele>
        <time>2018-01-07T11:06:03Z</time>
      </trkpt>
      <trkpt lat="43.21085" lon="5.42154">
        <ele>10.83</ele>
        <time>2018-01-07T11:06:04Z</time>
      </trkpt>
      <trkpt lat="43.21089" lon="5.42135">
        <ele>9.64</ele>
        <time>2018-01-07T11:06:18Z</time>
      </trkpt>
      <trkpt lat="43.2109" lon="5.42134">
        <ele>9.61</ele>
        <time>2018-01-07T11:06:19Z</time>
      </trkpt>
      <trkpt lat="43.2109" lon="5.42132">
        <ele>9.55</ele>
        <time>2018-01-07T11:06:20Z</time>
      </trkpt>
      <trkpt lat="43.21095" lon="5.42114">
        <ele>10.26</ele>
        <time>2018-01-07T11:06:33Z</time>
      </trkpt>
      <trkpt lat="43.21096" lon="5.42111">
        <ele>10.51</ele>
        <time>2018-01-07T11:06:36Z</time>
      </trkpt>
      <trkpt lat="43.21096" lon="5.42109">
        <ele>10.72</ele>
        <time>2018-01-07T11:06:37Z</time>
      </trkpt>
      <trkpt lat="43.21096" lon="5.42108">
        <ele>10.72</ele>
        <time>2018-01-07T11:06:38Z</time>
      </trkpt>
      <trkpt lat="43.21099" lon="5.42087">
        <ele>11.55</ele>
        <time>2018-01-07T11:06:52Z</time>
      </trkpt>
      <trkpt lat="43.21099" lon="5.42083">
        <ele>11.43</ele>
        <time>2018-01-07T11:06:54Z</time>
      </trkpt>
      <trkpt lat="43.21101" lon="5.42063">
        <ele>11.65</ele>
        <time>2018-01-07T11:07:08Z</time>
      </trkpt>
      <trkpt lat="43.21101" lon="5.42061">
        <ele>11.61</ele>
        <time>2018-01-07T11:07:09Z</time>
      </trkpt>
      <trkpt lat="43.21102" lon="5.42059">
        <ele>11.55</ele>
        <time>2018-01-07T11:07:10Z</time>
      </trkpt>
      <trkpt lat="43.21102" lon="5.42057">
        <ele>11.48</ele>
        <time>2018-01-07T11:07:11Z</time>
      </trkpt>
      <trkpt lat="43.21102" lon="5.42055">
        <ele>11.43</ele>
        <time>2018-01-07T11:07:12Z</time>
      </trkpt>
      <trkpt lat="43.21102" lon="5.42053">
        <ele>11.38</ele>
        <time>2018-01-07T11:07:13Z</time>
      </trkpt>
      <trkpt lat="43.21102" lon="5.42052">
        <ele>11.33</ele>
        <time>2018-01-07T11:07:14Z</time>
      </trkpt>
      <trkpt lat="43.21104" lon="5.42039">
        <ele>11.25</ele>
        <time>2018-01-07T11:07:24Z</time>
      </trkpt>
      <trkpt lat="43.21105" lon="5.42036">
        <ele>11.26</ele>
        <time>2018-01-07T11:07:26Z</time>
      </trkpt>
      <trkpt lat="43.21105" lon="5.42035">
        <ele>11.28</ele>
        <time>2018-01-07T11:07:27Z</time>
      </trkpt>
      <trkpt lat="43.21106" lon="5.42033">
        <ele>11.28</ele>
        <time>2018-01-07T11:07:28Z</time>
      </trkpt>
      <trkpt lat="43.21105" lon="5.42027">
        <ele>11.53</ele>
        <time>2018-01-07T11:07:32Z</time>
      </trkpt>
      <trkpt lat="43.21104" lon="5.42026">
        <ele>11.57</ele>
        <time>2018-01-07T11:07:33Z</time>
      </trkpt>
      <trkpt lat="43.21103" lon="5.42025">
        <ele>11.57</ele>
        <time>2018-01-07T11:07:34Z</time>
      </trkpt>
      <trkpt lat="43.21102" lon="5.42024">
        <ele>11.52</ele>
        <time>2018-01-07T11:07:35Z</time>
      </trkpt>
      <trkpt lat="43.21096" lon="5.4202">
        <ele>11.06</ele>
        <time>2018-01-07T11:07:41Z</time>
      </trkpt>
      <trkpt lat="43.21091" lon="5.42018">
        <ele>10.66</ele>
        <time>2018-01-07T11:07:45Z</time>
      </trkpt>
      <trkpt lat="43.2109" lon="5.42018">
        <ele>10.55</ele>
        <time>2018-01-07T11:07:46Z</time>
      </trkpt>
      <trkpt lat="43.21089" lon="5.42019">
        <ele>10.44</ele>
        <time>2018-01-07T11:07:47Z</time>
      </trkpt>
      <trkpt lat="43.21088" lon="5.42019">
        <ele>10.3</ele>
        <time>2018-01-07T11:07:48Z</time>
      </trkpt>
      <trkpt lat="43.21086" lon="5.42019">
        <ele>10.1</ele>
        <time>2018-01-07T11:07:49Z</time>
      </trkpt>
      <trkpt lat="43.2107" lon="5.42018">
        <ele>9.18</ele>
        <time>2018-01-07T11:08:03Z</time>
      </trkpt>
      <trkpt lat="43.21056" lon="5.42018">
        <ele>9.92</ele>
        <time>2018-01-07T11:08:15Z</time>
      </trkpt>
      <trkpt lat="43.21051" lon="5.41998">
        <ele>9.06</ele>
        <time>2018-01-07T11:08:28Z</time>
      </trkpt>
      <trkpt lat="43.21043" lon="5.41991">
        <ele>8.43</ele>
        <time>2018-01-07T11:08:39Z</time>
      </trkpt>
      <trkpt lat="43.21042" lon="5.41991">
        <ele>8.37</ele>
        <time>2018-01-07T11:08:40Z</time>
      </trkpt>
      <trkpt lat="43.21039" lon="5.41994">
        <ele>7.59</ele>
        <time>2018-01-07T11:08:44Z</time>
      </trkpt>
      <trkpt lat="43.21038" lon="5.41995">
        <ele>7.42</ele>
        <time>2018-01-07T11:08:45Z</time>
      </trkpt>
      <trkpt lat="43.21033" lon="5.42002">
        <ele>5.34</ele>
        <time>2018-01-07T11:09:00Z</time>
      </trkpt>
      <trkpt lat="43.2103" lon="5.42005">
        <ele>4.71</ele>
        <time>2018-01-07T11:09:11Z</time>
      </trkpt>
      <trkpt lat="43.21029" lon="5.42005">
        <ele>4.34</ele>
        <time>2018-01-07T11:09:12Z</time>
      </trkpt>
      <trkpt lat="43.21028" lon="5.42004">
        <ele>4.04</ele>
        <time>2018-01-07T11:09:13Z</time>
      </trkpt>
      <trkpt lat="43.21028" lon="5.42003">
        <ele>3.75</ele>
        <time>2018-01-07T11:09:14Z</time>
      </trkpt>
      <trkpt lat="43.21027" lon="5.42002">
        <ele>3.54</ele>
        <time>2018-01-07T11:09:15Z</time>
      </trkpt>
      <trkpt lat="43.21026" lon="5.42002">
        <ele>3.37</ele>
        <time>2018-01-07T11:09:16Z</time>
      </trkpt>
      <trkpt lat="43.21021" lon="5.42001">
        <ele>0.94</ele>
        <time>2018-01-07T11:09:24Z</time>
      </trkpt>
      <trkpt lat="43.2102" lon="5.41999">
        <ele>0.62</ele>
        <time>2018-01-07T11:09:26Z</time>
      </trkpt>
      <trkpt lat="43.21019" lon="5.41998">
        <ele>0.83</ele>
        <time>2018-01-07T11:09:27Z</time>
      </trkpt>
      <trkpt lat="43.21003" lon="5.41987">
        <ele>2.36</ele>
        <time>2018-01-07T11:09:44Z</time>
      </trkpt>
      <trkpt lat="43.20998" lon="5.41986">
        <ele>2.92</ele>
        <time>2018-01-07T11:10:02Z</time>
      </trkpt>
      <trkpt lat="43.20991" lon="5.41983">
        <ele>3.29</ele>
        <time>2018-01-07T11:10:22Z</time>
      </trkpt>
      <trkpt lat="43.20991" lon="5.41977">
        <ele>4.73</ele>
        <time>2018-01-07T11:10:36Z</time>
      </trkpt>
      <trkpt lat="43.20985" lon="5.41977">
        <ele>5.99</ele>
        <time>2018-01-07T11:10:55Z</time>
      </trkpt>
      <trkpt lat="43.20984" lon="5.41977">
        <ele>7.86</ele>
        <time>2018-01-07T11:11:22Z</time>
      </trkpt>
      <trkpt lat="43.20978" lon="5.41973">
        <ele>7.18</ele>
        <time>2018-01-07T11:11:41Z</time>
      </trkpt>
      <trkpt lat="43.20978" lon="5.4197">
        <ele>9.56</ele>
        <time>2018-01-07T11:11:56Z</time>
      </trkpt>
      <trkpt lat="43.20969" lon="5.41971">
        <ele>12.69</ele>
        <time>2018-01-07T11:12:15Z</time>
      </trkpt>
      <trkpt lat="43.20962" lon="5.41966">
        <ele>15.85</ele>
        <time>2018-01-07T11:12:32Z</time>
      </trkpt>
      <trkpt lat="43.20963" lon="5.4196">
        <ele>18.17</ele>
        <time>2018-01-07T11:12:47Z</time>
      </trkpt>
      <trkpt lat="43.20959" lon="5.41955">
        <ele>20.16</ele>
        <time>2018-01-07T11:13:05Z</time>
      </trkpt>
      <trkpt lat="43.20956" lon="5.41957">
        <ele>21.55</ele>
        <time>2018-01-07T11:13:24Z</time>
      </trkpt>
      <trkpt lat="43.2095" lon="5.41961">
        <ele>24.62</ele>
        <time>2018-01-07T11:13:43Z</time>
      </trkpt>
      <trkpt lat="43.20947" lon="5.41963">
        <ele>24.75</ele>
        <time>2018-01-07T11:14:01Z</time>
      </trkpt>
      <trkpt lat="43.20945" lon="5.4197">
        <ele>26.81</ele>
        <time>2018-01-07T11:14:13Z</time>
      </trkpt>
      <trkpt lat="43.20945" lon="5.41972">
        <ele>28.03</ele>
        <time>2018-01-07T11:14:31Z</time>
      </trkpt>
      <trkpt lat="43.20945" lon="5.41971">
        <ele>28.22</ele>
        <time>2018-01-07T11:14:48Z</time>
      </trkpt>
      <trkpt lat="43.20944" lon="5.41971">
        <ele>27.97</ele>
        <time>2018-01-07T11:15:06Z</time>
      </trkpt>
      <trkpt lat="43.2094" lon="5.41985">
        <ele>28.63</ele>
        <time>2018-01-07T11:15:24Z</time>
      </trkpt>
      <trkpt lat="43.20933" lon="5.41992">
        <ele>28.95</ele>
        <time>2018-01-07T11:15:44Z</time>
      </trkpt>
      <trkpt lat="43.20927" lon="5.42003">
        <ele>30.78</ele>
        <time>2018-01-07T11:16:00Z</time>
      </trkpt>
      <trkpt lat="43.20925" lon="5.42006">
        <ele>30.25</ele>
        <time>2018-01-07T11:16:04Z</time>
      </trkpt>
      <trkpt lat="43.20924" lon="5.42007">
        <ele>30.25</ele>
        <time>2018-01-07T11:16:05Z</time>
      </trkpt>
      <trkpt lat="43.20924" lon="5.42009">
        <ele>30.28</ele>
        <time>2018-01-07T11:16:06Z</time>
      </trkpt>
      <trkpt lat="43.20923" lon="5.4201">
        <ele>30.31</ele>
        <time>2018-01-07T11:16:07Z</time>
      </trkpt>
      <trkpt lat="43.20916" lon="5.42017">
        <ele>29.83</ele>
        <time>2018-01-07T11:16:21Z</time>
      </trkpt>
      <trkpt lat="43.20905" lon="5.42024">
        <ele>29.75</ele>
        <time>2018-01-07T11:16:36Z</time>
      </trkpt>
      <trkpt lat="43.20897" lon="5.42035">
        <ele>28.53</ele>
        <time>2018-01-07T11:16:52Z</time>
      </trkpt>
      <trkpt lat="43.20891" lon="5.42047">
        <ele>31.29</ele>
        <time>2018-01-07T11:17:11Z</time>
      </trkpt>
      <trkpt lat="43.20886" lon="5.42057">
        <ele>31.72</ele>
        <time>2018-01-07T11:17:29Z</time>
      </trkpt>
      <trkpt lat="43.20882" lon="5.42059">
        <ele>31.24</ele>
        <time>2018-01-07T11:17:53Z</time>
      </trkpt>
      <trkpt lat="43.20881" lon="5.42062">
        <ele>34.29</ele>
        <time>2018-01-07T11:18:10Z</time>
      </trkpt>
      <trkpt lat="43.20877" lon="5.42069">
        <ele>37.17</ele>
        <time>2018-01-07T11:18:27Z</time>
      </trkpt>
      <trkpt lat="43.20871" lon="5.42075">
        <ele>36.8</ele>
        <time>2018-01-07T11:18:44Z</time>
      </trkpt>
      <trkpt lat="43.20868" lon="5.42084">
        <ele>36.97</ele>
        <time>2018-01-07T11:19:00Z</time>
      </trkpt>
      <trkpt lat="43.20865" lon="5.42091">
        <ele>35.52</ele>
        <time>2018-01-07T11:19:14Z</time>
      </trkpt>
      <trkpt lat="43.20858" lon="5.42103">
        <ele>33.54</ele>
        <time>2018-01-07T11:19:30Z</time>
      </trkpt>
      <trkpt lat="43.20854" lon="5.42111">
        <ele>33.72</ele>
        <time>2018-01-07T11:19:45Z</time>
      </trkpt>
      <trkpt lat="43.20848" lon="5.42115">
        <ele>34.76</ele>
        <time>2018-01-07T11:20:03Z</time>
      </trkpt>
      <trkpt lat="43.20842" lon="5.42122">
        <ele>32.49</ele>
        <time>2018-01-07T11:20:19Z</time>
      </trkpt>
      <trkpt lat="43.20838" lon="5.42121">
        <ele>32.23</ele>
        <time>2018-01-07T11:20:35Z</time>
      </trkpt>
      <trkpt lat="43.20836" lon="5.42122">
        <ele>33.84</ele>
        <time>2018-01-07T11:20:51Z</time>
      </trkpt>
      <trkpt lat="43.2083" lon="5.42124">
        <ele>34.31</ele>
        <time>2018-01-07T11:21:10Z</time>
      </trkpt>
      <trkpt lat="43.20823" lon="5.4213">
        <ele>35.06</ele>
        <time>2018-01-07T11:21:24Z</time>
      </trkpt>
      <trkpt lat="43.20813" lon="5.42136">
        <ele>32.46</ele>
        <time>2018-01-07T11:21:41Z</time>
      </trkpt>
      <trkpt lat="43.20807" lon="5.42141">
        <ele>35.62</ele>
        <time>2018-01-07T11:21:57Z</time>
      </trkpt>
      <trkpt lat="43.20799" lon="5.42145">
        <ele>38.43</ele>
        <time>2018-01-07T11:22:15Z</time>
      </trkpt>
      <trkpt lat="43.20797" lon="5.42147">
        <ele>38.09</ele>
        <time>2018-01-07T11:22:28Z</time>
      </trkpt>
      <trkpt lat="43.20798" lon="5.42148">
        <ele>41.04</ele>
        <time>2018-01-07T11:22:53Z</time>
      </trkpt>
      <trkpt lat="43.20794" lon="5.42143">
        <ele>40.71</ele>
        <time>2018-01-07T11:23:12Z</time>
      </trkpt>
      <trkpt lat="43.20789" lon="5.42142">
        <ele>42.41</ele>
        <time>2018-01-07T11:23:30Z</time>
      </trkpt>
      <trkpt lat="43.20786" lon="5.42147">
        <ele>44.59</ele>
        <time>2018-01-07T11:23:51Z</time>
      </trkpt>
      <trkpt lat="43.20785" lon="5.42154">
        <ele>47.46</ele>
        <time>2018-01-07T11:24:09Z</time>
      </trkpt>
      <trkpt lat="43.20785" lon="5.4216">
        <ele>50.28</ele>
        <time>2018-01-07T11:24:28Z</time>
      </trkpt>
      <trkpt lat="43.20783" lon="5.42168">
        <ele>51.49</ele>
        <time>2018-01-07T11:24:43Z</time>
      </trkpt>
      <trkpt lat="43.20779" lon="5.42171">
        <ele>53.29</ele>
        <time>2018-01-07T11:25:01Z</time>
      </trkpt>
      <trkpt lat="43.20776" lon="5.42178">
        <ele>55.63</ele>
        <time>2018-01-07T11:25:18Z</time>
      </trkpt>
      <trkpt lat="43.20772" lon="5.42185">
        <ele>57.25</ele>
        <time>2018-01-07T11:25:34Z</time>
      </trkpt>
      <trkpt lat="43.20769" lon="5.42191">
        <ele>58.92</ele>
        <time>2018-01-07T11:25:48Z</time>
      </trkpt>
      <trkpt lat="43.20765" lon="5.42196">
        <ele>56.58</ele>
        <time>2018-01-07T11:26:01Z</time>
      </trkpt>
      <trkpt lat="43.20763" lon="5.42199">
        <ele>56.74</ele>
        <time>2018-01-07T11:26:05Z</time>
      </trkpt>
      <trkpt lat="43.20762" lon="5.422">
        <ele>56.96</ele>
        <time>2018-01-07T11:26:06Z</time>
      </trkpt>
      <trkpt lat="43.2076" lon="5.42203">
        <ele>57.45</ele>
        <time>2018-01-07T11:26:10Z</time>
      </trkpt>
      <trkpt lat="43.20757" lon="5.42208">
        <ele>59.95</ele>
        <time>2018-01-07T11:26:25Z</time>
      </trkpt>
      <trkpt lat="43.2075" lon="5.42215">
        <ele>60.34</ele>
        <time>2018-01-07T11:26:39Z</time>
      </trkpt>
      <trkpt lat="43.20738" lon="5.4222">
        <ele>59.12</ele>
        <time>2018-01-07T11:26:55Z</time>
      </trkpt>
      <trkpt lat="43.20727" lon="5.42229">
        <ele>57</ele>
        <time>2018-01-07T11:27:11Z</time>
      </trkpt>
      <trkpt lat="43.20717" lon="5.42232">
        <ele>55.53</ele>
        <time>2018-01-07T11:27:25Z</time>
      </trkpt>
      <trkpt lat="43.2071" lon="5.42238">
        <ele>58.55</ele>
        <time>2018-01-07T11:27:37Z</time>
      </trkpt>
      <trkpt lat="43.207" lon="5.42242">
        <ele>60.12</ele>
        <time>2018-01-07T11:27:54Z</time>
      </trkpt>
      <trkpt lat="43.20698" lon="5.4224">
        <ele>59.98</ele>
        <time>2018-01-07T11:28:17Z</time>
      </trkpt>
      <trkpt lat="43.20696" lon="5.42239">
        <ele>60.79</ele>
        <time>2018-01-07T11:28:47Z</time>
      </trkpt>
      <trkpt lat="43.20697" lon="5.42242">
        <ele>59.07</ele>
        <time>2018-01-07T11:29:16Z</time>
      </trkpt>
      <trkpt lat="43.20698" lon="5.42241">
        <ele>60.45</ele>
        <time>2018-01-07T11:30:04Z</time>
      </trkpt>
      <trkpt lat="43.20698" lon="5.42241">
        <ele>57.29</ele>
        <time>2018-01-07T11:30:15Z</time>
      </trkpt>
      <trkpt lat="43.20697" lon="5.4224">
        <ele>60.31</ele>
        <time>2018-01-07T11:30:49Z</time>
      </trkpt>
      <trkpt lat="43.20698" lon="5.42242">
        <ele>59.54</ele>
        <time>2018-01-07T11:31:32Z</time>
      </trkpt>
      <trkpt lat="43.20702" lon="5.42241">
        <ele>59.32</ele>
        <time>2018-01-07T11:32:23Z</time>
      </trkpt>
      <trkpt lat="43.20702" lon="5.4224">
        <ele>59.7</ele>
        <time>2018-01-07T11:33:17Z</time>
      </trkpt>
      <trkpt lat="43.20702" lon="5.42241">
        <ele>59.33</ele>
        <time>2018-01-07T11:34:50Z</time>
      </trkpt>
      <trkpt lat="43.20703" lon="5.42241">
        <ele>59.15</ele>
        <time>2018-01-07T11:35:35Z</time>
      </trkpt>
      <trkpt lat="43.20703" lon="5.42241">
        <ele>59.04</ele>
        <time>2018-01-07T11:35:53Z</time>
      </trkpt>
      <trkpt lat="43.20703" lon="5.42241">
        <ele>60.61</ele>
        <time>2018-01-07T11:36:07Z</time>
      </trkpt>
      <trkpt lat="43.20703" lon="5.42241">
        <ele>61.08</ele>
        <time>2018-01-07T11:36:22Z</time>
      </trkpt>
      <trkpt lat="43.20702" lon="5.42239">
        <ele>62.3</ele>
        <time>2018-01-07T11:36:37Z</time>
      </trkpt>
      <trkpt lat="43.20703" lon="5.42238">
        <ele>60.68</ele>
        <time>2018-01-07T11:37:01Z</time>
      </trkpt>
      <trkpt lat="43.20703" lon="5.42243">
        <ele>62.17</ele>
        <time>2018-01-07T11:37:23Z</time>
      </trkpt>
      <trkpt lat="43.20701" lon="5.42241">
        <ele>61.87</ele>
        <time>2018-01-07T11:38:34Z</time>
      </trkpt>
      <trkpt lat="43.20709" lon="5.42229">
        <ele>60.92</ele>
        <time>2018-01-07T11:39:08Z</time>
      </trkpt>
      <trkpt lat="43.20703" lon="5.42237">
        <ele>61.8</ele>
        <time>2018-01-07T11:39:40Z</time>
      </trkpt>
      <trkpt lat="43.20701" lon="5.42239">
        <ele>61.36</ele>
        <time>2018-01-07T11:40:02Z</time>
      </trkpt>
      <trkpt lat="43.207" lon="5.42239">
        <ele>59.31</ele>
        <time>2018-01-07T11:40:32Z</time>
      </trkpt>
      <trkpt lat="43.207" lon="5.42241">
        <ele>61.11</ele>
        <time>2018-01-07T11:41:02Z</time>
      </trkpt>
      <trkpt lat="43.20699" lon="5.4224">
        <ele>62.27</ele>
        <time>2018-01-07T11:41:16Z</time>
      </trkpt>
      <trkpt lat="43.20699" lon="5.42239">
        <ele>61.14</ele>
        <time>2018-01-07T11:41:31Z</time>
      </trkpt>
      <trkpt lat="43.20698" lon="5.42239">
        <ele>60.72</ele>
        <time>2018-01-07T11:41:47Z</time>
      </trkpt>
      <trkpt lat="43.20697" lon="5.42242">
        <ele>61.14</ele>
        <time>2018-01-07T11:41:50Z</time>
      </trkpt>
      <trkpt lat="43.20699" lon="5.42251">
        <ele>62.52</ele>
        <time>2018-01-07T11:42:03Z</time>
      </trkpt>
      <trkpt lat="43.20701" lon="5.4225">
        <ele>62.35</ele>
        <time>2018-01-07T11:42:30Z</time>
      </trkpt>
      <trkpt lat="43.207" lon="5.42255">
        <ele>62.35</ele>
        <time>2018-01-07T11:42:45Z</time>
      </trkpt>
      <trkpt lat="43.207" lon="5.42257">
        <ele>62.35</ele>
        <time>2018-01-07T11:42:46Z</time>
      </trkpt>
      <trkpt lat="43.20698" lon="5.4226">
        <ele>62.28</ele>
        <time>2018-01-07T11:42:48Z</time>
      </trkpt>
      <trkpt lat="43.20697" lon="5.42277">
        <ele>59.52</ele>
        <time>2018-01-07T11:42:59Z</time>
      </trkpt>
      <trkpt lat="43.20695" lon="5.42289">
        <ele>59.95</ele>
        <time>2018-01-07T11:43:12Z</time>
      </trkpt>
      <trkpt lat="43.20693" lon="5.42301">
        <ele>62.96</ele>
        <time>2018-01-07T11:43:26Z</time>
      </trkpt>
      <trkpt lat="43.2069" lon="5.42312">
        <ele>64.71</ele>
        <time>2018-01-07T11:43:39Z</time>
      </trkpt>
      <trkpt lat="43.2069" lon="5.42313">
        <ele>64.78</ele>
        <time>2018-01-07T11:43:40Z</time>
      </trkpt>
      <trkpt lat="43.2069" lon="5.42314">
        <ele>64.95</ele>
        <time>2018-01-07T11:43:41Z</time>
      </trkpt>
      <trkpt lat="43.2069" lon="5.42315">
        <ele>65.28</ele>
        <time>2018-01-07T11:43:42Z</time>
      </trkpt>
      <trkpt lat="43.2069" lon="5.42317">
        <ele>65.98</ele>
        <time>2018-01-07T11:43:43Z</time>
      </trkpt>
      <trkpt lat="43.2069" lon="5.42318">
        <ele>66.23</ele>
        <time>2018-01-07T11:43:44Z</time>
      </trkpt>
      <trkpt lat="43.2069" lon="5.4232">
        <ele>66.4</ele>
        <time>2018-01-07T11:43:45Z</time>
      </trkpt>
      <trkpt lat="43.20689" lon="5.42321">
        <ele>66.49</ele>
        <time>2018-01-07T11:43:46Z</time>
      </trkpt>
      <trkpt lat="43.20689" lon="5.42323">
        <ele>66.36</ele>
        <time>2018-01-07T11:43:47Z</time>
      </trkpt>
      <trkpt lat="43.20688" lon="5.42324">
        <ele>65.99</ele>
        <time>2018-01-07T11:43:48Z</time>
      </trkpt>
      <trkpt lat="43.20688" lon="5.42325">
        <ele>65.53</ele>
        <time>2018-01-07T11:43:49Z</time>
      </trkpt>
      <trkpt lat="43.20686" lon="5.42325">
        <ele>65.1</ele>
        <time>2018-01-07T11:43:50Z</time>
      </trkpt>
      <trkpt lat="43.20681" lon="5.42328">
        <ele>63.88</ele>
        <time>2018-01-07T11:43:56Z</time>
      </trkpt>
      <trkpt lat="43.2068" lon="5.4233">
        <ele>63.91</ele>
        <time>2018-01-07T11:43:57Z</time>
      </trkpt>
      <trkpt lat="43.20679" lon="5.42332">
        <ele>64</ele>
        <time>2018-01-07T11:43:58Z</time>
      </trkpt>
      <trkpt lat="43.20678" lon="5.42334">
        <ele>64.14</ele>
        <time>2018-01-07T11:43:59Z</time>
      </trkpt>
      <trkpt lat="43.20677" lon="5.42339">
        <ele>64.18</ele>
        <time>2018-01-07T11:44:02Z</time>
      </trkpt>
      <trkpt lat="43.20672" lon="5.42349">
        <ele>65.85</ele>
        <time>2018-01-07T11:44:15Z</time>
      </trkpt>
      <trkpt lat="43.20664" lon="5.42359">
        <ele>69.12</ele>
        <time>2018-01-07T11:44:30Z</time>
      </trkpt>
      <trkpt lat="43.2066" lon="5.42366">
        <ele>72.26</ele>
        <time>2018-01-07T11:44:40Z</time>
      </trkpt>
      <trkpt lat="43.20654" lon="5.42366">
        <ele>75.31</ele>
        <time>2018-01-07T11:44:55Z</time>
      </trkpt>
      <trkpt lat="43.20652" lon="5.42364">
        <ele>75.82</ele>
        <time>2018-01-07T11:44:58Z</time>
      </trkpt>
      <trkpt lat="43.20647" lon="5.42354">
        <ele>79.07</ele>
        <time>2018-01-07T11:45:16Z</time>
      </trkpt>
      <trkpt lat="43.20642" lon="5.42355">
        <ele>81.81</ele>
        <time>2018-01-07T11:45:35Z</time>
      </trkpt>
      <trkpt lat="43.20639" lon="5.42357">
        <ele>84.43</ele>
        <time>2018-01-07T11:45:44Z</time>
      </trkpt>
      <trkpt lat="43.20636" lon="5.42351">
        <ele>85.88</ele>
        <time>2018-01-07T11:46:00Z</time>
      </trkpt>
      <trkpt lat="43.20629" lon="5.42353">
        <ele>88.37</ele>
        <time>2018-01-07T11:46:20Z</time>
      </trkpt>
      <trkpt lat="43.20627" lon="5.42353">
        <ele>90.05</ele>
        <time>2018-01-07T11:46:34Z</time>
      </trkpt>
      <trkpt lat="43.20622" lon="5.42349">
        <ele>92.66</ele>
        <time>2018-01-07T11:46:50Z</time>
      </trkpt>
      <trkpt lat="43.20621" lon="5.42344">
        <ele>95.84</ele>
        <time>2018-01-07T11:47:05Z</time>
      </trkpt>
      <trkpt lat="43.20617" lon="5.42352">
        <ele>96.87</ele>
        <time>2018-01-07T11:47:21Z</time>
      </trkpt>
      <trkpt lat="43.20609" lon="5.42356">
        <ele>100.46</ele>
        <time>2018-01-07T11:47:35Z</time>
      </trkpt>
      <trkpt lat="43.20607" lon="5.42355">
        <ele>100.69</ele>
        <time>2018-01-07T11:47:36Z</time>
      </trkpt>
      <trkpt lat="43.20603" lon="5.42359">
        <ele>103.52</ele>
        <time>2018-01-07T11:47:52Z</time>
      </trkpt>
      <trkpt lat="43.20606" lon="5.42355">
        <ele>104.56</ele>
        <time>2018-01-07T11:48:09Z</time>
      </trkpt>
      <trkpt lat="43.20607" lon="5.42356">
        <ele>105.01</ele>
        <time>2018-01-07T11:48:29Z</time>
      </trkpt>
      <trkpt lat="43.20608" lon="5.42356">
        <ele>104.87</ele>
        <time>2018-01-07T11:48:52Z</time>
      </trkpt>
      <trkpt lat="43.20607" lon="5.42354">
        <ele>104.8</ele>
        <time>2018-01-07T11:49:15Z</time>
      </trkpt>
      <trkpt lat="43.20608" lon="5.42346">
        <ele>105.21</ele>
        <time>2018-01-07T11:49:31Z</time>
      </trkpt>
      <trkpt lat="43.20604" lon="5.42353">
        <ele>101.96</ele>
        <time>2018-01-07T11:49:44Z</time>
      </trkpt>
      <trkpt lat="43.20603" lon="5.42357">
        <ele>100.79</ele>
        <time>2018-01-07T11:50:01Z</time>
      </trkpt>
      <trkpt lat="43.20604" lon="5.42348">
        <ele>99.1</ele>
        <time>2018-01-07T11:50:19Z</time>
      </trkpt>
      <trkpt lat="43.20605" lon="5.42352">
        <ele>99.92</ele>
        <time>2018-01-07T11:50:47Z</time>
      </trkpt>
      <trkpt lat="43.20603" lon="5.42352">
        <ele>99.32</ele>
        <time>2018-01-07T11:51:54Z</time>
      </trkpt>
      <trkpt lat="43.20602" lon="5.42351">
        <ele>99.87</ele>
        <time>2018-01-07T11:52:10Z</time>
      </trkpt>
      <trkpt lat="43.20602" lon="5.42352">
        <ele>99.45</ele>
        <time>2018-01-07T11:52:26Z</time>
      </trkpt>
      <trkpt lat="43.20602" lon="5.42351">
        <ele>100.13</ele>
        <time>2018-01-07T11:52:42Z</time>
      </trkpt>
      <trkpt lat="43.20604" lon="5.4235">
        <ele>100.17</ele>
        <time>2018-01-07T11:53:01Z</time>
      </trkpt>
      <trkpt lat="43.20604" lon="5.4235">
        <ele>99.61</ele>
        <time>2018-01-07T11:53:18Z</time>
      </trkpt>
      <trkpt lat="43.20603" lon="5.4235">
        <ele>99.93</ele>
        <time>2018-01-07T11:53:36Z</time>
      </trkpt>
      <trkpt lat="43.20603" lon="5.4235">
        <ele>99.55</ele>
        <time>2018-01-07T11:53:51Z</time>
      </trkpt>
      <trkpt lat="43.20602" lon="5.4235">
        <ele>100.19</ele>
        <time>2018-01-07T11:54:09Z</time>
      </trkpt>
      <trkpt lat="43.20602" lon="5.4235">
        <ele>100.37</ele>
        <time>2018-01-07T11:54:26Z</time>
      </trkpt>
      <trkpt lat="43.20602" lon="5.4235">
        <ele>100.72</ele>
        <time>2018-01-07T11:54:42Z</time>
      </trkpt>
      <trkpt lat="43.20602" lon="5.42349">
        <ele>100.65</ele>
        <time>2018-01-07T11:54:59Z</time>
      </trkpt>
      <trkpt lat="43.20603" lon="5.42347">
        <ele>99.95</ele>
        <time>2018-01-07T11:55:15Z</time>
      </trkpt>
      <trkpt lat="43.20604" lon="5.42347">
        <ele>106.01</ele>
        <time>2018-01-07T11:55:30Z</time>
      </trkpt>
      <trkpt lat="43.20616" lon="5.42336">
        <ele>108.56</ele>
        <time>2018-01-07T12:32:14Z</time>
      </trkpt>
      <trkpt lat="43.20612" lon="5.42343">
        <ele>107.95</ele>
        <time>2018-01-07T12:32:35Z</time>
      </trkpt>
      <trkpt lat="43.20614" lon="5.42342">
        <ele>108.09</ele>
        <time>2018-01-07T12:32:50Z</time>
      </trkpt>
      <trkpt lat="43.20613" lon="5.42345">
        <ele>109.66</ele>
        <time>2018-01-07T12:33:04Z</time>
      </trkpt>
      <trkpt lat="43.20614" lon="5.42344">
        <ele>109.65</ele>
        <time>2018-01-07T12:33:33Z</time>
      </trkpt>
      <trkpt lat="43.20617" lon="5.42336">
        <ele>107.49</ele>
        <time>2018-01-07T12:33:46Z</time>
      </trkpt>
      <trkpt lat="43.20621" lon="5.4234">
        <ele>105.89</ele>
        <time>2018-01-07T12:33:59Z</time>
      </trkpt>
      <trkpt lat="43.20623" lon="5.42337">
        <ele>102.73</ele>
        <time>2018-01-07T12:34:06Z</time>
      </trkpt>
      <trkpt lat="43.20628" lon="5.42336">
        <ele>99.69</ele>
        <time>2018-01-07T12:34:18Z</time>
      </trkpt>
      <trkpt lat="43.20631" lon="5.42327">
        <ele>96.78</ele>
        <time>2018-01-07T12:34:32Z</time>
      </trkpt>
      <trkpt lat="43.20634" lon="5.42326">
        <ele>94.05</ele>
        <time>2018-01-07T12:34:48Z</time>
      </trkpt>
      <trkpt lat="43.20639" lon="5.42317">
        <ele>91.61</ele>
        <time>2018-01-07T12:35:02Z</time>
      </trkpt>
      <trkpt lat="43.20646" lon="5.42312">
        <ele>89.37</ele>
        <time>2018-01-07T12:35:15Z</time>
      </trkpt>
      <trkpt lat="43.20647" lon="5.42311">
        <ele>89.08</ele>
        <time>2018-01-07T12:35:16Z</time>
      </trkpt>
      <trkpt lat="43.20648" lon="5.4231">
        <ele>88.79</ele>
        <time>2018-01-07T12:35:17Z</time>
      </trkpt>
      <trkpt lat="43.20657" lon="5.42298">
        <ele>86.33</ele>
        <time>2018-01-07T12:35:30Z</time>
      </trkpt>
      <trkpt lat="43.20667" lon="5.42286">
        <ele>84.88</ele>
        <time>2018-01-07T12:35:45Z</time>
      </trkpt>
      <trkpt lat="43.20674" lon="5.42273">
        <ele>82.01</ele>
        <time>2018-01-07T12:36:02Z</time>
      </trkpt>
      <trkpt lat="43.20679" lon="5.42264">
        <ele>78.88</ele>
        <time>2018-01-07T12:36:17Z</time>
      </trkpt>
      <trkpt lat="43.2068" lon="5.42257">
        <ele>76.57</ele>
        <time>2018-01-07T12:36:33Z</time>
      </trkpt>
      <trkpt lat="43.20683" lon="5.42249">
        <ele>76.25</ele>
        <time>2018-01-07T12:36:49Z</time>
      </trkpt>
      <trkpt lat="43.20687" lon="5.42243">
        <ele>73.11</ele>
        <time>2018-01-07T12:37:00Z</time>
      </trkpt>
      <trkpt lat="43.20686" lon="5.42242">
        <ele>70.06</ele>
        <time>2018-01-07T12:37:11Z</time>
      </trkpt>
      <trkpt lat="43.20693" lon="5.42237">
        <ele>69.12</ele>
        <time>2018-01-07T12:37:29Z</time>
      </trkpt>
      <trkpt lat="43.20698" lon="5.42242">
        <ele>65.99</ele>
        <time>2018-01-07T12:37:44Z</time>
      </trkpt>
      <trkpt lat="43.207" lon="5.42236">
        <ele>64.4</ele>
        <time>2018-01-07T12:38:03Z</time>
      </trkpt>
      <trkpt lat="43.20704" lon="5.42241">
        <ele>62.05</ele>
        <time>2018-01-07T12:38:15Z</time>
      </trkpt>
      <trkpt lat="43.20707" lon="5.42241">
        <ele>62.97</ele>
        <time>2018-01-07T12:38:39Z</time>
      </trkpt>
      <trkpt lat="43.20706" lon="5.42241">
        <ele>60.94</ele>
        <time>2018-01-07T12:38:57Z</time>
      </trkpt>
      <trkpt lat="43.20708" lon="5.42239">
        <ele>61.09</ele>
        <time>2018-01-07T12:39:50Z</time>
      </trkpt>
      <trkpt lat="43.2071" lon="5.42237">
        <ele>61.12</ele>
        <time>2018-01-07T12:40:40Z</time>
      </trkpt>
      <trkpt lat="43.20712" lon="5.42236">
        <ele>61.25</ele>
        <time>2018-01-07T12:41:34Z</time>
      </trkpt>
      <trkpt lat="43.20712" lon="5.42235">
        <ele>60.21</ele>
        <time>2018-01-07T12:42:34Z</time>
      </trkpt>
      <trkpt lat="43.20712" lon="5.42237">
        <ele>63.23</ele>
        <time>2018-01-07T12:42:52Z</time>
      </trkpt>
      <trkpt lat="43.20711" lon="5.42237">
        <ele>61.61</ele>
        <time>2018-01-07T12:43:45Z</time>
      </trkpt>
      <trkpt lat="43.20712" lon="5.42237">
        <ele>60.77</ele>
        <time>2018-01-07T12:44:32Z</time>
      </trkpt>
      <trkpt lat="43.20713" lon="5.42235">
        <ele>62.02</ele>
        <time>2018-01-07T12:45:28Z</time>
      </trkpt>
      <trkpt lat="43.20712" lon="5.42236">
        <ele>61.64</ele>
        <time>2018-01-07T12:46:20Z</time>
      </trkpt>
      <trkpt lat="43.20711" lon="5.42236">
        <ele>61.32</ele>
        <time>2018-01-07T12:47:07Z</time>
      </trkpt>
      <trkpt lat="43.20712" lon="5.42234">
        <ele>62.6</ele>
        <time>2018-01-07T12:47:52Z</time>
      </trkpt>
      <trkpt lat="43.20711" lon="5.42234">
        <ele>62.16</ele>
        <time>2018-01-07T12:48:40Z</time>
      </trkpt>
      <trkpt lat="43.20712" lon="5.42236">
        <ele>63.09</ele>
        <time>2018-01-07T12:49:21Z</time>
      </trkpt>
      <trkpt lat="43.2071" lon="5.42236">
        <ele>60.08</ele>
        <time>2018-01-07T12:50:01Z</time>
      </trkpt>
      <trkpt lat="43.20703" lon="5.42233">
        <ele>60.47</ele>
        <time>2018-01-07T12:50:54Z</time>
      </trkpt>
      <trkpt lat="43.20696" lon="5.42232">
        <ele>61.3</ele>
        <time>2018-01-07T12:51:49Z</time>
      </trkpt>
      <trkpt lat="43.20694" lon="5.42234">
        <ele>62.34</ele>
        <time>2018-01-07T12:52:36Z</time>
      </trkpt>
      <trkpt lat="43.20693" lon="5.42234">
        <ele>61.27</ele>
        <time>2018-01-07T12:53:20Z</time>
      </trkpt>
      <trkpt lat="43.20693" lon="5.42234">
        <ele>58.12</ele>
        <time>2018-01-07T12:53:48Z</time>
      </trkpt>
      <trkpt lat="43.20694" lon="5.42233">
        <ele>61.16</ele>
        <time>2018-01-07T12:54:10Z</time>
      </trkpt>
      <trkpt lat="43.20695" lon="5.42233">
        <ele>62.19</ele>
        <time>2018-01-07T12:54:58Z</time>
      </trkpt>
      <trkpt lat="43.20699" lon="5.42235">
        <ele>61.23</ele>
        <time>2018-01-07T12:55:44Z</time>
      </trkpt>
      <trkpt lat="43.20697" lon="5.42233">
        <ele>60.64</ele>
        <time>2018-01-07T12:56:28Z</time>
      </trkpt>
      <trkpt lat="43.20699" lon="5.42234">
        <ele>60.09</ele>
        <time>2018-01-07T12:57:21Z</time>
      </trkpt>
      <trkpt lat="43.20702" lon="5.42237">
        <ele>60.06</ele>
        <time>2018-01-07T12:58:23Z</time>
      </trkpt>
      <trkpt lat="43.20701" lon="5.42237">
        <ele>61.92</ele>
        <time>2018-01-07T12:59:09Z</time>
      </trkpt>
      <trkpt lat="43.20703" lon="5.42238">
        <ele>60.43</ele>
        <time>2018-01-07T12:59:59Z</time>
      </trkpt>
      <trkpt lat="43.20699" lon="5.42238">
        <ele>62.41</ele>
        <time>2018-01-07T13:00:38Z</time>
      </trkpt>
      <trkpt lat="43.20701" lon="5.42238">
        <ele>59.16</ele>
        <time>2018-01-07T13:01:10Z</time>
      </trkpt>
      <trkpt lat="43.20703" lon="5.42237">
        <ele>61.23</ele>
        <time>2018-01-07T13:01:28Z</time>
      </trkpt>
      <trkpt lat="43.20707" lon="5.42238">
        <ele>58.96</ele>
        <time>2018-01-07T13:01:54Z</time>
      </trkpt>
      <trkpt lat="43.20713" lon="5.42236">
        <ele>59.34</ele>
        <time>2018-01-07T13:02:02Z</time>
      </trkpt>
      <trkpt lat="43.20718" lon="5.42232">
        <ele>59.7</ele>
        <time>2018-01-07T13:02:07Z</time>
      </trkpt>
      <trkpt lat="43.20731" lon="5.42229">
        <ele>60.52</ele>
        <time>2018-01-07T13:02:19Z</time>
      </trkpt>
      <trkpt lat="43.20739" lon="5.42222">
        <ele>61.15</ele>
        <time>2018-01-07T13:02:35Z</time>
      </trkpt>
      <trkpt lat="43.20751" lon="5.4221">
        <ele>61.72</ele>
        <time>2018-01-07T13:02:54Z</time>
      </trkpt>
      <trkpt lat="43.20758" lon="5.42204">
        <ele>62.9</ele>
        <time>2018-01-07T13:03:05Z</time>
      </trkpt>
      <trkpt lat="43.20766" lon="5.42193">
        <ele>62.76</ele>
        <time>2018-01-07T13:03:18Z</time>
      </trkpt>
      <trkpt lat="43.20767" lon="5.42192">
        <ele>63.1</ele>
        <time>2018-01-07T13:03:20Z</time>
      </trkpt>
      <trkpt lat="43.20774" lon="5.42179">
        <ele>61.37</ele>
        <time>2018-01-07T13:03:35Z</time>
      </trkpt>
      <trkpt lat="43.20778" lon="5.42171">
        <ele>58.35</ele>
        <time>2018-01-07T13:03:46Z</time>
      </trkpt>
      <trkpt lat="43.20782" lon="5.42163">
        <ele>55.14</ele>
        <time>2018-01-07T13:03:59Z</time>
      </trkpt>
      <trkpt lat="43.20783" lon="5.42152">
        <ele>51.99</ele>
        <time>2018-01-07T13:04:14Z</time>
      </trkpt>
      <trkpt lat="43.20785" lon="5.42143">
        <ele>48.63</ele>
        <time>2018-01-07T13:04:26Z</time>
      </trkpt>
      <trkpt lat="43.20791" lon="5.42138">
        <ele>45.06</ele>
        <time>2018-01-07T13:04:38Z</time>
      </trkpt>
      <trkpt lat="43.20797" lon="5.42141">
        <ele>42</ele>
        <time>2018-01-07T13:04:48Z</time>
      </trkpt>
      <trkpt lat="43.20802" lon="5.42144">
        <ele>41.82</ele>
        <time>2018-01-07T13:05:01Z</time>
      </trkpt>
      <trkpt lat="43.20808" lon="5.42142">
        <ele>40.88</ele>
        <time>2018-01-07T13:05:08Z</time>
      </trkpt>
      <trkpt lat="43.20816" lon="5.42137">
        <ele>37.56</ele>
        <time>2018-01-07T13:05:18Z</time>
      </trkpt>
      <trkpt lat="43.20828" lon="5.42126">
        <ele>36.27</ele>
        <time>2018-01-07T13:05:37Z</time>
      </trkpt>
      <trkpt lat="43.20834" lon="5.42122">
        <ele>37.08</ele>
        <time>2018-01-07T13:06:01Z</time>
      </trkpt>
      <trkpt lat="43.2084" lon="5.42117">
        <ele>36.24</ele>
        <time>2018-01-07T13:06:20Z</time>
      </trkpt>
      <trkpt lat="43.20843" lon="5.42115">
        <ele>36.54</ele>
        <time>2018-01-07T13:06:42Z</time>
      </trkpt>
      <trkpt lat="43.20848" lon="5.42114">
        <ele>35.96</ele>
        <time>2018-01-07T13:07:04Z</time>
      </trkpt>
      <trkpt lat="43.20853" lon="5.4211">
        <ele>38.98</ele>
        <time>2018-01-07T13:07:18Z</time>
      </trkpt>
      <trkpt lat="43.20848" lon="5.4211">
        <ele>37.86</ele>
        <time>2018-01-07T13:07:33Z</time>
      </trkpt>
      <trkpt lat="43.20848" lon="5.4211">
        <ele>37.56</ele>
        <time>2018-01-07T13:07:34Z</time>
      </trkpt>
      <trkpt lat="43.20855" lon="5.42107">
        <ele>39.03</ele>
        <time>2018-01-07T13:07:52Z</time>
      </trkpt>
      <trkpt lat="43.20861" lon="5.42093">
        <ele>38.97</ele>
        <time>2018-01-07T13:08:09Z</time>
      </trkpt>
      <trkpt lat="43.20866" lon="5.42083">
        <ele>37.21</ele>
        <time>2018-01-07T13:08:24Z</time>
      </trkpt>
      <trkpt lat="43.20871" lon="5.42072">
        <ele>39.71</ele>
        <time>2018-01-07T13:08:40Z</time>
      </trkpt>
      <trkpt lat="43.20879" lon="5.42068">
        <ele>40.11</ele>
        <time>2018-01-07T13:08:57Z</time>
      </trkpt>
      <trkpt lat="43.20878" lon="5.42061">
        <ele>41.51</ele>
        <time>2018-01-07T13:09:15Z</time>
      </trkpt>
      <trkpt lat="43.2088" lon="5.42056">
        <ele>41.5</ele>
        <time>2018-01-07T13:09:35Z</time>
      </trkpt>
      <trkpt lat="43.20886" lon="5.42054">
        <ele>39.2</ele>
        <time>2018-01-07T13:09:52Z</time>
      </trkpt>
      <trkpt lat="43.20892" lon="5.42052">
        <ele>36.63</ele>
        <time>2018-01-07T13:10:06Z</time>
      </trkpt>
      <trkpt lat="43.20898" lon="5.42037">
        <ele>33.76</ele>
        <time>2018-01-07T13:10:19Z</time>
      </trkpt>
      <trkpt lat="43.20906" lon="5.42024">
        <ele>30.74</ele>
        <time>2018-01-07T13:10:32Z</time>
      </trkpt>
      <trkpt lat="43.20914" lon="5.42018">
        <ele>32.18</ele>
        <time>2018-01-07T13:10:48Z</time>
      </trkpt>
      <trkpt lat="43.20923" lon="5.42003">
        <ele>33.04</ele>
        <time>2018-01-07T13:11:06Z</time>
      </trkpt>
      <trkpt lat="43.20928" lon="5.41987">
        <ele>34.69</ele>
        <time>2018-01-07T13:11:23Z</time>
      </trkpt>
      <trkpt lat="43.20939" lon="5.4198">
        <ele>34.47</ele>
        <time>2018-01-07T13:11:37Z</time>
      </trkpt>
      <trkpt lat="43.20943" lon="5.41965">
        <ele>31.71</ele>
        <time>2018-01-07T13:11:52Z</time>
      </trkpt>
      <trkpt lat="43.20944" lon="5.41956">
        <ele>29.07</ele>
        <time>2018-01-07T13:12:06Z</time>
      </trkpt>
      <trkpt lat="43.2095" lon="5.4195">
        <ele>27.64</ele>
        <time>2018-01-07T13:12:21Z</time>
      </trkpt>
      <trkpt lat="43.20958" lon="5.41948">
        <ele>24.35</ele>
        <time>2018-01-07T13:12:33Z</time>
      </trkpt>
      <trkpt lat="43.20963" lon="5.41955">
        <ele>22.3</ele>
        <time>2018-01-07T13:12:46Z</time>
      </trkpt>
      <trkpt lat="43.20965" lon="5.41962">
        <ele>20.86</ele>
        <time>2018-01-07T13:13:00Z</time>
      </trkpt>
      <trkpt lat="43.20971" lon="5.41969">
        <ele>18.65</ele>
        <time>2018-01-07T13:13:16Z</time>
      </trkpt>
      <trkpt lat="43.20977" lon="5.41968">
        <ele>15.61</ele>
        <time>2018-01-07T13:13:33Z</time>
      </trkpt>
      <trkpt lat="43.20977" lon="5.41966">
        <ele>14.2</ele>
        <time>2018-01-07T13:13:53Z</time>
      </trkpt>
      <trkpt lat="43.20983" lon="5.41971">
        <ele>14.18</ele>
        <time>2018-01-07T13:14:23Z</time>
      </trkpt>
      <trkpt lat="43.2099" lon="5.41972">
        <ele>11.22</ele>
        <time>2018-01-07T13:14:39Z</time>
      </trkpt>
      <trkpt lat="43.20993" lon="5.41981">
        <ele>8.1</ele>
        <time>2018-01-07T13:14:53Z</time>
      </trkpt>
      <trkpt lat="43.21" lon="5.41984">
        <ele>6.91</ele>
        <time>2018-01-07T13:15:02Z</time>
      </trkpt>
      <trkpt lat="43.21006" lon="5.41986">
        <ele>6.57</ele>
        <time>2018-01-07T13:15:06Z</time>
      </trkpt>
      <trkpt lat="43.21012" lon="5.41991">
        <ele>6</ele>
        <time>2018-01-07T13:15:21Z</time>
      </trkpt>
      <trkpt lat="43.21014" lon="5.41993">
        <ele>4.74</ele>
        <time>2018-01-07T13:15:30Z</time>
      </trkpt>
      <trkpt lat="43.21021" lon="5.42002">
        <ele>5.69</ele>
        <time>2018-01-07T13:15:46Z</time>
      </trkpt>
      <trkpt lat="43.21024" lon="5.41999">
        <ele>4.68</ele>
        <time>2018-01-07T13:16:11Z</time>
      </trkpt>
      <trkpt lat="43.21027" lon="5.41998">
        <ele>4.28</ele>
        <time>2018-01-07T13:16:37Z</time>
      </trkpt>
      <trkpt lat="43.21031" lon="5.42004">
        <ele>5.43</ele>
        <time>2018-01-07T13:16:54Z</time>
      </trkpt>
      <trkpt lat="43.21035" lon="5.42001">
        <ele>7.08</ele>
        <time>2018-01-07T13:17:08Z</time>
      </trkpt>
      <trkpt lat="43.21043" lon="5.4199">
        <ele>8.58</ele>
        <time>2018-01-07T13:17:35Z</time>
      </trkpt>
      <trkpt lat="43.21059" lon="5.41995">
        <ele>11.46</ele>
        <time>2018-01-07T13:17:54Z</time>
      </trkpt>
      <trkpt lat="43.21066" lon="5.41997">
        <ele>11.96</ele>
        <time>2018-01-07T13:18:00Z</time>
      </trkpt>
      <trkpt lat="43.21071" lon="5.41997">
        <ele>12.35</ele>
        <time>2018-01-07T13:18:04Z</time>
      </trkpt>
      <trkpt lat="43.21076" lon="5.42">
        <ele>12.65</ele>
        <time>2018-01-07T13:18:09Z</time>
      </trkpt>
      <trkpt lat="43.21091" lon="5.4201">
        <ele>13.03</ele>
        <time>2018-01-07T13:18:24Z</time>
      </trkpt>
      <trkpt lat="43.21102" lon="5.42017">
        <ele>13.94</ele>
        <time>2018-01-07T13:18:37Z</time>
      </trkpt>
      <trkpt lat="43.21109" lon="5.4203">
        <ele>14.63</ele>
        <time>2018-01-07T13:18:54Z</time>
      </trkpt>
      <trkpt lat="43.21109" lon="5.42033">
        <ele>14.68</ele>
        <time>2018-01-07T13:18:56Z</time>
      </trkpt>
      <trkpt lat="43.21107" lon="5.42044">
        <ele>14.63</ele>
        <time>2018-01-07T13:19:08Z</time>
      </trkpt>
      <trkpt lat="43.21103" lon="5.42065">
        <ele>14.49</ele>
        <time>2018-01-07T13:19:25Z</time>
      </trkpt>
      <trkpt lat="43.21102" lon="5.42067">
        <ele>14.48</ele>
        <time>2018-01-07T13:19:27Z</time>
      </trkpt>
      <trkpt lat="43.21102" lon="5.42073">
        <ele>14.32</ele>
        <time>2018-01-07T13:19:31Z</time>
      </trkpt>
      <trkpt lat="43.21096" lon="5.42095">
        <ele>12.72</ele>
        <time>2018-01-07T13:19:50Z</time>
      </trkpt>
      <trkpt lat="43.21091" lon="5.42115">
        <ele>12.14</ele>
        <time>2018-01-07T13:20:05Z</time>
      </trkpt>
      <trkpt lat="43.21087" lon="5.42136">
        <ele>11.91</ele>
        <time>2018-01-07T13:20:20Z</time>
      </trkpt>
      <trkpt lat="43.21087" lon="5.42138">
        <ele>11.93</ele>
        <time>2018-01-07T13:20:21Z</time>
      </trkpt>
      <trkpt lat="43.21085" lon="5.42157">
        <ele>12.29</ele>
        <time>2018-01-07T13:20:35Z</time>
      </trkpt>
      <trkpt lat="43.21085" lon="5.42159">
        <ele>12.29</ele>
        <time>2018-01-07T13:20:36Z</time>
      </trkpt>
      <trkpt lat="43.21086" lon="5.42181">
        <ele>12.18</ele>
        <time>2018-01-07T13:20:50Z</time>
      </trkpt>
      <trkpt lat="43.21084" lon="5.42204">
        <ele>9.92</ele>
        <time>2018-01-07T13:21:06Z</time>
      </trkpt>
      <trkpt lat="43.21085" lon="5.42216">
        <ele>8.98</ele>
        <time>2018-01-07T13:21:14Z</time>
      </trkpt>
      <trkpt lat="43.21087" lon="5.42225">
        <ele>9.05</ele>
        <time>2018-01-07T13:21:21Z</time>
      </trkpt>
      <trkpt lat="43.21089" lon="5.42235">
        <ele>9.21</ele>
        <time>2018-01-07T13:21:28Z</time>
      </trkpt>
      <trkpt lat="43.21098" lon="5.42244">
        <ele>9.38</ele>
        <time>2018-01-07T13:21:38Z</time>
      </trkpt>
      <trkpt lat="43.21114" lon="5.42258">
        <ele>7.64</ele>
        <time>2018-01-07T13:21:53Z</time>
      </trkpt>
      <trkpt lat="43.2113" lon="5.42262">
        <ele>7.63</ele>
        <time>2018-01-07T13:22:10Z</time>
      </trkpt>
      <trkpt lat="43.21144" lon="5.42266">
        <ele>8.78</ele>
        <time>2018-01-07T13:22:23Z</time>
      </trkpt>
      <trkpt lat="43.21156" lon="5.42278">
        <ele>10.08</ele>
        <time>2018-01-07T13:22:38Z</time>
      </trkpt>
      <trkpt lat="43.21161" lon="5.42287">
        <ele>9.45</ele>
        <time>2018-01-07T13:22:48Z</time>
      </trkpt>
      <trkpt lat="43.2117" lon="5.42302">
        <ele>7.52</ele>
        <time>2018-01-07T13:23:00Z</time>
      </trkpt>
      <trkpt lat="43.21172" lon="5.42306">
        <ele>7</ele>
        <time>2018-01-07T13:23:03Z</time>
      </trkpt>
      <trkpt lat="43.21173" lon="5.4231">
        <ele>6.24</ele>
        <time>2018-01-07T13:23:06Z</time>
      </trkpt>
      <trkpt lat="43.21175" lon="5.42329">
        <ele>5.95</ele>
        <time>2018-01-07T13:23:21Z</time>
      </trkpt>
      <trkpt lat="43.21168" lon="5.42334">
        <ele>7.13</ele>
        <time>2018-01-07T13:23:42Z</time>
      </trkpt>
      <trkpt lat="43.21166" lon="5.42332">
        <ele>5.44</ele>
        <time>2018-01-07T13:24:18Z</time>
      </trkpt>
      <trkpt lat="43.21166" lon="5.42336">
        <ele>4.83</ele>
        <time>2018-01-07T13:24:44Z</time>
      </trkpt>
      <trkpt lat="43.21161" lon="5.42331">
        <ele>6.58</ele>
        <time>2018-01-07T13:25:14Z</time>
      </trkpt>
      <trkpt lat="43.21165" lon="5.42335">
        <ele>5.79</ele>
        <time>2018-01-07T13:25:41Z</time>
      </trkpt>
      <trkpt lat="43.21165" lon="5.42333">
        <ele>5</ele>
        <time>2018-01-07T13:26:08Z</time>
      </trkpt>
      <trkpt lat="43.21165" lon="5.4233">
        <ele>6.2</ele>
        <time>2018-01-07T13:26:46Z</time>
      </trkpt>
      <trkpt lat="43.21164" lon="5.4233">
        <ele>5.78</ele>
        <time>2018-01-07T13:27:14Z</time>
      </trkpt>
      <trkpt lat="43.21162" lon="5.42332">
        <ele>4.11</ele>
        <time>2018-01-07T13:27:41Z</time>
      </trkpt>
      <trkpt lat="43.21161" lon="5.42332">
        <ele>4.02</ele>
        <time>2018-01-07T13:28:08Z</time>
      </trkpt>
      <trkpt lat="43.21165" lon="5.42336">
        <ele>4.98</ele>
        <time>2018-01-07T13:28:29Z</time>
      </trkpt>
      <trkpt lat="43.21165" lon="5.42338">
        <ele>4.12</ele>
        <time>2018-01-07T13:29:09Z</time>
      </trkpt>
      <trkpt lat="43.21165" lon="5.42338">
        <ele>4.02</ele>
        <time>2018-01-07T13:29:31Z</time>
      </trkpt>
      <trkpt lat="43.21166" lon="5.42339">
        <ele>3.96</ele>
        <time>2018-01-07T13:29:53Z</time>
      </trkpt>
      <trkpt lat="43.21167" lon="5.42339">
        <ele>3.3</ele>
        <time>2018-01-07T13:30:20Z</time>
      </trkpt>
      <trkpt lat="43.21163" lon="5.42339">
        <ele>4.43</ele>
        <time>2018-01-07T13:30:43Z</time>
      </trkpt>
      <trkpt lat="43.2116" lon="5.42334">
        <ele>5.15</ele>
        <time>2018-01-07T13:31:01Z</time>
      </trkpt>
      <trkpt lat="43.21158" lon="5.42336">
        <ele>4.08</ele>
        <time>2018-01-07T13:31:26Z</time>
      </trkpt>
      <trkpt lat="43.21149" lon="5.42342">
        <ele>2.87</ele>
        <time>2018-01-07T13:31:43Z</time>
      </trkpt>
      <trkpt lat="43.21141" lon="5.42351">
        <ele>5.54</ele>
        <time>2018-01-07T13:31:59Z</time>
      </trkpt>
      <trkpt lat="43.21133" lon="5.42363">
        <ele>7.31</ele>
        <time>2018-01-07T13:32:15Z</time>
      </trkpt>
      <trkpt lat="43.21133" lon="5.42378">
        <ele>4.15</ele>
        <time>2018-01-07T13:32:29Z</time>
      </trkpt>
      <trkpt lat="43.21125" lon="5.42389">
        <ele>6.8</ele>
        <time>2018-01-07T13:32:46Z</time>
      </trkpt>
      <trkpt lat="43.21115" lon="5.424">
        <ele>8.64</ele>
        <time>2018-01-07T13:33:05Z</time>
      </trkpt>
      <trkpt lat="43.21105" lon="5.4241">
        <ele>11.43</ele>
        <time>2018-01-07T13:33:25Z</time>
      </trkpt>
      <trkpt lat="43.21092" lon="5.42418">
        <ele>10.56</ele>
        <time>2018-01-07T13:33:42Z</time>
      </trkpt>
      <trkpt lat="43.2108" lon="5.42424">
        <ele>11.71</ele>
        <time>2018-01-07T13:33:58Z</time>
      </trkpt>
      <trkpt lat="43.21067" lon="5.42431">
        <ele>11.86</ele>
        <time>2018-01-07T13:34:16Z</time>
      </trkpt>
      <trkpt lat="43.21061" lon="5.42443">
        <ele>14.59</ele>
        <time>2018-01-07T13:34:40Z</time>
      </trkpt>
      <trkpt lat="43.21057" lon="5.42453">
        <ele>17.42</ele>
        <time>2018-01-07T13:35:04Z</time>
      </trkpt>
      <trkpt lat="43.21056" lon="5.42462">
        <ele>19.63</ele>
        <time>2018-01-07T13:35:23Z</time>
      </trkpt>
      <trkpt lat="43.21061" lon="5.42466">
        <ele>21.74</ele>
        <time>2018-01-07T13:35:42Z</time>
      </trkpt>
      <trkpt lat="43.21066" lon="5.42468">
        <ele>24.37</ele>
        <time>2018-01-07T13:36:02Z</time>
      </trkpt>
      <trkpt lat="43.21068" lon="5.42468">
        <ele>25.17</ele>
        <time>2018-01-07T13:36:23Z</time>
      </trkpt>
      <trkpt lat="43.21068" lon="5.42469">
        <ele>25.38</ele>
        <time>2018-01-07T13:37:00Z</time>
      </trkpt>
      <trkpt lat="43.21075" lon="5.42474">
        <ele>27.2</ele>
        <time>2018-01-07T13:37:17Z</time>
      </trkpt>
      <trkpt lat="43.21084" lon="5.42482">
        <ele>29.77</ele>
        <time>2018-01-07T13:37:37Z</time>
      </trkpt>
      <trkpt lat="43.2108" lon="5.42485">
        <ele>31.27</ele>
        <time>2018-01-07T13:37:53Z</time>
      </trkpt>
      <trkpt lat="43.21077" lon="5.42492">
        <ele>32.56</ele>
        <time>2018-01-07T13:38:08Z</time>
      </trkpt>
      <trkpt lat="43.21077" lon="5.42495">
        <ele>33.73</ele>
        <time>2018-01-07T13:38:26Z</time>
      </trkpt>
      <trkpt lat="43.21078" lon="5.42503">
        <ele>34.87</ele>
        <time>2018-01-07T13:38:39Z</time>
      </trkpt>
      <trkpt lat="43.21083" lon="5.42511">
        <ele>37.18</ele>
        <time>2018-01-07T13:38:55Z</time>
      </trkpt>
      <trkpt lat="43.21089" lon="5.42522">
        <ele>40.18</ele>
        <time>2018-01-07T13:39:14Z</time>
      </trkpt>
      <trkpt lat="43.21092" lon="5.42525">
        <ele>43.43</ele>
        <time>2018-01-07T13:39:22Z</time>
      </trkpt>
      <trkpt lat="43.211" lon="5.42527">
        <ele>44.3</ele>
        <time>2018-01-07T13:39:42Z</time>
      </trkpt>
      <trkpt lat="43.21106" lon="5.42532">
        <ele>45.14</ele>
        <time>2018-01-07T13:39:59Z</time>
      </trkpt>
      <trkpt lat="43.21112" lon="5.42532">
        <ele>48.15</ele>
        <time>2018-01-07T13:40:13Z</time>
      </trkpt>
      <trkpt lat="43.21116" lon="5.4254">
        <ele>50.74</ele>
        <time>2018-01-07T13:40:32Z</time>
      </trkpt>
      <trkpt lat="43.21121" lon="5.42552">
        <ele>50.36</ele>
        <time>2018-01-07T13:40:50Z</time>
      </trkpt>
      <trkpt lat="43.21123" lon="5.42562">
        <ele>52.97</ele>
        <time>2018-01-07T13:41:11Z</time>
      </trkpt>
      <trkpt lat="43.21126" lon="5.42572">
        <ele>56.07</ele>
        <time>2018-01-07T13:41:33Z</time>
      </trkpt>
      <trkpt lat="43.21127" lon="5.42578">
        <ele>58.69</ele>
        <time>2018-01-07T13:41:52Z</time>
      </trkpt>
      <trkpt lat="43.21129" lon="5.42588">
        <ele>61.28</ele>
        <time>2018-01-07T13:42:15Z</time>
      </trkpt>
      <trkpt lat="43.21136" lon="5.42592">
        <ele>63.76</ele>
        <time>2018-01-07T13:42:33Z</time>
      </trkpt>
      <trkpt lat="43.21137" lon="5.42594">
        <ele>65.19</ele>
        <time>2018-01-07T13:42:37Z</time>
      </trkpt>
      <trkpt lat="43.21138" lon="5.42598">
        <ele>68.44</ele>
        <time>2018-01-07T13:42:51Z</time>
      </trkpt>
      <trkpt lat="43.21145" lon="5.42601">
        <ele>71.43</ele>
        <time>2018-01-07T13:43:10Z</time>
      </trkpt>
      <trkpt lat="43.21149" lon="5.42605">
        <ele>70.77</ele>
        <time>2018-01-07T13:43:27Z</time>
      </trkpt>
      <trkpt lat="43.21152" lon="5.42611">
        <ele>72.84</ele>
        <time>2018-01-07T13:43:45Z</time>
      </trkpt>
      <trkpt lat="43.21156" lon="5.42616">
        <ele>75.3</ele>
        <time>2018-01-07T13:44:04Z</time>
      </trkpt>
      <trkpt lat="43.21161" lon="5.42619">
        <ele>77.71</ele>
        <time>2018-01-07T13:44:24Z</time>
      </trkpt>
      <trkpt lat="43.21164" lon="5.42622">
        <ele>79.36</ele>
        <time>2018-01-07T13:44:39Z</time>
      </trkpt>
      <trkpt lat="43.21169" lon="5.42627">
        <ele>81.14</ele>
        <time>2018-01-07T13:44:56Z</time>
      </trkpt>
      <trkpt lat="43.21172" lon="5.42631">
        <ele>82.82</ele>
        <time>2018-01-07T13:45:14Z</time>
      </trkpt>
      <trkpt lat="43.21168" lon="5.42637">
        <ele>85.54</ele>
        <time>2018-01-07T13:45:35Z</time>
      </trkpt>
      <trkpt lat="43.21173" lon="5.42639">
        <ele>86.98</ele>
        <time>2018-01-07T13:45:53Z</time>
      </trkpt>
      <trkpt lat="43.21181" lon="5.42642">
        <ele>89.88</ele>
        <time>2018-01-07T13:46:12Z</time>
      </trkpt>
      <trkpt lat="43.21194" lon="5.42639">
        <ele>91.44</ele>
        <time>2018-01-07T13:46:28Z</time>
      </trkpt>
      <trkpt lat="43.21202" lon="5.42641">
        <ele>93.65</ele>
        <time>2018-01-07T13:46:47Z</time>
      </trkpt>
      <trkpt lat="43.21202" lon="5.42645">
        <ele>95.61</ele>
        <time>2018-01-07T13:47:01Z</time>
      </trkpt>
      <trkpt lat="43.21197" lon="5.42652">
        <ele>97.56</ele>
        <time>2018-01-07T13:47:22Z</time>
      </trkpt>
      <trkpt lat="43.21191" lon="5.42658">
        <ele>98.13</ele>
        <time>2018-01-07T13:47:42Z</time>
      </trkpt>
      <trkpt lat="43.21191" lon="5.42662">
        <ele>100</ele>
        <time>2018-01-07T13:48:00Z</time>
      </trkpt>
      <trkpt lat="43.21199" lon="5.42663">
        <ele>102.7</ele>
        <time>2018-01-07T13:48:18Z</time>
      </trkpt>
      <trkpt lat="43.21198" lon="5.4267">
        <ele>104.7</ele>
        <time>2018-01-07T13:48:38Z</time>
      </trkpt>
      <trkpt lat="43.21202" lon="5.42672">
        <ele>106.24</ele>
        <time>2018-01-07T13:48:55Z</time>
      </trkpt>
      <trkpt lat="43.21207" lon="5.42671">
        <ele>108</ele>
        <time>2018-01-07T13:49:10Z</time>
      </trkpt>
      <trkpt lat="43.21211" lon="5.4267">
        <ele>108.43</ele>
        <time>2018-01-07T13:49:28Z</time>
      </trkpt>
      <trkpt lat="43.21214" lon="5.42675">
        <ele>111.1</ele>
        <time>2018-01-07T13:49:49Z</time>
      </trkpt>
      <trkpt lat="43.21218" lon="5.42678">
        <ele>113.1</ele>
        <time>2018-01-07T13:50:08Z</time>
      </trkpt>
      <trkpt lat="43.21214" lon="5.42682">
        <ele>115.78</ele>
        <time>2018-01-07T13:50:29Z</time>
      </trkpt>
      <trkpt lat="43.21217" lon="5.42683">
        <ele>118.84</ele>
        <time>2018-01-07T13:50:39Z</time>
      </trkpt>
      <trkpt lat="43.21221" lon="5.42686">
        <ele>117.55</ele>
        <time>2018-01-07T13:50:59Z</time>
      </trkpt>
      <trkpt lat="43.21229" lon="5.42689">
        <ele>120.3</ele>
        <time>2018-01-07T13:51:21Z</time>
      </trkpt>
      <trkpt lat="43.21235" lon="5.42694">
        <ele>123.05</ele>
        <time>2018-01-07T13:51:42Z</time>
      </trkpt>
      <trkpt lat="43.21235" lon="5.42696">
        <ele>125.71</ele>
        <time>2018-01-07T13:52:02Z</time>
      </trkpt>
      <trkpt lat="43.21238" lon="5.42703">
        <ele>128.1</ele>
        <time>2018-01-07T13:52:24Z</time>
      </trkpt>
      <trkpt lat="43.21244" lon="5.42704">
        <ele>130.78</ele>
        <time>2018-01-07T13:52:44Z</time>
      </trkpt>
      <trkpt lat="43.2125" lon="5.42707">
        <ele>133.69</ele>
        <time>2018-01-07T13:53:01Z</time>
      </trkpt>
      <trkpt lat="43.21257" lon="5.42711">
        <ele>135.61</ele>
        <time>2018-01-07T13:53:21Z</time>
      </trkpt>
      <trkpt lat="43.21261" lon="5.42711">
        <ele>137.61</ele>
        <time>2018-01-07T13:53:36Z</time>
      </trkpt>
      <trkpt lat="43.21265" lon="5.42717">
        <ele>139.6</ele>
        <time>2018-01-07T13:53:55Z</time>
      </trkpt>
      <trkpt lat="43.21265" lon="5.42723">
        <ele>142.34</ele>
        <time>2018-01-07T13:54:14Z</time>
      </trkpt>
      <trkpt lat="43.21265" lon="5.4272">
        <ele>141.7</ele>
        <time>2018-01-07T13:54:37Z</time>
      </trkpt>
      <trkpt lat="43.21273" lon="5.42721">
        <ele>142.44</ele>
        <time>2018-01-07T13:54:55Z</time>
      </trkpt>
      <trkpt lat="43.21278" lon="5.42727">
        <ele>144.88</ele>
        <time>2018-01-07T13:55:15Z</time>
      </trkpt>
      <trkpt lat="43.2128" lon="5.42728">
        <ele>148.11</ele>
        <time>2018-01-07T13:55:26Z</time>
      </trkpt>
      <trkpt lat="43.21287" lon="5.42727">
        <ele>150.8</ele>
        <time>2018-01-07T13:55:44Z</time>
      </trkpt>
      <trkpt lat="43.21284" lon="5.42733">
        <ele>153.6</ele>
        <time>2018-01-07T13:56:03Z</time>
      </trkpt>
      <trkpt lat="43.21278" lon="5.42737">
        <ele>153.49</ele>
        <time>2018-01-07T13:56:24Z</time>
      </trkpt>
      <trkpt lat="43.21274" lon="5.42737">
        <ele>155.48</ele>
        <time>2018-01-07T13:56:45Z</time>
      </trkpt>
      <trkpt lat="43.21274" lon="5.42743">
        <ele>155.18</ele>
        <time>2018-01-07T13:57:03Z</time>
      </trkpt>
      <trkpt lat="43.21274" lon="5.42748">
        <ele>157.66</ele>
        <time>2018-01-07T13:57:21Z</time>
      </trkpt>
      <trkpt lat="43.2128" lon="5.42754">
        <ele>160.79</ele>
        <time>2018-01-07T13:57:39Z</time>
      </trkpt>
      <trkpt lat="43.21281" lon="5.42756">
        <ele>163.21</ele>
        <time>2018-01-07T13:57:44Z</time>
      </trkpt>
      <trkpt lat="43.21282" lon="5.42758">
        <ele>166.46</ele>
        <time>2018-01-07T13:57:50Z</time>
      </trkpt>
      <trkpt lat="43.21286" lon="5.42763">
        <ele>169.99</ele>
        <time>2018-01-07T13:58:07Z</time>
      </trkpt>
      <trkpt lat="43.21296" lon="5.4276">
        <ele>170.36</ele>
        <time>2018-01-07T13:58:22Z</time>
      </trkpt>
      <trkpt lat="43.213" lon="5.42759">
        <ele>170.1</ele>
        <time>2018-01-07T13:58:41Z</time>
      </trkpt>
      <trkpt lat="43.21299" lon="5.42756">
        <ele>170.85</ele>
        <time>2018-01-07T13:59:07Z</time>
      </trkpt>
      <trkpt lat="43.21301" lon="5.42758">
        <ele>173.91</ele>
        <time>2018-01-07T13:59:26Z</time>
      </trkpt>
      <trkpt lat="43.21301" lon="5.42767">
        <ele>177.05</ele>
        <time>2018-01-07T13:59:44Z</time>
      </trkpt>
      <trkpt lat="43.21299" lon="5.42768">
        <ele>180.43</ele>
        <time>2018-01-07T13:59:49Z</time>
      </trkpt>
      <trkpt lat="43.21296" lon="5.42768">
        <ele>177.43</ele>
        <time>2018-01-07T13:59:53Z</time>
      </trkpt>
      <trkpt lat="43.21295" lon="5.42768">
        <ele>174.15</ele>
        <time>2018-01-07T13:59:59Z</time>
      </trkpt>
      <trkpt lat="43.21295" lon="5.42769">
        <ele>177.35</ele>
        <time>2018-01-07T14:00:09Z</time>
      </trkpt>
      <trkpt lat="43.21294" lon="5.42767">
        <ele>179.51</ele>
        <time>2018-01-07T14:00:32Z</time>
      </trkpt>
      <trkpt lat="43.21293" lon="5.42766">
        <ele>179.13</ele>
        <time>2018-01-07T14:01:05Z</time>
      </trkpt>
      <trkpt lat="43.21293" lon="5.42766">
        <ele>175.93</ele>
        <time>2018-01-07T14:01:11Z</time>
      </trkpt>
      <trkpt lat="43.21294" lon="5.42768">
        <ele>176.71</ele>
        <time>2018-01-07T14:01:34Z</time>
      </trkpt>
      <trkpt lat="43.21292" lon="5.42766">
        <ele>175.82</ele>
        <time>2018-01-07T14:02:02Z</time>
      </trkpt>
      <trkpt lat="43.21292" lon="5.42765">
        <ele>173.03</ele>
        <time>2018-01-07T14:02:33Z</time>
      </trkpt>
      <trkpt lat="43.21293" lon="5.42769">
        <ele>174.51</ele>
        <time>2018-01-07T14:02:56Z</time>
      </trkpt>
      <trkpt lat="43.21293" lon="5.42773">
        <ele>171.41</ele>
        <time>2018-01-07T14:03:01Z</time>
      </trkpt>
      <trkpt lat="43.21295" lon="5.42782">
        <ele>170.06</ele>
        <time>2018-01-07T14:03:09Z</time>
      </trkpt>
      <trkpt lat="43.213" lon="5.42789">
        <ele>172.68</ele>
        <time>2018-01-07T14:03:17Z</time>
      </trkpt>
      <trkpt lat="43.21313" lon="5.42808">
        <ele>169.56</ele>
        <time>2018-01-07T14:03:36Z</time>
      </trkpt>
      <trkpt lat="43.2132" lon="5.42817">
        <ele>170.99</ele>
        <time>2018-01-07T14:03:52Z</time>
      </trkpt>
      <trkpt lat="43.2133" lon="5.42817">
        <ele>170.98</ele>
        <time>2018-01-07T14:04:12Z</time>
      </trkpt>
      <trkpt lat="43.21336" lon="5.42826">
        <ele>171.09</ele>
        <time>2018-01-07T14:04:32Z</time>
      </trkpt>
      <trkpt lat="43.21343" lon="5.42838">
        <ele>172.81</ele>
        <time>2018-01-07T14:04:49Z</time>
      </trkpt>
      <trkpt lat="43.21347" lon="5.42837">
        <ele>175.87</ele>
        <time>2018-01-07T14:04:58Z</time>
      </trkpt>
      <trkpt lat="43.21351" lon="5.42839">
        <ele>179.01</ele>
        <time>2018-01-07T14:05:06Z</time>
      </trkpt>
      <trkpt lat="43.21358" lon="5.42849">
        <ele>180.93</ele>
        <time>2018-01-07T14:05:22Z</time>
      </trkpt>
      <trkpt lat="43.21359" lon="5.42863">
        <ele>183.99</ele>
        <time>2018-01-07T14:05:38Z</time>
      </trkpt>
      <trkpt lat="43.2136" lon="5.42868">
        <ele>184.01</ele>
        <time>2018-01-07T14:05:42Z</time>
      </trkpt>
      <trkpt lat="43.21358" lon="5.42881">
        <ele>182.49</ele>
        <time>2018-01-07T14:05:57Z</time>
      </trkpt>
      <trkpt lat="43.21358" lon="5.42884">
        <ele>180.15</ele>
        <time>2018-01-07T14:06:14Z</time>
      </trkpt>
      <trkpt lat="43.21357" lon="5.42885">
        <ele>181.4</ele>
        <time>2018-01-07T14:06:37Z</time>
      </trkpt>
      <trkpt lat="43.21358" lon="5.4288">
        <ele>182.2</ele>
        <time>2018-01-07T14:07:00Z</time>
      </trkpt>
      <trkpt lat="43.21358" lon="5.42872">
        <ele>183.6</ele>
        <time>2018-01-07T14:07:15Z</time>
      </trkpt>
      <trkpt lat="43.21358" lon="5.42867">
        <ele>184.16</ele>
        <time>2018-01-07T14:07:32Z</time>
      </trkpt>
      <trkpt lat="43.21357" lon="5.42881">
        <ele>182.93</ele>
        <time>2018-01-07T14:07:49Z</time>
      </trkpt>
      <trkpt lat="43.21355" lon="5.42893">
        <ele>181.63</ele>
        <time>2018-01-07T14:08:02Z</time>
      </trkpt>
      <trkpt lat="43.21356" lon="5.42916">
        <ele>181.29</ele>
        <time>2018-01-07T14:08:21Z</time>
      </trkpt>
      <trkpt lat="43.21352" lon="5.42932">
        <ele>181.74</ele>
        <time>2018-01-07T14:08:41Z</time>
      </trkpt>
      <trkpt lat="43.21344" lon="5.42945">
        <ele>183.42</ele>
        <time>2018-01-07T14:08:59Z</time>
      </trkpt>
      <trkpt lat="43.21336" lon="5.4295">
        <ele>186.66</ele>
        <time>2018-01-07T14:09:15Z</time>
      </trkpt>
      <trkpt lat="43.21324" lon="5.42954">
        <ele>186.13</ele>
        <time>2018-01-07T14:09:32Z</time>
      </trkpt>
      <trkpt lat="43.21322" lon="5.42963">
        <ele>185.18</ele>
        <time>2018-01-07T14:09:55Z</time>
      </trkpt>
      <trkpt lat="43.21315" lon="5.4298">
        <ele>185.81</ele>
        <time>2018-01-07T14:10:12Z</time>
      </trkpt>
      <trkpt lat="43.21307" lon="5.42995">
        <ele>183.76</ele>
        <time>2018-01-07T14:10:27Z</time>
      </trkpt>
      <trkpt lat="43.21301" lon="5.43007">
        <ele>187.22</ele>
        <time>2018-01-07T14:10:39Z</time>
      </trkpt>
      <trkpt lat="43.21287" lon="5.43019">
        <ele>188.32</ele>
        <time>2018-01-07T14:10:59Z</time>
      </trkpt>
      <trkpt lat="43.21274" lon="5.43021">
        <ele>186.1</ele>
        <time>2018-01-07T14:11:12Z</time>
      </trkpt>
      <trkpt lat="43.21262" lon="5.43023">
        <ele>187.49</ele>
        <time>2018-01-07T14:11:30Z</time>
      </trkpt>
      <trkpt lat="43.21254" lon="5.43037">
        <ele>188.31</ele>
        <time>2018-01-07T14:11:44Z</time>
      </trkpt>
      <trkpt lat="43.21251" lon="5.43047">
        <ele>188.24</ele>
        <time>2018-01-07T14:11:59Z</time>
      </trkpt>
      <trkpt lat="43.21245" lon="5.43059">
        <ele>189.97</ele>
        <time>2018-01-07T14:12:17Z</time>
      </trkpt>
      <trkpt lat="43.21245" lon="5.43071">
        <ele>193</ele>
        <time>2018-01-07T14:12:34Z</time>
      </trkpt>
      <trkpt lat="43.21237" lon="5.43084">
        <ele>194.81</ele>
        <time>2018-01-07T14:12:45Z</time>
      </trkpt>
      <trkpt lat="43.21228" lon="5.43094">
        <ele>193.83</ele>
        <time>2018-01-07T14:12:57Z</time>
      </trkpt>
      <trkpt lat="43.21214" lon="5.43106">
        <ele>194.59</ele>
        <time>2018-01-07T14:13:18Z</time>
      </trkpt>
      <trkpt lat="43.21211" lon="5.43106">
        <ele>196.52</ele>
        <time>2018-01-07T14:13:49Z</time>
      </trkpt>
      <trkpt lat="43.21211" lon="5.43119">
        <ele>195.26</ele>
        <time>2018-01-07T14:14:08Z</time>
      </trkpt>
      <trkpt lat="43.21213" lon="5.43134">
        <ele>194.73</ele>
        <time>2018-01-07T14:14:26Z</time>
      </trkpt>
      <trkpt lat="43.21215" lon="5.43149">
        <ele>198.01</ele>
        <time>2018-01-07T14:14:43Z</time>
      </trkpt>
      <trkpt lat="43.2122" lon="5.43161">
        <ele>200.77</ele>
        <time>2018-01-07T14:15:02Z</time>
      </trkpt>
      <trkpt lat="43.21221" lon="5.4317">
        <ele>202.74</ele>
        <time>2018-01-07T14:15:18Z</time>
      </trkpt>
      <trkpt lat="43.21224" lon="5.43179">
        <ele>204.78</ele>
        <time>2018-01-07T14:15:35Z</time>
      </trkpt>
      <trkpt lat="43.21227" lon="5.43186">
        <ele>206.64</ele>
        <time>2018-01-07T14:15:53Z</time>
      </trkpt>
      <trkpt lat="43.2123" lon="5.43192">
        <ele>209.05</ele>
        <time>2018-01-07T14:16:12Z</time>
      </trkpt>
      <trkpt lat="43.21233" lon="5.43192">
        <ele>211.12</ele>
        <time>2018-01-07T14:16:20Z</time>
      </trkpt>
      <trkpt lat="43.21237" lon="5.43199">
        <ele>211.37</ele>
        <time>2018-01-07T14:16:38Z</time>
      </trkpt>
      <trkpt lat="43.21242" lon="5.43209">
        <ele>213.55</ele>
        <time>2018-01-07T14:16:57Z</time>
      </trkpt>
      <trkpt lat="43.21249" lon="5.43213">
        <ele>215.24</ele>
        <time>2018-01-07T14:17:16Z</time>
      </trkpt>
      <trkpt lat="43.21254" lon="5.43221">
        <ele>218.15</ele>
        <time>2018-01-07T14:17:30Z</time>
      </trkpt>
      <trkpt lat="43.21261" lon="5.43222">
        <ele>219.26</ele>
        <time>2018-01-07T14:17:46Z</time>
      </trkpt>
      <trkpt lat="43.21262" lon="5.43223">
        <ele>218.17</ele>
        <time>2018-01-07T14:18:06Z</time>
      </trkpt>
      <trkpt lat="43.2126" lon="5.43222">
        <ele>218.53</ele>
        <time>2018-01-07T14:18:25Z</time>
      </trkpt>
      <trkpt lat="43.21261" lon="5.43221">
        <ele>218.84</ele>
        <time>2018-01-07T14:18:45Z</time>
      </trkpt>
      <trkpt lat="43.21264" lon="5.43217">
        <ele>219.34</ele>
        <time>2018-01-07T14:19:04Z</time>
      </trkpt>
      <trkpt lat="43.21265" lon="5.43215">
        <ele>220.17</ele>
        <time>2018-01-07T14:19:31Z</time>
      </trkpt>
      <trkpt lat="43.21265" lon="5.43215">
        <ele>223.72</ele>
        <time>2018-01-07T14:19:39Z</time>
      </trkpt>
      <trkpt lat="43.21265" lon="5.43215">
        <ele>224.41</ele>
        <time>2018-01-07T14:20:16Z</time>
      </trkpt>
      <trkpt lat="43.21265" lon="5.43216">
        <ele>222.63</ele>
        <time>2018-01-07T14:20:40Z</time>
      </trkpt>
      <trkpt lat="43.21265" lon="5.43215">
        <ele>221.27</ele>
        <time>2018-01-07T14:21:12Z</time>
      </trkpt>
      <trkpt lat="43.2127" lon="5.43205">
        <ele>222.09</ele>
        <time>2018-01-07T14:21:32Z</time>
      </trkpt>
      <trkpt lat="43.2127" lon="5.43203">
        <ele>222.21</ele>
        <time>2018-01-07T14:21:33Z</time>
      </trkpt>
      <trkpt lat="43.21278" lon="5.43186">
        <ele>222.34</ele>
        <time>2018-01-07T14:21:49Z</time>
      </trkpt>
      <trkpt lat="43.21281" lon="5.43177">
        <ele>223.24</ele>
        <time>2018-01-07T14:22:07Z</time>
      </trkpt>
      <trkpt lat="43.21284" lon="5.43169">
        <ele>223.61</ele>
        <time>2018-01-07T14:22:31Z</time>
      </trkpt>
      <trkpt lat="43.21287" lon="5.43159">
        <ele>224.71</ele>
        <time>2018-01-07T14:22:43Z</time>
      </trkpt>
      <trkpt lat="43.21287" lon="5.43158">
        <ele>225.02</ele>
        <time>2018-01-07T14:22:44Z</time>
      </trkpt>
      <trkpt lat="43.21297" lon="5.43139">
        <ele>227.14</ele>
        <time>2018-01-07T14:23:01Z</time>
      </trkpt>
      <trkpt lat="43.21306" lon="5.43119">
        <ele>226.98</ele>
        <time>2018-01-07T14:23:18Z</time>
      </trkpt>
      <trkpt lat="43.21307" lon="5.43118">
        <ele>227.42</ele>
        <time>2018-01-07T14:23:19Z</time>
      </trkpt>
      <trkpt lat="43.21308" lon="5.43109">
        <ele>230.44</ele>
        <time>2018-01-07T14:23:27Z</time>
      </trkpt>
      <trkpt lat="43.21311" lon="5.43104">
        <ele>233.5</ele>
        <time>2018-01-07T14:23:33Z</time>
      </trkpt>
      <trkpt lat="43.21316" lon="5.43091">
        <ele>231.73</ele>
        <time>2018-01-07T14:23:46Z</time>
      </trkpt>
      <trkpt lat="43.21317" lon="5.43088">
        <ele>231.46</ele>
        <time>2018-01-07T14:23:48Z</time>
      </trkpt>
      <trkpt lat="43.21318" lon="5.43087">
        <ele>231.26</ele>
        <time>2018-01-07T14:23:49Z</time>
      </trkpt>
      <trkpt lat="43.21318" lon="5.43086">
        <ele>231.02</ele>
        <time>2018-01-07T14:23:50Z</time>
      </trkpt>
      <trkpt lat="43.21322" lon="5.43076">
        <ele>228.35</ele>
        <time>2018-01-07T14:23:59Z</time>
      </trkpt>
      <trkpt lat="43.21323" lon="5.43064">
        <ele>227.07</ele>
        <time>2018-01-07T14:24:09Z</time>
      </trkpt>
      <trkpt lat="43.21328" lon="5.43053">
        <ele>225.24</ele>
        <time>2018-01-07T14:24:22Z</time>
      </trkpt>
      <trkpt lat="43.21333" lon="5.43041">
        <ele>227.51</ele>
        <time>2018-01-07T14:24:38Z</time>
      </trkpt>
      <trkpt lat="43.21334" lon="5.43038">
        <ele>226.81</ele>
        <time>2018-01-07T14:24:41Z</time>
      </trkpt>
      <trkpt lat="43.21336" lon="5.43034">
        <ele>225.68</ele>
        <time>2018-01-07T14:24:44Z</time>
      </trkpt>
      <trkpt lat="43.21344" lon="5.43017">
        <ele>223.25</ele>
        <time>2018-01-07T14:25:01Z</time>
      </trkpt>
      <trkpt lat="43.21349" lon="5.43003">
        <ele>221.84</ele>
        <time>2018-01-07T14:25:17Z</time>
      </trkpt>
      <trkpt lat="43.21356" lon="5.42995">
        <ele>224.2</ele>
        <time>2018-01-07T14:25:33Z</time>
      </trkpt>
      <trkpt lat="43.21356" lon="5.42994">
        <ele>224.22</ele>
        <time>2018-01-07T14:25:34Z</time>
      </trkpt>
      <trkpt lat="43.21357" lon="5.42991">
        <ele>223.56</ele>
        <time>2018-01-07T14:25:36Z</time>
      </trkpt>
      <trkpt lat="43.21363" lon="5.42983">
        <ele>221.4</ele>
        <time>2018-01-07T14:25:49Z</time>
      </trkpt>
      <trkpt lat="43.21363" lon="5.42982">
        <ele>221.36</ele>
        <time>2018-01-07T14:25:50Z</time>
      </trkpt>
      <trkpt lat="43.21365" lon="5.4297">
        <ele>221.42</ele>
        <time>2018-01-07T14:26:03Z</time>
      </trkpt>
      <trkpt lat="43.21366" lon="5.42969">
        <ele>221.33</ele>
        <time>2018-01-07T14:26:04Z</time>
      </trkpt>
      <trkpt lat="43.21369" lon="5.42965">
        <ele>220.95</ele>
        <time>2018-01-07T14:26:09Z</time>
      </trkpt>
      <trkpt lat="43.21376" lon="5.42956">
        <ele>220.96</ele>
        <time>2018-01-07T14:26:23Z</time>
      </trkpt>
      <trkpt lat="43.21382" lon="5.42949">
        <ele>220.44</ele>
        <time>2018-01-07T14:26:37Z</time>
      </trkpt>
      <trkpt lat="43.21387" lon="5.42944">
        <ele>220.5</ele>
        <time>2018-01-07T14:26:51Z</time>
      </trkpt>
      <trkpt lat="43.21391" lon="5.42938">
        <ele>220.64</ele>
        <time>2018-01-07T14:27:08Z</time>
      </trkpt>
      <trkpt lat="43.21394" lon="5.42923">
        <ele>219.85</ele>
        <time>2018-01-07T14:27:23Z</time>
      </trkpt>
      <trkpt lat="43.21395" lon="5.4292">
        <ele>220.06</ele>
        <time>2018-01-07T14:27:25Z</time>
      </trkpt>
      <trkpt lat="43.21396" lon="5.42918">
        <ele>219.98</ele>
        <time>2018-01-07T14:27:27Z</time>
      </trkpt>
      <trkpt lat="43.214" lon="5.429">
        <ele>217.83</ele>
        <time>2018-01-07T14:27:45Z</time>
      </trkpt>
      <trkpt lat="43.21403" lon="5.42889">
        <ele>219.38</ele>
        <time>2018-01-07T14:28:00Z</time>
      </trkpt>
      <trkpt lat="43.21404" lon="5.42885">
        <ele>218.64</ele>
        <time>2018-01-07T14:28:03Z</time>
      </trkpt>
      <trkpt lat="43.21407" lon="5.4287">
        <ele>218.51</ele>
        <time>2018-01-07T14:28:19Z</time>
      </trkpt>
      <trkpt lat="43.21412" lon="5.42857">
        <ele>220.85</ele>
        <time>2018-01-07T14:28:35Z</time>
      </trkpt>
      <trkpt lat="43.21413" lon="5.42845">
        <ele>222.19</ele>
        <time>2018-01-07T14:28:51Z</time>
      </trkpt>
      <trkpt lat="43.21415" lon="5.42838">
        <ele>223.4</ele>
        <time>2018-01-07T14:29:10Z</time>
      </trkpt>
      <trkpt lat="43.21412" lon="5.42835">
        <ele>222.53</ele>
        <time>2018-01-07T14:29:26Z</time>
      </trkpt>
      <trkpt lat="43.21416" lon="5.42823">
        <ele>222.12</ele>
        <time>2018-01-07T14:29:44Z</time>
      </trkpt>
      <trkpt lat="43.21417" lon="5.4282">
        <ele>224.26</ele>
        <time>2018-01-07T14:29:48Z</time>
      </trkpt>
      <trkpt lat="43.21419" lon="5.42812">
        <ele>225.09</ele>
        <time>2018-01-07T14:30:02Z</time>
      </trkpt>
      <trkpt lat="43.21422" lon="5.42805">
        <ele>225.92</ele>
        <time>2018-01-07T14:30:15Z</time>
      </trkpt>
      <trkpt lat="43.21428" lon="5.42793">
        <ele>226.81</ele>
        <time>2018-01-07T14:30:32Z</time>
      </trkpt>
      <trkpt lat="43.2143" lon="5.42788">
        <ele>230.44</ele>
        <time>2018-01-07T14:30:42Z</time>
      </trkpt>
      <trkpt lat="43.21432" lon="5.42785">
        <ele>233.93</ele>
        <time>2018-01-07T14:30:46Z</time>
      </trkpt>
      <trkpt lat="43.21435" lon="5.42784">
        <ele>235.14</ele>
        <time>2018-01-07T14:31:01Z</time>
      </trkpt>
      <trkpt lat="43.2144" lon="5.42778">
        <ele>235.65</ele>
        <time>2018-01-07T14:31:16Z</time>
      </trkpt>
      <trkpt lat="43.21445" lon="5.42773">
        <ele>237.33</ele>
        <time>2018-01-07T14:31:32Z</time>
      </trkpt>
      <trkpt lat="43.21445" lon="5.42768">
        <ele>240.46</ele>
        <time>2018-01-07T14:31:41Z</time>
      </trkpt>
      <trkpt lat="43.21445" lon="5.42764">
        <ele>244.24</ele>
        <time>2018-01-07T14:31:48Z</time>
      </trkpt>
      <trkpt lat="43.21448" lon="5.42762">
        <ele>247.5</ele>
        <time>2018-01-07T14:31:57Z</time>
      </trkpt>
      <trkpt lat="43.21453" lon="5.4276">
        <ele>247.5</ele>
        <time>2018-01-07T14:32:17Z</time>
      </trkpt>
      <trkpt lat="43.21453" lon="5.4276">
        <ele>249.95</ele>
        <time>2018-01-07T14:32:20Z</time>
      </trkpt>
      <trkpt lat="43.21453" lon="5.4276">
        <ele>253.16</ele>
        <time>2018-01-07T14:32:32Z</time>
      </trkpt>
      <trkpt lat="43.21455" lon="5.42759">
        <ele>256.9</ele>
        <time>2018-01-07T14:32:36Z</time>
      </trkpt>
      <trkpt lat="43.21456" lon="5.42759">
        <ele>257.74</ele>
        <time>2018-01-07T14:32:38Z</time>
      </trkpt>
      <trkpt lat="43.21462" lon="5.42754">
        <ele>254.34</ele>
        <time>2018-01-07T14:32:48Z</time>
      </trkpt>
      <trkpt lat="43.21465" lon="5.42753">
        <ele>250.22</ele>
        <time>2018-01-07T14:32:52Z</time>
      </trkpt>
      <trkpt lat="43.21468" lon="5.42751">
        <ele>246</ele>
        <time>2018-01-07T14:32:55Z</time>
      </trkpt>
      <trkpt lat="43.21472" lon="5.4275">
        <ele>242.82</ele>
        <time>2018-01-07T14:33:00Z</time>
      </trkpt>
      <trkpt lat="43.2148" lon="5.42743">
        <ele>240.62</ele>
        <time>2018-01-07T14:33:16Z</time>
      </trkpt>
      <trkpt lat="43.21484" lon="5.42741">
        <ele>244.22</ele>
        <time>2018-01-07T14:33:29Z</time>
      </trkpt>
      <trkpt lat="43.21484" lon="5.42741">
        <ele>245.22</ele>
        <time>2018-01-07T14:33:31Z</time>
      </trkpt>
      <trkpt lat="43.21491" lon="5.42741">
        <ele>243.41</ele>
        <time>2018-01-07T14:33:46Z</time>
      </trkpt>
      <trkpt lat="43.21495" lon="5.42741">
        <ele>241.52</ele>
        <time>2018-01-07T14:33:51Z</time>
      </trkpt>
      <trkpt lat="43.21498" lon="5.4274">
        <ele>239.82</ele>
        <time>2018-01-07T14:33:54Z</time>
      </trkpt>
      <trkpt lat="43.21506" lon="5.42734">
        <ele>238.71</ele>
        <time>2018-01-07T14:34:06Z</time>
      </trkpt>
      <trkpt lat="43.21513" lon="5.42724">
        <ele>240.3</ele>
        <time>2018-01-07T14:34:23Z</time>
      </trkpt>
      <trkpt lat="43.21521" lon="5.42715">
        <ele>240.19</ele>
        <time>2018-01-07T14:34:40Z</time>
      </trkpt>
      <trkpt lat="43.21527" lon="5.42703">
        <ele>239.73</ele>
        <time>2018-01-07T14:34:56Z</time>
      </trkpt>
      <trkpt lat="43.21535" lon="5.42695">
        <ele>242.42</ele>
        <time>2018-01-07T14:35:12Z</time>
      </trkpt>
      <trkpt lat="43.21542" lon="5.42689">
        <ele>245.58</ele>
        <time>2018-01-07T14:35:29Z</time>
      </trkpt>
      <trkpt lat="43.21545" lon="5.42686">
        <ele>248.49</ele>
        <time>2018-01-07T14:35:48Z</time>
      </trkpt>
      <trkpt lat="43.2155" lon="5.42678">
        <ele>251.6</ele>
        <time>2018-01-07T14:36:06Z</time>
      </trkpt>
      <trkpt lat="43.21558" lon="5.42673">
        <ele>254.03</ele>
        <time>2018-01-07T14:36:25Z</time>
      </trkpt>
      <trkpt lat="43.21559" lon="5.42672">
        <ele>254.05</ele>
        <time>2018-01-07T14:36:51Z</time>
      </trkpt>
      <trkpt lat="43.21559" lon="5.42672">
        <ele>254.41</ele>
        <time>2018-01-07T14:37:21Z</time>
      </trkpt>
      <trkpt lat="43.2156" lon="5.42672">
        <ele>254.4</ele>
        <time>2018-01-07T14:37:50Z</time>
      </trkpt>
      <trkpt lat="43.21561" lon="5.42668">
        <ele>254.76</ele>
        <time>2018-01-07T14:37:54Z</time>
      </trkpt>
      <trkpt lat="43.2157" lon="5.4266">
        <ele>255.21</ele>
        <time>2018-01-07T14:38:05Z</time>
      </trkpt>
      <trkpt lat="43.21577" lon="5.42661">
        <ele>256.32</ele>
        <time>2018-01-07T14:38:20Z</time>
      </trkpt>
      <trkpt lat="43.21583" lon="5.42665">
        <ele>259.43</ele>
        <time>2018-01-07T14:38:32Z</time>
      </trkpt>
      <trkpt lat="43.21589" lon="5.42662">
        <ele>262.61</ele>
        <time>2018-01-07T14:38:45Z</time>
      </trkpt>
      <trkpt lat="43.21599" lon="5.42656">
        <ele>263.51</ele>
        <time>2018-01-07T14:39:01Z</time>
      </trkpt>
      <trkpt lat="43.216" lon="5.4265">
        <ele>263.84</ele>
        <time>2018-01-07T14:39:06Z</time>
      </trkpt>
      <trkpt lat="43.216" lon="5.42649">
        <ele>263.71</ele>
        <time>2018-01-07T14:39:07Z</time>
      </trkpt>
      <trkpt lat="43.21602" lon="5.42646">
        <ele>263.28</ele>
        <time>2018-01-07T14:39:10Z</time>
      </trkpt>
      <trkpt lat="43.21609" lon="5.42637">
        <ele>262.58</ele>
        <time>2018-01-07T14:39:24Z</time>
      </trkpt>
      <trkpt lat="43.21615" lon="5.42637">
        <ele>262.45</ele>
        <time>2018-01-07T14:39:32Z</time>
      </trkpt>
      <trkpt lat="43.21618" lon="5.42629">
        <ele>261.67</ele>
        <time>2018-01-07T14:39:43Z</time>
      </trkpt>
      <trkpt lat="43.21622" lon="5.42623">
        <ele>258.37</ele>
        <time>2018-01-07T14:39:53Z</time>
      </trkpt>
      <trkpt lat="43.21625" lon="5.42617">
        <ele>258.29</ele>
        <time>2018-01-07T14:40:02Z</time>
      </trkpt>
      <trkpt lat="43.21627" lon="5.42619">
        <ele>255.53</ele>
        <time>2018-01-07T14:40:16Z</time>
      </trkpt>
      <trkpt lat="43.21635" lon="5.42614">
        <ele>254.34</ele>
        <time>2018-01-07T14:40:32Z</time>
      </trkpt>
      <trkpt lat="43.21641" lon="5.42602">
        <ele>253.81</ele>
        <time>2018-01-07T14:40:48Z</time>
      </trkpt>
      <trkpt lat="43.21643" lon="5.42594">
        <ele>250.68</ele>
        <time>2018-01-07T14:40:58Z</time>
      </trkpt>
      <trkpt lat="43.21647" lon="5.42595">
        <ele>248.81</ele>
        <time>2018-01-07T14:41:08Z</time>
      </trkpt>
      <trkpt lat="43.21657" lon="5.42588">
        <ele>248.58</ele>
        <time>2018-01-07T14:41:23Z</time>
      </trkpt>
      <trkpt lat="43.21659" lon="5.42586">
        <ele>248.28</ele>
        <time>2018-01-07T14:41:26Z</time>
      </trkpt>
      <trkpt lat="43.21666" lon="5.42576">
        <ele>246.2</ele>
        <time>2018-01-07T14:41:38Z</time>
      </trkpt>
      <trkpt lat="43.21675" lon="5.42568">
        <ele>244.77</ele>
        <time>2018-01-07T14:41:50Z</time>
      </trkpt>
      <trkpt lat="43.21687" lon="5.42563">
        <ele>243.91</ele>
        <time>2018-01-07T14:42:03Z</time>
      </trkpt>
      <trkpt lat="43.21694" lon="5.42557">
        <ele>244.78</ele>
        <time>2018-01-07T14:42:11Z</time>
      </trkpt>
      <trkpt lat="43.21694" lon="5.42556">
        <ele>244.88</ele>
        <time>2018-01-07T14:42:12Z</time>
      </trkpt>
      <trkpt lat="43.21698" lon="5.4255">
        <ele>243.61</ele>
        <time>2018-01-07T14:42:23Z</time>
      </trkpt>
      <trkpt lat="43.21706" lon="5.42541">
        <ele>242.87</ele>
        <time>2018-01-07T14:42:38Z</time>
      </trkpt>
      <trkpt lat="43.2171" lon="5.42536">
        <ele>242.77</ele>
        <time>2018-01-07T14:42:44Z</time>
      </trkpt>
      <trkpt lat="43.21713" lon="5.42534">
        <ele>242.27</ele>
        <time>2018-01-07T14:42:47Z</time>
      </trkpt>
      <trkpt lat="43.2172" lon="5.42527">
        <ele>242.25</ele>
        <time>2018-01-07T14:42:59Z</time>
      </trkpt>
      <trkpt lat="43.21732" lon="5.4252">
        <ele>239.08</ele>
        <time>2018-01-07T14:43:14Z</time>
      </trkpt>
      <trkpt lat="43.21737" lon="5.42517">
        <ele>237.67</ele>
        <time>2018-01-07T14:43:21Z</time>
      </trkpt>
      <trkpt lat="43.2174" lon="5.42516">
        <ele>237.01</ele>
        <time>2018-01-07T14:43:25Z</time>
      </trkpt>
      <trkpt lat="43.21745" lon="5.42513">
        <ele>236.79</ele>
        <time>2018-01-07T14:43:31Z</time>
      </trkpt>
      <trkpt lat="43.21746" lon="5.42513">
        <ele>236.85</ele>
        <time>2018-01-07T14:43:32Z</time>
      </trkpt>
      <trkpt lat="43.21759" lon="5.42502">
        <ele>238.5</ele>
        <time>2018-01-07T14:43:47Z</time>
      </trkpt>
      <trkpt lat="43.21772" lon="5.42497">
        <ele>237.27</ele>
        <time>2018-01-07T14:44:01Z</time>
      </trkpt>
      <trkpt lat="43.21784" lon="5.42495">
        <ele>237.77</ele>
        <time>2018-01-07T14:44:13Z</time>
      </trkpt>
      <trkpt lat="43.21799" lon="5.42488">
        <ele>236.84</ele>
        <time>2018-01-07T14:44:29Z</time>
      </trkpt>
      <trkpt lat="43.21815" lon="5.42487">
        <ele>237.73</ele>
        <time>2018-01-07T14:44:46Z</time>
      </trkpt>
      <trkpt lat="43.21828" lon="5.42484">
        <ele>235.44</ele>
        <time>2018-01-07T14:45:01Z</time>
      </trkpt>
      <trkpt lat="43.21843" lon="5.42473">
        <ele>234.57</ele>
        <time>2018-01-07T14:45:18Z</time>
      </trkpt>
      <trkpt lat="43.21846" lon="5.4247">
        <ele>234.58</ele>
        <time>2018-01-07T14:45:22Z</time>
      </trkpt>
      <trkpt lat="43.21846" lon="5.42469">
        <ele>234.57</ele>
        <time>2018-01-07T14:45:23Z</time>
      </trkpt>
      <trkpt lat="43.21848" lon="5.42463">
        <ele>234.34</ele>
        <time>2018-01-07T14:45:27Z</time>
      </trkpt>
      <trkpt lat="43.2185" lon="5.42451">
        <ele>231.58</ele>
        <time>2018-01-07T14:45:39Z</time>
      </trkpt>
      <trkpt lat="43.2185" lon="5.4245">
        <ele>231.51</ele>
        <time>2018-01-07T14:45:40Z</time>
      </trkpt>
      <trkpt lat="43.21851" lon="5.42449">
        <ele>231.16</ele>
        <time>2018-01-07T14:45:41Z</time>
      </trkpt>
      <trkpt lat="43.21851" lon="5.42447">
        <ele>231.03</ele>
        <time>2018-01-07T14:45:42Z</time>
      </trkpt>
      <trkpt lat="43.21851" lon="5.42445">
        <ele>230.45</ele>
        <time>2018-01-07T14:45:43Z</time>
      </trkpt>
      <trkpt lat="43.21856" lon="5.42432">
        <ele>229.09</ele>
        <time>2018-01-07T14:45:56Z</time>
      </trkpt>
      <trkpt lat="43.2186" lon="5.42416">
        <ele>228.15</ele>
        <time>2018-01-07T14:46:10Z</time>
      </trkpt>
      <trkpt lat="43.21866" lon="5.42402">
        <ele>225.84</ele>
        <time>2018-01-07T14:46:25Z</time>
      </trkpt>
      <trkpt lat="43.21874" lon="5.42388">
        <ele>223.1</ele>
        <time>2018-01-07T14:46:39Z</time>
      </trkpt>
      <trkpt lat="43.21881" lon="5.4237">
        <ele>220.71</ele>
        <time>2018-01-07T14:46:56Z</time>
      </trkpt>
      <trkpt lat="43.21885" lon="5.42355">
        <ele>218.38</ele>
        <time>2018-01-07T14:47:09Z</time>
      </trkpt>
      <trkpt lat="43.21889" lon="5.42347">
        <ele>215.64</ele>
        <time>2018-01-07T14:47:21Z</time>
      </trkpt>
      <trkpt lat="43.21896" lon="5.42337">
        <ele>213.3</ele>
        <time>2018-01-07T14:47:34Z</time>
      </trkpt>
      <trkpt lat="43.21897" lon="5.42336">
        <ele>213.22</ele>
        <time>2018-01-07T14:47:35Z</time>
      </trkpt>
      <trkpt lat="43.21908" lon="5.42322">
        <ele>211.77</ele>
        <time>2018-01-07T14:47:51Z</time>
      </trkpt>
      <trkpt lat="43.21919" lon="5.42319">
        <ele>211.89</ele>
        <time>2018-01-07T14:48:09Z</time>
      </trkpt>
      <trkpt lat="43.21927" lon="5.42311">
        <ele>213.06</ele>
        <time>2018-01-07T14:48:27Z</time>
      </trkpt>
      <trkpt lat="43.21932" lon="5.423">
        <ele>214.01</ele>
        <time>2018-01-07T14:48:47Z</time>
      </trkpt>
      <trkpt lat="43.21928" lon="5.42295">
        <ele>215.77</ele>
        <time>2018-01-07T14:49:05Z</time>
      </trkpt>
      <trkpt lat="43.21925" lon="5.423">
        <ele>213.73</ele>
        <time>2018-01-07T14:49:26Z</time>
      </trkpt>
      <trkpt lat="43.21929" lon="5.42297">
        <ele>212.42</ele>
        <time>2018-01-07T14:49:47Z</time>
      </trkpt>
      <trkpt lat="43.21937" lon="5.42284">
        <ele>215.29</ele>
        <time>2018-01-07T14:50:02Z</time>
      </trkpt>
      <trkpt lat="43.21945" lon="5.42265">
        <ele>216.43</ele>
        <time>2018-01-07T14:50:17Z</time>
      </trkpt>
      <trkpt lat="43.21958" lon="5.42252">
        <ele>217.17</ele>
        <time>2018-01-07T14:50:35Z</time>
      </trkpt>
      <trkpt lat="43.21969" lon="5.42248">
        <ele>220.36</ele>
        <time>2018-01-07T14:50:49Z</time>
      </trkpt>
      <trkpt lat="43.21971" lon="5.42247">
        <ele>220.43</ele>
        <time>2018-01-07T14:50:51Z</time>
      </trkpt>
      <trkpt lat="43.21972" lon="5.42246">
        <ele>220.42</ele>
        <time>2018-01-07T14:50:52Z</time>
      </trkpt>
      <trkpt lat="43.21986" lon="5.4224">
        <ele>220.15</ele>
        <time>2018-01-07T14:51:07Z</time>
      </trkpt>
      <trkpt lat="43.22" lon="5.42232">
        <ele>221.06</ele>
        <time>2018-01-07T14:51:22Z</time>
      </trkpt>
      <trkpt lat="43.22002" lon="5.42231">
        <ele>221.44</ele>
        <time>2018-01-07T14:51:24Z</time>
      </trkpt>
      <trkpt lat="43.22003" lon="5.4223">
        <ele>221.52</ele>
        <time>2018-01-07T14:51:25Z</time>
      </trkpt>
      <trkpt lat="43.22015" lon="5.42223">
        <ele>220.27</ele>
        <time>2018-01-07T14:51:38Z</time>
      </trkpt>
      <trkpt lat="43.22016" lon="5.42222">
        <ele>220.15</ele>
        <time>2018-01-07T14:51:39Z</time>
      </trkpt>
      <trkpt lat="43.22022" lon="5.42222">
        <ele>219.84</ele>
        <time>2018-01-07T14:51:44Z</time>
      </trkpt>
      <trkpt lat="43.22023" lon="5.42221">
        <ele>219.81</ele>
        <time>2018-01-07T14:51:45Z</time>
      </trkpt>
      <trkpt lat="43.22034" lon="5.4222">
        <ele>219.35</ele>
        <time>2018-01-07T14:51:56Z</time>
      </trkpt>
      <trkpt lat="43.22035" lon="5.4222">
        <ele>219.28</ele>
        <time>2018-01-07T14:51:57Z</time>
      </trkpt>
      <trkpt lat="43.22053" lon="5.42209">
        <ele>219.28</ele>
        <time>2018-01-07T14:52:16Z</time>
      </trkpt>
      <trkpt lat="43.22068" lon="5.42198">
        <ele>219.74</ele>
        <time>2018-01-07T14:52:30Z</time>
      </trkpt>
      <trkpt lat="43.22085" lon="5.42189">
        <ele>220.97</ele>
        <time>2018-01-07T14:52:45Z</time>
      </trkpt>
      <trkpt lat="43.22101" lon="5.42183">
        <ele>219.98</ele>
        <time>2018-01-07T14:53:00Z</time>
      </trkpt>
      <trkpt lat="43.22112" lon="5.42183">
        <ele>218.82</ele>
        <time>2018-01-07T14:53:16Z</time>
      </trkpt>
      <trkpt lat="43.22112" lon="5.4218">
        <ele>218.57</ele>
        <time>2018-01-07T14:53:33Z</time>
      </trkpt>
      <trkpt lat="43.2211" lon="5.42173">
        <ele>219.2</ele>
        <time>2018-01-07T14:53:49Z</time>
      </trkpt>
      <trkpt lat="43.2211" lon="5.42173">
        <ele>219.3</ele>
        <time>2018-01-07T14:53:50Z</time>
      </trkpt>
      <trkpt lat="43.22112" lon="5.42172">
        <ele>219.48</ele>
        <time>2018-01-07T14:53:52Z</time>
      </trkpt>
      <trkpt lat="43.22126" lon="5.42156">
        <ele>218.58</ele>
        <time>2018-01-07T14:54:09Z</time>
      </trkpt>
      <trkpt lat="43.22137" lon="5.42141">
        <ele>217.99</ele>
        <time>2018-01-07T14:54:26Z</time>
      </trkpt>
      <trkpt lat="43.22145" lon="5.42121">
        <ele>219.9</ele>
        <time>2018-01-07T14:54:43Z</time>
      </trkpt>
      <trkpt lat="43.22146" lon="5.42117">
        <ele>219.62</ele>
        <time>2018-01-07T14:54:46Z</time>
      </trkpt>
      <trkpt lat="43.22146" lon="5.42111">
        <ele>218.88</ele>
        <time>2018-01-07T14:54:50Z</time>
      </trkpt>
      <trkpt lat="43.22149" lon="5.42091">
        <ele>220.58</ele>
        <time>2018-01-07T14:55:04Z</time>
      </trkpt>
      <trkpt lat="43.22149" lon="5.42089">
        <ele>220.32</ele>
        <time>2018-01-07T14:55:05Z</time>
      </trkpt>
      <trkpt lat="43.22149" lon="5.42088">
        <ele>220.08</ele>
        <time>2018-01-07T14:55:06Z</time>
      </trkpt>
      <trkpt lat="43.22149" lon="5.42086">
        <ele>219.86</ele>
        <time>2018-01-07T14:55:07Z</time>
      </trkpt>
      <trkpt lat="43.2215" lon="5.42085">
        <ele>219.7</ele>
        <time>2018-01-07T14:55:08Z</time>
      </trkpt>
      <trkpt lat="43.2215" lon="5.42083">
        <ele>219.56</ele>
        <time>2018-01-07T14:55:09Z</time>
      </trkpt>
      <trkpt lat="43.22151" lon="5.42081">
        <ele>219.36</ele>
        <time>2018-01-07T14:55:11Z</time>
      </trkpt>
      <trkpt lat="43.22151" lon="5.4208">
        <ele>219.27</ele>
        <time>2018-01-07T14:55:12Z</time>
      </trkpt>
      <trkpt lat="43.22151" lon="5.42078">
        <ele>219.14</ele>
        <time>2018-01-07T14:55:13Z</time>
      </trkpt>
      <trkpt lat="43.22152" lon="5.42077">
        <ele>219.03</ele>
        <time>2018-01-07T14:55:14Z</time>
      </trkpt>
      <trkpt lat="43.22164" lon="5.42058">
        <ele>218.43</ele>
        <time>2018-01-07T14:55:32Z</time>
      </trkpt>
      <trkpt lat="43.22168" lon="5.42057">
        <ele>217.82</ele>
        <time>2018-01-07T14:55:36Z</time>
      </trkpt>
      <trkpt lat="43.22169" lon="5.42056">
        <ele>217.57</ele>
        <time>2018-01-07T14:55:37Z</time>
      </trkpt>
      <trkpt lat="43.2217" lon="5.42056">
        <ele>217.29</ele>
        <time>2018-01-07T14:55:38Z</time>
      </trkpt>
      <trkpt lat="43.22171" lon="5.42056">
        <ele>217.01</ele>
        <time>2018-01-07T14:55:39Z</time>
      </trkpt>
      <trkpt lat="43.22175" lon="5.42056">
        <ele>216.22</ele>
        <time>2018-01-07T14:55:42Z</time>
      </trkpt>
      <trkpt lat="43.22176" lon="5.42056">
        <ele>215.99</ele>
        <time>2018-01-07T14:55:43Z</time>
      </trkpt>
      <trkpt lat="43.22177" lon="5.42055">
        <ele>215.75</ele>
        <time>2018-01-07T14:55:44Z</time>
      </trkpt>
      <trkpt lat="43.22178" lon="5.42055">
        <ele>215.55</ele>
        <time>2018-01-07T14:55:45Z</time>
      </trkpt>
      <trkpt lat="43.22179" lon="5.42055">
        <ele>215.44</ele>
        <time>2018-01-07T14:55:46Z</time>
      </trkpt>
      <trkpt lat="43.22197" lon="5.42048">
        <ele>213.29</ele>
        <time>2018-01-07T14:56:02Z</time>
      </trkpt>
      <trkpt lat="43.22205" lon="5.42071">
        <ele>211.79</ele>
        <time>2018-01-07T14:56:19Z</time>
      </trkpt>
      <trkpt lat="43.22201" lon="5.42088">
        <ele>211.86</ele>
        <time>2018-01-07T14:56:31Z</time>
      </trkpt>
      <trkpt lat="43.22198" lon="5.42121">
        <ele>210.38</ele>
        <time>2018-01-07T14:56:53Z</time>
      </trkpt>
      <trkpt lat="43.22208" lon="5.42149">
        <ele>208.32</ele>
        <time>2018-01-07T14:57:13Z</time>
      </trkpt>
      <trkpt lat="43.22221" lon="5.42165">
        <ele>207.56</ele>
        <time>2018-01-07T14:57:29Z</time>
      </trkpt>
      <trkpt lat="43.2223" lon="5.4219">
        <ele>205.97</ele>
        <time>2018-01-07T14:57:47Z</time>
      </trkpt>
      <trkpt lat="43.22234" lon="5.4221">
        <ele>205.18</ele>
        <time>2018-01-07T14:58:01Z</time>
      </trkpt>
      <trkpt lat="43.22234" lon="5.42211">
        <ele>205.17</ele>
        <time>2018-01-07T14:58:02Z</time>
      </trkpt>
      <trkpt lat="43.22237" lon="5.42235">
        <ele>203.29</ele>
        <time>2018-01-07T14:58:18Z</time>
      </trkpt>
      <trkpt lat="43.22237" lon="5.42236">
        <ele>203.26</ele>
        <time>2018-01-07T14:58:19Z</time>
      </trkpt>
      <trkpt lat="43.22241" lon="5.42264">
        <ele>202.61</ele>
        <time>2018-01-07T14:58:39Z</time>
      </trkpt>
      <trkpt lat="43.22241" lon="5.42267">
        <ele>202.5</ele>
        <time>2018-01-07T14:58:42Z</time>
      </trkpt>
      <trkpt lat="43.22242" lon="5.42272">
        <ele>202.15</ele>
        <time>2018-01-07T14:58:46Z</time>
      </trkpt>
      <trkpt lat="43.22246" lon="5.42282">
        <ele>202.01</ele>
        <time>2018-01-07T14:58:54Z</time>
      </trkpt>
      <trkpt lat="43.22256" lon="5.42292">
        <ele>199.54</ele>
        <time>2018-01-07T14:59:06Z</time>
      </trkpt>
      <trkpt lat="43.22256" lon="5.42293">
        <ele>199.28</ele>
        <time>2018-01-07T14:59:07Z</time>
      </trkpt>
      <trkpt lat="43.22257" lon="5.42294">
        <ele>199.07</ele>
        <time>2018-01-07T14:59:08Z</time>
      </trkpt>
      <trkpt lat="43.2227" lon="5.42306">
        <ele>201.6</ele>
        <time>2018-01-07T14:59:26Z</time>
      </trkpt>
      <trkpt lat="43.22278" lon="5.42317">
        <ele>202.78</ele>
        <time>2018-01-07T14:59:41Z</time>
      </trkpt>
      <trkpt lat="43.22288" lon="5.42331">
        <ele>204.53</ele>
        <time>2018-01-07T15:00:00Z</time>
      </trkpt>
      <trkpt lat="43.22295" lon="5.42346">
        <ele>205.59</ele>
        <time>2018-01-07T15:00:18Z</time>
      </trkpt>
      <trkpt lat="43.223" lon="5.42361">
        <ele>206.92</ele>
        <time>2018-01-07T15:00:35Z</time>
      </trkpt>
      <trkpt lat="43.22305" lon="5.42371">
        <ele>208.29</ele>
        <time>2018-01-07T15:00:48Z</time>
      </trkpt>
      <trkpt lat="43.22316" lon="5.42381">
        <ele>208.07</ele>
        <time>2018-01-07T15:01:06Z</time>
      </trkpt>
      <trkpt lat="43.22328" lon="5.42388">
        <ele>210.97</ele>
        <time>2018-01-07T15:01:23Z</time>
      </trkpt>
      <trkpt lat="43.22339" lon="5.42393">
        <ele>214.03</ele>
        <time>2018-01-07T15:01:39Z</time>
      </trkpt>
      <trkpt lat="43.22348" lon="5.42397">
        <ele>215.8</ele>
        <time>2018-01-07T15:01:54Z</time>
      </trkpt>
      <trkpt lat="43.22361" lon="5.424">
        <ele>217.33</ele>
        <time>2018-01-07T15:02:13Z</time>
      </trkpt>
      <trkpt lat="43.22367" lon="5.42402">
        <ele>218.86</ele>
        <time>2018-01-07T15:02:19Z</time>
      </trkpt>
      <trkpt lat="43.22381" lon="5.42397">
        <ele>219.52</ele>
        <time>2018-01-07T15:02:33Z</time>
      </trkpt>
      <trkpt lat="43.22378" lon="5.42396">
        <ele>220.84</ele>
        <time>2018-01-07T15:02:46Z</time>
      </trkpt>
      <trkpt lat="43.22377" lon="5.42396">
        <ele>219.42</ele>
        <time>2018-01-07T15:03:02Z</time>
      </trkpt>
      <trkpt lat="43.22375" lon="5.42397">
        <ele>218.34</ele>
        <time>2018-01-07T15:03:50Z</time>
      </trkpt>
      <trkpt lat="43.22374" lon="5.42399">
        <ele>217.19</ele>
        <time>2018-01-07T15:04:45Z</time>
      </trkpt>
      <trkpt lat="43.22375" lon="5.42398">
        <ele>220.23</ele>
        <time>2018-01-07T15:05:38Z</time>
      </trkpt>
      <trkpt lat="43.22376" lon="5.42396">
        <ele>219.06</ele>
        <time>2018-01-07T15:06:24Z</time>
      </trkpt>
      <trkpt lat="43.22382" lon="5.42395">
        <ele>222</ele>
        <time>2018-01-07T15:06:33Z</time>
      </trkpt>
      <trkpt lat="43.22395" lon="5.42392">
        <ele>221.1</ele>
        <time>2018-01-07T15:06:51Z</time>
      </trkpt>
      <trkpt lat="43.22411" lon="5.42391">
        <ele>222.7</ele>
        <time>2018-01-07T15:07:16Z</time>
      </trkpt>
      <trkpt lat="43.22423" lon="5.42393">
        <ele>224.24</ele>
        <time>2018-01-07T15:07:35Z</time>
      </trkpt>
      <trkpt lat="43.22439" lon="5.42396">
        <ele>224.44</ele>
        <time>2018-01-07T15:07:58Z</time>
      </trkpt>
      <trkpt lat="43.22451" lon="5.42397">
        <ele>227.28</ele>
        <time>2018-01-07T15:08:16Z</time>
      </trkpt>
      <trkpt lat="43.22461" lon="5.424">
        <ele>228.75</ele>
        <time>2018-01-07T15:08:31Z</time>
      </trkpt>
      <trkpt lat="43.22473" lon="5.42403">
        <ele>227.83</ele>
        <time>2018-01-07T15:08:52Z</time>
      </trkpt>
      <trkpt lat="43.22479" lon="5.42401">
        <ele>230.54</ele>
        <time>2018-01-07T15:09:07Z</time>
      </trkpt>
      <trkpt lat="43.2249" lon="5.42397">
        <ele>230.32</ele>
        <time>2018-01-07T15:09:25Z</time>
      </trkpt>
      <trkpt lat="43.22499" lon="5.42387">
        <ele>231.5</ele>
        <time>2018-01-07T15:09:42Z</time>
      </trkpt>
      <trkpt lat="43.22509" lon="5.42376">
        <ele>232.71</ele>
        <time>2018-01-07T15:09:59Z</time>
      </trkpt>
      <trkpt lat="43.22522" lon="5.42371">
        <ele>233.62</ele>
        <time>2018-01-07T15:10:16Z</time>
      </trkpt>
      <trkpt lat="43.22533" lon="5.42376">
        <ele>234.81</ele>
        <time>2018-01-07T15:10:32Z</time>
      </trkpt>
      <trkpt lat="43.22542" lon="5.42386">
        <ele>236.59</ele>
        <time>2018-01-07T15:10:47Z</time>
      </trkpt>
      <trkpt lat="43.2255" lon="5.42397">
        <ele>239.62</ele>
        <time>2018-01-07T15:11:01Z</time>
      </trkpt>
      <trkpt lat="43.22556" lon="5.4241">
        <ele>241.29</ele>
        <time>2018-01-07T15:11:17Z</time>
      </trkpt>
      <trkpt lat="43.22564" lon="5.42422">
        <ele>240.86</ele>
        <time>2018-01-07T15:11:32Z</time>
      </trkpt>
      <trkpt lat="43.22576" lon="5.42438">
        <ele>243</ele>
        <time>2018-01-07T15:11:52Z</time>
      </trkpt>
      <trkpt lat="43.22577" lon="5.42438">
        <ele>243</ele>
        <time>2018-01-07T15:11:53Z</time>
      </trkpt>
      <trkpt lat="43.22578" lon="5.42439">
        <ele>243</ele>
        <time>2018-01-07T15:11:54Z</time>
      </trkpt>
      <trkpt lat="43.22579" lon="5.4244">
        <ele>243.02</ele>
        <time>2018-01-07T15:11:55Z</time>
      </trkpt>
      <trkpt lat="43.2258" lon="5.42441">
        <ele>243.06</ele>
        <time>2018-01-07T15:11:56Z</time>
      </trkpt>
      <trkpt lat="43.22596" lon="5.42454">
        <ele>244.52</ele>
        <time>2018-01-07T15:12:13Z</time>
      </trkpt>
      <trkpt lat="43.22617" lon="5.42459">
        <ele>244.99</ele>
        <time>2018-01-07T15:12:33Z</time>
      </trkpt>
      <trkpt lat="43.22643" lon="5.42457">
        <ele>242.6</ele>
        <time>2018-01-07T15:12:56Z</time>
      </trkpt>
      <trkpt lat="43.22647" lon="5.42457">
        <ele>242.25</ele>
        <time>2018-01-07T15:13:00Z</time>
      </trkpt>
      <trkpt lat="43.22648" lon="5.42456">
        <ele>242.2</ele>
        <time>2018-01-07T15:13:01Z</time>
      </trkpt>
      <trkpt lat="43.22667" lon="5.42452">
        <ele>241.81</ele>
        <time>2018-01-07T15:13:19Z</time>
      </trkpt>
      <trkpt lat="43.22684" lon="5.4245">
        <ele>242</ele>
        <time>2018-01-07T15:13:35Z</time>
      </trkpt>
      <trkpt lat="43.22685" lon="5.42448">
        <ele>242</ele>
        <time>2018-01-07T15:13:36Z</time>
      </trkpt>
      <trkpt lat="43.22686" lon="5.42448">
        <ele>241.97</ele>
        <time>2018-01-07T15:13:37Z</time>
      </trkpt>
      <trkpt lat="43.22687" lon="5.42447">
        <ele>241.9</ele>
        <time>2018-01-07T15:13:38Z</time>
      </trkpt>
      <trkpt lat="43.22688" lon="5.42447">
        <ele>241.81</ele>
        <time>2018-01-07T15:13:39Z</time>
      </trkpt>
      <trkpt lat="43.22689" lon="5.42446">
        <ele>241.75</ele>
        <time>2018-01-07T15:13:40Z</time>
      </trkpt>
      <trkpt lat="43.22706" lon="5.42444">
        <ele>241.07</ele>
        <time>2018-01-07T15:13:58Z</time>
      </trkpt>
      <trkpt lat="43.22718" lon="5.42444">
        <ele>243.43</ele>
        <time>2018-01-07T15:14:13Z</time>
      </trkpt>
      <trkpt lat="43.22736" lon="5.42447">
        <ele>244.1</ele>
        <time>2018-01-07T15:14:31Z</time>
      </trkpt>
      <trkpt lat="43.2274" lon="5.4245">
        <ele>244.17</ele>
        <time>2018-01-07T15:14:36Z</time>
      </trkpt>
      <trkpt lat="43.22749" lon="5.4246">
        <ele>243.36</ele>
        <time>2018-01-07T15:14:48Z</time>
      </trkpt>
      <trkpt lat="43.2275" lon="5.42462">
        <ele>243.32</ele>
        <time>2018-01-07T15:14:49Z</time>
      </trkpt>
      <trkpt lat="43.2275" lon="5.42463">
        <ele>243.25</ele>
        <time>2018-01-07T15:14:50Z</time>
      </trkpt>
      <trkpt lat="43.22754" lon="5.42479">
        <ele>241.97</ele>
        <time>2018-01-07T15:15:02Z</time>
      </trkpt>
      <trkpt lat="43.22754" lon="5.42491">
        <ele>241.22</ele>
        <time>2018-01-07T15:15:10Z</time>
      </trkpt>
      <trkpt lat="43.22757" lon="5.4251">
        <ele>239.81</ele>
        <time>2018-01-07T15:15:23Z</time>
      </trkpt>
      <trkpt lat="43.22767" lon="5.42526">
        <ele>238.28</ele>
        <time>2018-01-07T15:15:38Z</time>
      </trkpt>
      <trkpt lat="43.22777" lon="5.42543">
        <ele>236.01</ele>
        <time>2018-01-07T15:15:54Z</time>
      </trkpt>
      <trkpt lat="43.22783" lon="5.42552">
        <ele>235.57</ele>
        <time>2018-01-07T15:16:02Z</time>
      </trkpt>
      <trkpt lat="43.22784" lon="5.42553">
        <ele>235.45</ele>
        <time>2018-01-07T15:16:03Z</time>
      </trkpt>
      <trkpt lat="43.22784" lon="5.42554">
        <ele>235.23</ele>
        <time>2018-01-07T15:16:04Z</time>
      </trkpt>
      <trkpt lat="43.22785" lon="5.42555">
        <ele>234.97</ele>
        <time>2018-01-07T15:16:05Z</time>
      </trkpt>
      <trkpt lat="43.22786" lon="5.42557">
        <ele>234.68</ele>
        <time>2018-01-07T15:16:06Z</time>
      </trkpt>
      <trkpt lat="43.22787" lon="5.42559">
        <ele>234.13</ele>
        <time>2018-01-07T15:16:08Z</time>
      </trkpt>
      <trkpt lat="43.22788" lon="5.42562">
        <ele>233.64</ele>
        <time>2018-01-07T15:16:10Z</time>
      </trkpt>
      <trkpt lat="43.22789" lon="5.42563">
        <ele>233.47</ele>
        <time>2018-01-07T15:16:11Z</time>
      </trkpt>
      <trkpt lat="43.22797" lon="5.42582">
        <ele>232.42</ele>
        <time>2018-01-07T15:16:25Z</time>
      </trkpt>
      <trkpt lat="43.22804" lon="5.42608">
        <ele>232.71</ele>
        <time>2018-01-07T15:16:42Z</time>
      </trkpt>
      <trkpt lat="43.2281" lon="5.42633">
        <ele>231.83</ele>
        <time>2018-01-07T15:16:59Z</time>
      </trkpt>
      <trkpt lat="43.22816" lon="5.42653">
        <ele>231.94</ele>
        <time>2018-01-07T15:17:13Z</time>
      </trkpt>
      <trkpt lat="43.22825" lon="5.4267">
        <ele>233.34</ele>
        <time>2018-01-07T15:17:28Z</time>
      </trkpt>
      <trkpt lat="43.22834" lon="5.4269">
        <ele>230.05</ele>
        <time>2018-01-07T15:17:44Z</time>
      </trkpt>
      <trkpt lat="43.22846" lon="5.42704">
        <ele>228.37</ele>
        <time>2018-01-07T15:17:59Z</time>
      </trkpt>
      <trkpt lat="43.22847" lon="5.42704">
        <ele>228.36</ele>
        <time>2018-01-07T15:18:00Z</time>
      </trkpt>
      <trkpt lat="43.2286" lon="5.42705">
        <ele>227.23</ele>
        <time>2018-01-07T15:18:11Z</time>
      </trkpt>
      <trkpt lat="43.22861" lon="5.42705">
        <ele>227.19</ele>
        <time>2018-01-07T15:18:12Z</time>
      </trkpt>
      <trkpt lat="43.22862" lon="5.42705">
        <ele>227.21</ele>
        <time>2018-01-07T15:18:13Z</time>
      </trkpt>
      <trkpt lat="43.22879" lon="5.42707">
        <ele>228.18</ele>
        <time>2018-01-07T15:18:29Z</time>
      </trkpt>
      <trkpt lat="43.2288" lon="5.42707">
        <ele>228.21</ele>
        <time>2018-01-07T15:18:30Z</time>
      </trkpt>
      <trkpt lat="43.22898" lon="5.42709">
        <ele>229.17</ele>
        <time>2018-01-07T15:18:47Z</time>
      </trkpt>
      <trkpt lat="43.22915" lon="5.42716">
        <ele>226.67</ele>
        <time>2018-01-07T15:19:04Z</time>
      </trkpt>
      <trkpt lat="43.22932" lon="5.4273">
        <ele>225.25</ele>
        <time>2018-01-07T15:19:21Z</time>
      </trkpt>
      <trkpt lat="43.22951" lon="5.42734">
        <ele>222.39</ele>
        <time>2018-01-07T15:19:37Z</time>
      </trkpt>
      <trkpt lat="43.22968" lon="5.42731">
        <ele>222.1</ele>
        <time>2018-01-07T15:19:51Z</time>
      </trkpt>
      <trkpt lat="43.22987" lon="5.42725">
        <ele>219.29</ele>
        <time>2018-01-07T15:20:08Z</time>
      </trkpt>
      <trkpt lat="43.23002" lon="5.42717">
        <ele>218.08</ele>
        <time>2018-01-07T15:20:21Z</time>
      </trkpt>
      <trkpt lat="43.23003" lon="5.42716">
        <ele>218.03</ele>
        <time>2018-01-07T15:20:22Z</time>
      </trkpt>
      <trkpt lat="43.23008" lon="5.42714">
        <ele>217.68</ele>
        <time>2018-01-07T15:20:26Z</time>
      </trkpt>
      <trkpt lat="43.23009" lon="5.42715">
        <ele>217.56</ele>
        <time>2018-01-07T15:20:27Z</time>
      </trkpt>
      <trkpt lat="43.23009" lon="5.42716">
        <ele>217.43</ele>
        <time>2018-01-07T15:20:28Z</time>
      </trkpt>
      <trkpt lat="43.2301" lon="5.42717">
        <ele>217.28</ele>
        <time>2018-01-07T15:20:29Z</time>
      </trkpt>
      <trkpt lat="43.23006" lon="5.42726">
        <ele>215.8</ele>
        <time>2018-01-07T15:20:45Z</time>
      </trkpt>
      <trkpt lat="43.22997" lon="5.42733">
        <ele>214.09</ele>
        <time>2018-01-07T15:20:56Z</time>
      </trkpt>
      <trkpt lat="43.22997" lon="5.42733">
        <ele>213.99</ele>
        <time>2018-01-07T15:20:57Z</time>
      </trkpt>
      <trkpt lat="43.22993" lon="5.42738">
        <ele>214.33</ele>
        <time>2018-01-07T15:21:10Z</time>
      </trkpt>
      <trkpt lat="43.2299" lon="5.42742">
        <ele>213</ele>
        <time>2018-01-07T15:21:18Z</time>
      </trkpt>
      <trkpt lat="43.22987" lon="5.42745">
        <ele>212.39</ele>
        <time>2018-01-07T15:21:21Z</time>
      </trkpt>
      <trkpt lat="43.22986" lon="5.42746">
        <ele>212.28</ele>
        <time>2018-01-07T15:21:22Z</time>
      </trkpt>
      <trkpt lat="43.22985" lon="5.42747">
        <ele>212.21</ele>
        <time>2018-01-07T15:21:23Z</time>
      </trkpt>
      <trkpt lat="43.22971" lon="5.42755">
        <ele>210.7</ele>
        <time>2018-01-07T15:21:37Z</time>
      </trkpt>
      <trkpt lat="43.22959" lon="5.42764">
        <ele>210.92</ele>
        <time>2018-01-07T15:21:47Z</time>
      </trkpt>
      <trkpt lat="43.22956" lon="5.42767">
        <ele>211.35</ele>
        <time>2018-01-07T15:21:50Z</time>
      </trkpt>
      <trkpt lat="43.22955" lon="5.42768">
        <ele>211.74</ele>
        <time>2018-01-07T15:21:51Z</time>
      </trkpt>
      <trkpt lat="43.22938" lon="5.42776">
        <ele>212.87</ele>
        <time>2018-01-07T15:22:08Z</time>
      </trkpt>
      <trkpt lat="43.22933" lon="5.42775">
        <ele>213.21</ele>
        <time>2018-01-07T15:22:13Z</time>
      </trkpt>
      <trkpt lat="43.22932" lon="5.42775">
        <ele>213.21</ele>
        <time>2018-01-07T15:22:14Z</time>
      </trkpt>
      <trkpt lat="43.22931" lon="5.42775">
        <ele>213.27</ele>
        <time>2018-01-07T15:22:15Z</time>
      </trkpt>
      <trkpt lat="43.22927" lon="5.42775">
        <ele>212.95</ele>
        <time>2018-01-07T15:22:18Z</time>
      </trkpt>
      <trkpt lat="43.22926" lon="5.42774">
        <ele>212.83</ele>
        <time>2018-01-07T15:22:19Z</time>
      </trkpt>
      <trkpt lat="43.22925" lon="5.42774">
        <ele>212.71</ele>
        <time>2018-01-07T15:22:20Z</time>
      </trkpt>
      <trkpt lat="43.22919" lon="5.42772">
        <ele>212.04</ele>
        <time>2018-01-07T15:22:25Z</time>
      </trkpt>
      <trkpt lat="43.22918" lon="5.42772">
        <ele>211.84</ele>
        <time>2018-01-07T15:22:26Z</time>
      </trkpt>
      <trkpt lat="43.22905" lon="5.42764">
        <ele>209.36</ele>
        <time>2018-01-07T15:22:39Z</time>
      </trkpt>
      <trkpt lat="43.22902" lon="5.42764">
        <ele>208.64</ele>
        <time>2018-01-07T15:22:41Z</time>
      </trkpt>
      <trkpt lat="43.22901" lon="5.42763">
        <ele>208.37</ele>
        <time>2018-01-07T15:22:42Z</time>
      </trkpt>
      <trkpt lat="43.22899" lon="5.42762">
        <ele>208.09</ele>
        <time>2018-01-07T15:22:43Z</time>
      </trkpt>
      <trkpt lat="43.22898" lon="5.42761">
        <ele>207.86</ele>
        <time>2018-01-07T15:22:44Z</time>
      </trkpt>
      <trkpt lat="43.22897" lon="5.4276">
        <ele>207.66</ele>
        <time>2018-01-07T15:22:45Z</time>
      </trkpt>
      <trkpt lat="43.22879" lon="5.42759">
        <ele>205.49</ele>
        <time>2018-01-07T15:23:00Z</time>
      </trkpt>
      <trkpt lat="43.22873" lon="5.42765">
        <ele>205.64</ele>
        <time>2018-01-07T15:23:06Z</time>
      </trkpt>
      <trkpt lat="43.22873" lon="5.42766">
        <ele>205.61</ele>
        <time>2018-01-07T15:23:07Z</time>
      </trkpt>
      <trkpt lat="43.22872" lon="5.42767">
        <ele>205.53</ele>
        <time>2018-01-07T15:23:08Z</time>
      </trkpt>
      <trkpt lat="43.22871" lon="5.42768">
        <ele>205.41</ele>
        <time>2018-01-07T15:23:09Z</time>
      </trkpt>
      <trkpt lat="43.22855" lon="5.4279">
        <ele>204.41</ele>
        <time>2018-01-07T15:23:27Z</time>
      </trkpt>
      <trkpt lat="43.22846" lon="5.42795">
        <ele>203.72</ele>
        <time>2018-01-07T15:23:41Z</time>
      </trkpt>
      <trkpt lat="43.22832" lon="5.42789">
        <ele>202.96</ele>
        <time>2018-01-07T15:23:57Z</time>
      </trkpt>
      <trkpt lat="43.22831" lon="5.42788">
        <ele>202.86</ele>
        <time>2018-01-07T15:23:58Z</time>
      </trkpt>
      <trkpt lat="43.2283" lon="5.42787">
        <ele>202.67</ele>
        <time>2018-01-07T15:23:59Z</time>
      </trkpt>
      <trkpt lat="43.22825" lon="5.42781">
        <ele>201.98</ele>
        <time>2018-01-07T15:24:05Z</time>
      </trkpt>
      <trkpt lat="43.22825" lon="5.42779">
        <ele>201.89</ele>
        <time>2018-01-07T15:24:06Z</time>
      </trkpt>
      <trkpt lat="43.22824" lon="5.42778">
        <ele>201.84</ele>
        <time>2018-01-07T15:24:07Z</time>
      </trkpt>
      <trkpt lat="43.22813" lon="5.42765">
        <ele>201.42</ele>
        <time>2018-01-07T15:24:19Z</time>
      </trkpt>
      <trkpt lat="43.22813" lon="5.42764">
        <ele>201.26</ele>
        <time>2018-01-07T15:24:20Z</time>
      </trkpt>
      <trkpt lat="43.22807" lon="5.42756">
        <ele>201.51</ele>
        <time>2018-01-07T15:24:27Z</time>
      </trkpt>
      <trkpt lat="43.228" lon="5.42745">
        <ele>201.44</ele>
        <time>2018-01-07T15:24:39Z</time>
      </trkpt>
      <trkpt lat="43.22789" lon="5.4273">
        <ele>200.8</ele>
        <time>2018-01-07T15:24:50Z</time>
      </trkpt>
      <trkpt lat="43.22788" lon="5.42728">
        <ele>200.76</ele>
        <time>2018-01-07T15:24:51Z</time>
      </trkpt>
      <trkpt lat="43.22786" lon="5.42724">
        <ele>200</ele>
        <time>2018-01-07T15:24:54Z</time>
      </trkpt>
      <trkpt lat="43.22785" lon="5.42723">
        <ele>199.68</ele>
        <time>2018-01-07T15:24:55Z</time>
      </trkpt>
      <trkpt lat="43.22784" lon="5.42722">
        <ele>199.43</ele>
        <time>2018-01-07T15:24:56Z</time>
      </trkpt>
      <trkpt lat="43.22783" lon="5.42721">
        <ele>199.21</ele>
        <time>2018-01-07T15:24:57Z</time>
      </trkpt>
      <trkpt lat="43.22782" lon="5.4272">
        <ele>199.05</ele>
        <time>2018-01-07T15:24:58Z</time>
      </trkpt>
      <trkpt lat="43.22781" lon="5.42719">
        <ele>198.91</ele>
        <time>2018-01-07T15:24:59Z</time>
      </trkpt>
      <trkpt lat="43.22781" lon="5.42717">
        <ele>198.77</ele>
        <time>2018-01-07T15:25:00Z</time>
      </trkpt>
      <trkpt lat="43.2278" lon="5.42716">
        <ele>198.62</ele>
        <time>2018-01-07T15:25:01Z</time>
      </trkpt>
      <trkpt lat="43.22765" lon="5.42693">
        <ele>197.5</ele>
        <time>2018-01-07T15:25:20Z</time>
      </trkpt>
      <trkpt lat="43.22753" lon="5.4267">
        <ele>196.17</ele>
        <time>2018-01-07T15:25:38Z</time>
      </trkpt>
      <trkpt lat="43.22744" lon="5.42654">
        <ele>193.11</ele>
        <time>2018-01-07T15:25:50Z</time>
      </trkpt>
      <trkpt lat="43.22731" lon="5.42629">
        <ele>190.55</ele>
        <time>2018-01-07T15:26:09Z</time>
      </trkpt>
      <trkpt lat="43.22726" lon="5.42621">
        <ele>187.87</ele>
        <time>2018-01-07T15:26:16Z</time>
      </trkpt>
      <trkpt lat="43.22711" lon="5.426">
        <ele>190.24</ele>
        <time>2018-01-07T15:26:35Z</time>
      </trkpt>
      <trkpt lat="43.22699" lon="5.42589">
        <ele>191.18</ele>
        <time>2018-01-07T15:26:48Z</time>
      </trkpt>
      <trkpt lat="43.22698" lon="5.42589">
        <ele>191.36</ele>
        <time>2018-01-07T15:26:49Z</time>
      </trkpt>
      <trkpt lat="43.22696" lon="5.42588">
        <ele>191.52</ele>
        <time>2018-01-07T15:26:50Z</time>
      </trkpt>
      <trkpt lat="43.22695" lon="5.42588">
        <ele>191.65</ele>
        <time>2018-01-07T15:26:51Z</time>
      </trkpt>
      <trkpt lat="43.22692" lon="5.42592">
        <ele>191.95</ele>
        <time>2018-01-07T15:26:58Z</time>
      </trkpt>
      <trkpt lat="43.22692" lon="5.42593">
        <ele>191.64</ele>
        <time>2018-01-07T15:26:59Z</time>
      </trkpt>
      <trkpt lat="43.22696" lon="5.42596">
        <ele>188.61</ele>
        <time>2018-01-07T15:27:04Z</time>
      </trkpt>
      <trkpt lat="43.22701" lon="5.42597">
        <ele>185.12</ele>
        <time>2018-01-07T15:27:09Z</time>
      </trkpt>
      <trkpt lat="43.22701" lon="5.42597">
        <ele>185.02</ele>
        <time>2018-01-07T15:27:10Z</time>
      </trkpt>
      <trkpt lat="43.22705" lon="5.42604">
        <ele>187.94</ele>
        <time>2018-01-07T15:27:34Z</time>
      </trkpt>
      <trkpt lat="43.22709" lon="5.42621">
        <ele>185.62</ele>
        <time>2018-01-07T15:27:53Z</time>
      </trkpt>
      <trkpt lat="43.22712" lon="5.42628">
        <ele>184.84</ele>
        <time>2018-01-07T15:27:58Z</time>
      </trkpt>
      <trkpt lat="43.22713" lon="5.42632">
        <ele>184.45</ele>
        <time>2018-01-07T15:28:00Z</time>
      </trkpt>
      <trkpt lat="43.22713" lon="5.42634">
        <ele>184.14</ele>
        <time>2018-01-07T15:28:01Z</time>
      </trkpt>
      <trkpt lat="43.22713" lon="5.42635">
        <ele>183.99</ele>
        <time>2018-01-07T15:28:02Z</time>
      </trkpt>
      <trkpt lat="43.22714" lon="5.42637">
        <ele>183.84</ele>
        <time>2018-01-07T15:28:03Z</time>
      </trkpt>
      <trkpt lat="43.22714" lon="5.42639">
        <ele>183.7</ele>
        <time>2018-01-07T15:28:04Z</time>
      </trkpt>
      <trkpt lat="43.22715" lon="5.42641">
        <ele>183.55</ele>
        <time>2018-01-07T15:28:05Z</time>
      </trkpt>
      <trkpt lat="43.22723" lon="5.42658">
        <ele>181.78</ele>
        <time>2018-01-07T15:28:19Z</time>
      </trkpt>
      <trkpt lat="43.22726" lon="5.42671">
        <ele>179.06</ele>
        <time>2018-01-07T15:28:30Z</time>
      </trkpt>
      <trkpt lat="43.22726" lon="5.42672">
        <ele>178.9</ele>
        <time>2018-01-07T15:28:31Z</time>
      </trkpt>
      <trkpt lat="43.2273" lon="5.42693">
        <ele>179.27</ele>
        <time>2018-01-07T15:28:45Z</time>
      </trkpt>
      <trkpt lat="43.22732" lon="5.42703">
        <ele>178.48</ele>
        <time>2018-01-07T15:28:52Z</time>
      </trkpt>
      <trkpt lat="43.22732" lon="5.42705">
        <ele>178.29</ele>
        <time>2018-01-07T15:28:53Z</time>
      </trkpt>
      <trkpt lat="43.22732" lon="5.42706">
        <ele>178.07</ele>
        <time>2018-01-07T15:28:54Z</time>
      </trkpt>
      <trkpt lat="43.22732" lon="5.42713">
        <ele>176.9</ele>
        <time>2018-01-07T15:28:58Z</time>
      </trkpt>
      <trkpt lat="43.22732" lon="5.42715">
        <ele>176.64</ele>
        <time>2018-01-07T15:28:59Z</time>
      </trkpt>
      <trkpt lat="43.22734" lon="5.42725">
        <ele>175.35</ele>
        <time>2018-01-07T15:29:06Z</time>
      </trkpt>
      <trkpt lat="43.22736" lon="5.4273">
        <ele>175.2</ele>
        <time>2018-01-07T15:29:09Z</time>
      </trkpt>
      <trkpt lat="43.22744" lon="5.42755">
        <ele>173.29</ele>
        <time>2018-01-07T15:29:25Z</time>
      </trkpt>
      <trkpt lat="43.22747" lon="5.42762">
        <ele>172.37</ele>
        <time>2018-01-07T15:29:30Z</time>
      </trkpt>
      <trkpt lat="43.22748" lon="5.42785">
        <ele>170.08</ele>
        <time>2018-01-07T15:29:45Z</time>
      </trkpt>
      <trkpt lat="43.22747" lon="5.42801">
        <ele>170.55</ele>
        <time>2018-01-07T15:29:55Z</time>
      </trkpt>
      <trkpt lat="43.22747" lon="5.42805">
        <ele>170.37</ele>
        <time>2018-01-07T15:29:58Z</time>
      </trkpt>
      <trkpt lat="43.22751" lon="5.42823">
        <ele>171.14</ele>
        <time>2018-01-07T15:30:15Z</time>
      </trkpt>
      <trkpt lat="43.22756" lon="5.42842">
        <ele>168.33</ele>
        <time>2018-01-07T15:30:35Z</time>
      </trkpt>
      <trkpt lat="43.22758" lon="5.42845">
        <ele>167.25</ele>
        <time>2018-01-07T15:30:38Z</time>
      </trkpt>
      <trkpt lat="43.2276" lon="5.42853">
        <ele>166.02</ele>
        <time>2018-01-07T15:30:43Z</time>
      </trkpt>
      <trkpt lat="43.22761" lon="5.42854">
        <ele>165.82</ele>
        <time>2018-01-07T15:30:44Z</time>
      </trkpt>
      <trkpt lat="43.22766" lon="5.42867">
        <ele>165.51</ele>
        <time>2018-01-07T15:30:53Z</time>
      </trkpt>
      <trkpt lat="43.22767" lon="5.42868">
        <ele>165.58</ele>
        <time>2018-01-07T15:30:54Z</time>
      </trkpt>
      <trkpt lat="43.22767" lon="5.42869">
        <ele>165.63</ele>
        <time>2018-01-07T15:30:55Z</time>
      </trkpt>
      <trkpt lat="43.22768" lon="5.42871">
        <ele>165.68</ele>
        <time>2018-01-07T15:30:56Z</time>
      </trkpt>
      <trkpt lat="43.22768" lon="5.42873">
        <ele>165.72</ele>
        <time>2018-01-07T15:30:57Z</time>
      </trkpt>
      <trkpt lat="43.22768" lon="5.42875">
        <ele>165.75</ele>
        <time>2018-01-07T15:30:58Z</time>
      </trkpt>
      <trkpt lat="43.22766" lon="5.42899">
        <ele>162.73</ele>
        <time>2018-01-07T15:31:15Z</time>
      </trkpt>
      <trkpt lat="43.22761" lon="5.42915">
        <ele>162.22</ele>
        <time>2018-01-07T15:31:24Z</time>
      </trkpt>
      <trkpt lat="43.2276" lon="5.4292">
        <ele>163.08</ele>
        <time>2018-01-07T15:31:27Z</time>
      </trkpt>
      <trkpt lat="43.22754" lon="5.42942">
        <ele>163.67</ele>
        <time>2018-01-07T15:31:43Z</time>
      </trkpt>
      <trkpt lat="43.22747" lon="5.42964">
        <ele>160.65</ele>
        <time>2018-01-07T15:31:59Z</time>
      </trkpt>
      <trkpt lat="43.22739" lon="5.42985">
        <ele>159.44</ele>
        <time>2018-01-07T15:32:14Z</time>
      </trkpt>
      <trkpt lat="43.22734" lon="5.43009">
        <ele>157.32</ele>
        <time>2018-01-07T15:32:31Z</time>
      </trkpt>
      <trkpt lat="43.22734" lon="5.4301">
        <ele>157.16</ele>
        <time>2018-01-07T15:32:32Z</time>
      </trkpt>
      <trkpt lat="43.22734" lon="5.43012">
        <ele>157.02</ele>
        <time>2018-01-07T15:32:33Z</time>
      </trkpt>
      <trkpt lat="43.22734" lon="5.43013">
        <ele>156.88</ele>
        <time>2018-01-07T15:32:34Z</time>
      </trkpt>
      <trkpt lat="43.22734" lon="5.43014">
        <ele>156.69</ele>
        <time>2018-01-07T15:32:35Z</time>
      </trkpt>
      <trkpt lat="43.22734" lon="5.43016">
        <ele>156.47</ele>
        <time>2018-01-07T15:32:36Z</time>
      </trkpt>
      <trkpt lat="43.22734" lon="5.43017">
        <ele>156.22</ele>
        <time>2018-01-07T15:32:37Z</time>
      </trkpt>
      <trkpt lat="43.22741" lon="5.4304">
        <ele>156.68</ele>
        <time>2018-01-07T15:32:56Z</time>
      </trkpt>
      <trkpt lat="43.22744" lon="5.43046">
        <ele>155.64</ele>
        <time>2018-01-07T15:33:10Z</time>
      </trkpt>
      <trkpt lat="43.2275" lon="5.4305">
        <ele>154.69</ele>
        <time>2018-01-07T15:33:25Z</time>
      </trkpt>
      <trkpt lat="43.22763" lon="5.43058">
        <ele>155.56</ele>
        <time>2018-01-07T15:33:41Z</time>
      </trkpt>
      <trkpt lat="43.22778" lon="5.43068">
        <ele>155.38</ele>
        <time>2018-01-07T15:33:58Z</time>
      </trkpt>
      <trkpt lat="43.22794" lon="5.43074">
        <ele>154.88</ele>
        <time>2018-01-07T15:34:17Z</time>
      </trkpt>
      <trkpt lat="43.22807" lon="5.43069">
        <ele>152.41</ele>
        <time>2018-01-07T15:34:33Z</time>
      </trkpt>
      <trkpt lat="43.22818" lon="5.43075">
        <ele>151.11</ele>
        <time>2018-01-07T15:34:51Z</time>
      </trkpt>
      <trkpt lat="43.22829" lon="5.43083">
        <ele>151.31</ele>
        <time>2018-01-07T15:35:10Z</time>
      </trkpt>
      <trkpt lat="43.22837" lon="5.43091">
        <ele>151.65</ele>
        <time>2018-01-07T15:35:27Z</time>
      </trkpt>
      <trkpt lat="43.22839" lon="5.43095">
        <ele>153.21</ele>
        <time>2018-01-07T15:35:43Z</time>
      </trkpt>
      <trkpt lat="43.22847" lon="5.431">
        <ele>155.01</ele>
        <time>2018-01-07T15:36:02Z</time>
      </trkpt>
      <trkpt lat="43.22849" lon="5.43101">
        <ele>155.15</ele>
        <time>2018-01-07T15:36:04Z</time>
      </trkpt>
      <trkpt lat="43.2285" lon="5.43102">
        <ele>155.19</ele>
        <time>2018-01-07T15:36:05Z</time>
      </trkpt>
      <trkpt lat="43.22851" lon="5.43102">
        <ele>155.21</ele>
        <time>2018-01-07T15:36:06Z</time>
      </trkpt>
      <trkpt lat="43.22852" lon="5.43102">
        <ele>155.19</ele>
        <time>2018-01-07T15:36:07Z</time>
      </trkpt>
      <trkpt lat="43.22853" lon="5.43103">
        <ele>155.15</ele>
        <time>2018-01-07T15:36:08Z</time>
      </trkpt>
      <trkpt lat="43.22854" lon="5.43105">
        <ele>155.08</ele>
        <time>2018-01-07T15:36:09Z</time>
      </trkpt>
      <trkpt lat="43.22855" lon="5.43106">
        <ele>155.02</ele>
        <time>2018-01-07T15:36:10Z</time>
      </trkpt>
      <trkpt lat="43.22868" lon="5.43121">
        <ele>153.03</ele>
        <time>2018-01-07T15:36:27Z</time>
      </trkpt>
      <trkpt lat="43.22879" lon="5.4313">
        <ele>151.95</ele>
        <time>2018-01-07T15:36:42Z</time>
      </trkpt>
      <trkpt lat="43.22895" lon="5.43139">
        <ele>150.11</ele>
        <time>2018-01-07T15:36:58Z</time>
      </trkpt>
      <trkpt lat="43.22911" lon="5.43152">
        <ele>149.02</ele>
        <time>2018-01-07T15:37:13Z</time>
      </trkpt>
      <trkpt lat="43.22913" lon="5.43153">
        <ele>149.02</ele>
        <time>2018-01-07T15:37:15Z</time>
      </trkpt>
      <trkpt lat="43.22914" lon="5.43154">
        <ele>149.05</ele>
        <time>2018-01-07T15:37:16Z</time>
      </trkpt>
      <trkpt lat="43.22915" lon="5.43155">
        <ele>149.1</ele>
        <time>2018-01-07T15:37:17Z</time>
      </trkpt>
      <trkpt lat="43.2293" lon="5.43165">
        <ele>150.82</ele>
        <time>2018-01-07T15:37:35Z</time>
      </trkpt>
      <trkpt lat="43.22945" lon="5.43164">
        <ele>150.85</ele>
        <time>2018-01-07T15:37:53Z</time>
      </trkpt>
      <trkpt lat="43.22951" lon="5.43162">
        <ele>151.83</ele>
        <time>2018-01-07T15:37:59Z</time>
      </trkpt>
      <trkpt lat="43.22962" lon="5.43151">
        <ele>151.53</ele>
        <time>2018-01-07T15:38:14Z</time>
      </trkpt>
      <trkpt lat="43.22968" lon="5.43134">
        <ele>154</ele>
        <time>2018-01-07T15:38:30Z</time>
      </trkpt>
      <trkpt lat="43.22969" lon="5.43119">
        <ele>155.58</ele>
        <time>2018-01-07T15:38:47Z</time>
      </trkpt>
      <trkpt lat="43.22968" lon="5.43103">
        <ele>156.75</ele>
        <time>2018-01-07T15:39:02Z</time>
      </trkpt>
      <trkpt lat="43.22967" lon="5.431">
        <ele>157.11</ele>
        <time>2018-01-07T15:39:05Z</time>
      </trkpt>
      <trkpt lat="43.22967" lon="5.43096">
        <ele>158</ele>
        <time>2018-01-07T15:39:09Z</time>
      </trkpt>
      <trkpt lat="43.22968" lon="5.43093">
        <ele>158.27</ele>
        <time>2018-01-07T15:39:11Z</time>
      </trkpt>
      <trkpt lat="43.22974" lon="5.43096">
        <ele>159.15</ele>
        <time>2018-01-07T15:39:19Z</time>
      </trkpt>
      <trkpt lat="43.22983" lon="5.43111">
        <ele>158.66</ele>
        <time>2018-01-07T15:39:32Z</time>
      </trkpt>
      <trkpt lat="43.22995" lon="5.43126">
        <ele>157.74</ele>
        <time>2018-01-07T15:39:48Z</time>
      </trkpt>
      <trkpt lat="43.23006" lon="5.43143">
        <ele>160.31</ele>
        <time>2018-01-07T15:40:04Z</time>
      </trkpt>
      <trkpt lat="43.23016" lon="5.43158">
        <ele>161.29</ele>
        <time>2018-01-07T15:40:19Z</time>
      </trkpt>
      <trkpt lat="43.23022" lon="5.43166">
        <ele>161.87</ele>
        <time>2018-01-07T15:40:27Z</time>
      </trkpt>
      <trkpt lat="43.23022" lon="5.43168">
        <ele>161.87</ele>
        <time>2018-01-07T15:40:28Z</time>
      </trkpt>
      <trkpt lat="43.23023" lon="5.43169">
        <ele>161.9</ele>
        <time>2018-01-07T15:40:29Z</time>
      </trkpt>
      <trkpt lat="43.23023" lon="5.43171">
        <ele>162.02</ele>
        <time>2018-01-07T15:40:30Z</time>
      </trkpt>
      <trkpt lat="43.23028" lon="5.43182">
        <ele>162.36</ele>
        <time>2018-01-07T15:40:41Z</time>
      </trkpt>
      <trkpt lat="43.23036" lon="5.43195">
        <ele>162.81</ele>
        <time>2018-01-07T15:40:55Z</time>
      </trkpt>
      <trkpt lat="43.23047" lon="5.43205">
        <ele>163.01</ele>
        <time>2018-01-07T15:41:08Z</time>
      </trkpt>
      <trkpt lat="43.23062" lon="5.43212">
        <ele>164.08</ele>
        <time>2018-01-07T15:41:24Z</time>
      </trkpt>
      <trkpt lat="43.2308" lon="5.43216">
        <ele>163.1</ele>
        <time>2018-01-07T15:41:44Z</time>
      </trkpt>
      <trkpt lat="43.23102" lon="5.43224">
        <ele>163.27</ele>
        <time>2018-01-07T15:42:04Z</time>
      </trkpt>
      <trkpt lat="43.23114" lon="5.43224">
        <ele>163.43</ele>
        <time>2018-01-07T15:42:13Z</time>
      </trkpt>
      <trkpt lat="43.23115" lon="5.43224">
        <ele>163.39</ele>
        <time>2018-01-07T15:42:14Z</time>
      </trkpt>
      <trkpt lat="43.23129" lon="5.43224">
        <ele>162.41</ele>
        <time>2018-01-07T15:42:29Z</time>
      </trkpt>
      <trkpt lat="43.2313" lon="5.43223">
        <ele>162.54</ele>
        <time>2018-01-07T15:42:30Z</time>
      </trkpt>
      <trkpt lat="43.23147" lon="5.43214">
        <ele>163.06</ele>
        <time>2018-01-07T15:42:47Z</time>
      </trkpt>
      <trkpt lat="43.23164" lon="5.43213">
        <ele>161.91</ele>
        <time>2018-01-07T15:43:05Z</time>
      </trkpt>
      <trkpt lat="43.23166" lon="5.43214">
        <ele>162.1</ele>
        <time>2018-01-07T15:43:07Z</time>
      </trkpt>
      <trkpt lat="43.23168" lon="5.43213">
        <ele>155.4</ele>
        <time>2018-01-07T15:43:09Z</time>
      </trkpt>
    </trkseg>
  </trk>
</gpx>